     2              OBSERVATION DATA    GPS                 RINEX VERSION / TYPE
TRRINEXO-V2.3.1-LH UCLA/SCEC 25-FEB-1994                    PGM / RUN BY / DATE
                                                            COMMENT
Original Marker Name: UCLA 051888                           COMMENT
Campaign Name: Northridge 1994                              COMMENT
4-Character Station Name: UCL0                              COMMENT
6-Character Antenna Code: TRMSST                            COMMENT
Vertical Measurement Point: TGP                             COMMENT
Vertical Offset to Rinex Ref. Point: 0.0629                 COMMENT
Radial Measurement Point: NGP                               COMMENT
Radial Offset to Rinex Ref. Point: 0.2334                   COMMENT
Antenna Height from Field Measurement: 1.1940 m             COMMENT
Eyepiece off 2mm.                                           COMMENT
Original XYZ: -2518915.2604 -4650706.2329 3552873.5197      COMMENT
New XYZ position is based on association with SCEC monument COMMENT
E1C7Y6O1+0011. Position of that monument is believed to be  COMMENT
valid to within 1 m horizontally; vertical accuracy         COMMENT
should be no worse than 3-times this value.                 COMMENT
                                                            COMMENT
Revised Rinex header created by UCSD GPS archive for        COMMENT
GSAC on 30-May-1999 (1999:150) 19:21:05 GMT                 COMMENT
For assistance contact dagnew@ucsd.edu or hjohnson@ucsd.edu COMMENT
                                                            COMMENT
UCLA 051888                                                 MARKER NAME
X. GE UCLA                                                  OBSERVER / AGENCY
888 TRIMBLE 4000 SST 4.81                                   REC # / TYPE / VERS
151 TR 4000SST L1/L2 GEO                                    ANT # / TYPE
 -2518926.0000 -4650726.0000  3552854.0000                  APPROX POSITION XYZ
        1.1081        0.0000        0.0000                  ANTENNA: DELTA H/E/N
     1     2     0                                          WAVELENGTH FACT L1/2
     3    C1    L1    L2                                    # / TYPES OF OBSERV
    30                                                      INTERVAL
  1994     2     9     0     1   30.000000                  TIME OF FIRST OBS
  1994     2     9    23    57   30.000000                  TIME OF LAST OBS
     0                                                      # OF SATELLITES
                                                            END OF HEADER
 94  2  9  0  1 30.0000000  0  8 19 26 27  2 18 16  7 31
  21465335.359          -0.83217
  24775039.273          -0.90613
  20458527.016          -0.12017
  21451087.492          -0.21517
  23928296.992          -0.81315
  24502921.977          -0.65713
  22933132.750          -0.80515
  23673272.844          -0.27015
 94  2  9  0  2  0.0000000  0  8 19 26 27  2 18 16  7 31
  21462990.898      -12325.490 7        -0.35517
  24747677.125     -143749.772 3
  20447428.102      -58320.226 7        -0.10417
  21435904.383      -79794.809 7
  23939384.125       58301.342 5
  24501169.086       -9217.142 3
  22904721.203     -149327.790 6        -0.03115
  23680102.555       35896.689 6
 94  2  9  0  2 30.0000000  0  8 19 26 27  2 18 16  7 31
  21460691.977      -24401.057 7     -9409.888 7
  24720374.523     -287278.087 3        -0.06812
  20436391.094     -116315.417 7    -45191.152 8
  21420771.758     -159320.613 7        -0.48118
  23950503.719      116703.537 5        -0.09512
  24499473.078      -18088.207 3        -0.11012
  22876343.539     -298452.275 6   -116200.867 5
  23686999.664       72140.166 6        -0.08214
 94  2  9  0  3  0.0000000  0  8 19 26 27  2 18 16  7 31
  21458444.234      -36216.751 7    -18616.924 7
  24693101.031     -430578.263 3   -111662.496 2
  20425423.430     -173954.577 7    -90104.777 8
  21405686.930     -238587.867 7    -61767.163 8
  23961637.336      175201.637 5     45582.768 2
  24497848.781      -26615.387 3     -6644.734 1
  22848004.430     -447360.415 6   -232233.130 5
  23693964.125      108737.444 5     28517.256 5
 94  2  9  0  3 30.0000000  0  8 19 26 27  2 18 16  7 31
  21456249.289      -47755.810 7    -27608.405 6
  24665867.641     -573660.792 4   -223155.270 2
  20414523.523     -231242.712 7   -134744.880 8
  21390649.203     -317602.332 7   -123336.869 7
  23972794.188      233793.508 5     91238.747 2
  24496290.656      -34812.940 3    -13032.457 3
  22819717.531     -596040.391 6   -348087.610 6
  23700992.594      145676.041 5     57300.554 3
 94  2  9  0  4  0.0000000  0  8 19 26 27  2 18 16  7 31
  21454111.813      -58989.543 7    -36361.962 7
  24638685.313     -716540.087 4   -334489.711 2
  20403688.055     -288189.630 7   -179119.093 8
  21375654.938     -396393.213 7   -184732.347 8
  23983956.781      292466.683 5    136958.073 3
  24494796.742      -42692.797 4    -19172.654 2
  22791466.797     -744490.919 6   -463763.290 6
  23708084.516      182956.810 5     86350.480 2
 94  2  9  0  4 30.0000000  0  8 19 26 27  2 18 16  7 31
  21452032.703      -69901.167 7    -44864.527 7
  24611528.758     -859210.958 3   -445661.762 1
  20392915.945     -344790.311 7   -223223.512 7
  21360705.703     -474965.253 7   -245957.293 7
  23995134.297      351234.671 5    182751.233 2
  24493353.156      -50239.729 3    -25053.359 1
  22763260.227     -892705.870 6   -579255.396 5
  23715248.195      220584.340 5    115670.603 3
 94  2  9  0  5  0.0000000  0  8 19 26 27  2 18 16  7 31
  21450017.258      -80505.505 7    -53127.645 7
  24584426.719    -1001669.277 4   -556668.172 3
  20382208.906     -401062.102 7   -267071.657 8
  21345797.125     -553321.445 7   -307014.057 8
  24006333.742      410105.494 5    228624.541 3
  24491982.969      -57457.840 3    -30677.826 2
  22735102.992    -1040687.187 6   -694565.456 6
  23722470.156      258545.596 5    145250.767 4
 94  2  9  0  5 30.0000000  0  8 19 26 27  2 18 16  7 31
  21448053.195      -90809.623 7    -61156.827 7
  24557356.008    -1143916.090 4   -667509.800 2
  20371560.430     -457016.058 7   -310672.133 8
  21330922.523     -631460.533 7   -367901.658 8
  24017561.180      469073.722 5    274573.798 3
  24490665.781      -64358.884 3    -36055.250 1
  22706983.836    -1188439.299 6   -809696.917 5
  23729755.641      296820.658 5    175075.462 4
 94  2  9  0  6  0.0000000  0  8 19 26 27  2 18 16  7 31
  21446152.031     -100818.067 7    -68955.612 7
  24530330.750    -1285934.096 4   -778173.116 2
  20360973.898     -512630.849 7   -354008.318 7
  21316101.273     -709358.833 7   -428601.623 7
  24028795.156      528144.964 5    320603.250 3
  24489427.875      -70926.453 3    -41172.829 2
  22678911.758    -1335949.406 6   -924639.795 5
  23737096.797      335409.999 5    205145.049 4
 94  2  9  0  6 30.0000000  0  8 19 26 27  2 18 16  7 31
  21444297.773     -110560.385 7    -76547.034 7
  24503349.445    -1427728.216 4   -888661.967 2
  20350457.664     -567910.352 7   -397083.251 8
  21301325.023     -787002.148 7   -489102.907 8
  24040060.414      587319.643 5    366713.305 2
  24488237.008      -77178.046 3    -46044.267 1
  22650887.109    -1483221.955 6  -1039397.566 6
  23744495.633      374283.523 5    235436.070 3
 94  2  9  0  7  0.0000000  0  8 19 26 27  2 18 16  7 31
  21442495.188     -120031.712 7    -83927.297 7
  24476408.148    -1569301.055 4   -998978.428 1
  20340000.578     -622856.152 7   -439898.148 8
  21286603.945     -864382.192 7   -549399.035 8
  24051345.016      646581.091 5    412890.999 4
  24487108.695      -83124.512 3    -50677.912 1
  22622910.156    -1630248.163 6  -1153963.389 6
  23751949.523      413438.629 5    265946.499 4
 94  2  9  0  7 30.0000000  0  8 19 26 27  2 18 16  7 31
  21440744.688     -129225.969 7    -91091.663 7
  24449506.867    -1710649.465 4  -1109119.989 1
  20329611.414     -677457.756 7   -482444.846 8
  21271927.625     -941498.575 7   -609489.718 8
  24062631.305      705910.857 5    459121.920 2
  24486025.484      -88761.468 4    -55070.389 2
  22594982.805    -1777007.348 6  -1268321.139 6
  23759452.094      452888.937 5    296686.984 4
 94  2  9  0  8  0.0000000  0  8 19 26 27  2 18 16  7 31
  21439047.586     -138146.996 7    -98043.124 7
  24422658.164    -1851764.390 5  -1219079.638 1
  20319285.789     -731726.467 7   -524732.139 8
  21257298.609    -1018364.306 7   -669385.081 8
  24073931.297      765312.290 5    505408.698 1
  24485012.484      -94095.459 3    -59226.747 2
  22567103.078    -1923501.335 6  -1382472.247 6
  23767021.461      492637.464 5    327659.836 2
 94  2  9  0  8 30.0000000  0  8 19 26 27  2 18 16  7 31
  21437400.422     -146796.737 7   -104783.186 7
  24395850.703    -1992633.767 4  -1328847.888 2
  20309016.203     -785666.996 7   -566763.708 8
  21242717.766    -1095006.755 7   -729106.461 8
  24085258.930      824768.362 5    551738.057 1
  24484052.977      -99149.140 3    -63164.687 1
  22539276.695    -2069733.727 6  -1496419.525 6
  23774640.008      532678.589 5    358860.660 4
 94  2  9  0  9  0.0000000  0  8 19 26 27  2 18 16  7 31
  21435808.641     -155166.333 7   -111304.953 7
  24369087.148    -2133243.803 4  -1438414.085 2
  20298816.344     -839278.622 7   -608539.003 8
  21228170.273    -1171443.729 7   -788667.726 8
  24096556.977      884276.293 4    598107.824 1
  24483144.523     -103900.867 3    -66867.364 2
  22511501.180    -2215705.017 6  -1610163.342 6
  23782316.250      573026.789 5    390300.801 4
 94  2  9  0  9 30.0000000  0  8 19 26 27  2 18 16  7 31
  21434268.055     -163267.278 7   -117617.389 7
  24342389.547    -2273575.287 4  -1547763.232 1
  20288683.938     -892537.615 7   -650039.512 8
  21213667.906    -1247667.436 7   -848062.809 8
  24107913.266      943862.562 5    644538.618 1
  24482295.320     -108323.306 2    -70313.450 1
  22483774.758    -2361413.703 6  -1723702.532 6
  23790058.922      613698.785 5    421993.242 4
 94  2  9  0 10  0.0000000  0  8 19 26 27  2 18 16  7 31
  21432778.898     -171087.157 7   -123710.808 7
  24315741.805    -2413611.821 5  -1656882.514 1
  20278619.609     -945415.723 7   -691243.237 8
  21199203.844    -1323657.467 7   -907275.803 8
  24119266.648     1003548.779 5    691047.382 1
  24481518.148     -112401.087 2
  22456094.953    -2506860.860 6  -1837037.951 6
  23797858.430      654699.612 5    453941.897 3
 94  2  9  0 10 30.0000000  0  8 19 26 27  2 18 16  7 31
  21431346.813     -178613.603 7   -129575.569 7
  24289147.508    -2553347.375 4  -1765767.307 1
  20268632.078     -997904.147 7   -732143.313 8
  21184794.961    -1399391.232 7   -966289.118 8
  24130637.359     1063338.345 5    737636.608 1
  24480818.922     -116104.139 3        -0.46412
  22428472.148    -2652035.687 6  -1950161.141 6
  23805726.219      696035.053 5    486151.299 3
 94  2  9  0 11  0.0000000  0  8 19 26 27  2 18 16  7 31
  21429970.109     -185839.987 6   -135206.531 8
  24262620.383    -2692786.167 5  -1874420.860 1
  20258719.078    -1049999.488 7   -772737.080 8
  21170434.828    -1474841.638 7  -1025081.628 8
  24142045.414     1123244.445 4    784316.640 2
  24480194.031     -119410.499 3     -2576.902 3
  22400900.594    -2796916.890 6  -2063055.544 6
  23813655.039      737722.413 5    518634.932 3
 94  2  9  0 11 30.0000000  0  8 19 26 27  2 18 16  7 31
  21428652.172     -192766.609 6   -140603.911 8
  24236139.117    -2831930.795 5  -1982845.179 1
  20248884.914    -1101692.310 7   -813017.199 8
  21156132.227    -1549993.512 7  -1083641.529 7
  24153461.242     1183256.909 4    831079.521 2
  24479637.328     -122350.075 3     -4867.517 2
  22373388.125    -2941489.831 6  -2175709.741 6
  23821648.805      779741.138 5    551376.766 2
 94  2  9  0 12  0.0000000  0  8 19 26 27  2 18 16  7 31
  21427392.703     -199384.500 6   -145760.728 7
  24209715.219    -2970793.258 5  -2091049.635 2
  20239118.141    -1153010.892 7   -853005.699 8
  21141886.766    -1624857.251 7  -1141976.883 7
  24164911.992     1243349.448 5    877904.845 1
  24479148.656     -124962.297 3     -6903.066 1
  22345938.758    -3085757.493 6  -2288126.074 6
  23829709.836      822062.886 5    584354.733 1
 94  2  9  0 12 30.0000000  0  8 19 26 27  2 18 16  7 31
  21426192.258     -205693.119 7   -150676.555 7
  24183343.859    -3109379.381 5  -2199038.759 2
  20229415.461    -1203975.113 7   -892718.088 8
  21127698.102    -1699434.996 7  -1200089.395 7
  24176325.805     1303513.635 3    924785.942 2
  24478706.695     -127259.775 3     -8693.302 1
  22318539.227    -3229714.519 6  -2400300.341 6
  23837817.695      864692.215 5    617572.359 2
 94  2  9  0 13  0.0000000  0  8 19 26 27  2 18 16  7 31
  21425051.945     -211693.205 7   -155351.966 7
  24157023.914    -3247702.868 5  -2306823.259 1
  20219791.320    -1254572.451 7   -932144.584 8
  21113557.281    -1773739.414 7  -1257988.932 7
  24187824.617     1363746.452 5    971720.547 1
  24478322.703     -129278.887 3    -10266.709 2
  22291206.555    -3373366.478 6  -2512236.901 6
  23845984.938      907618.904 5    651021.732 2
 94  2  9  0 13 29.9990000  0  8 19 26 27  2 18 16  7 31
  21423968.839     -217375.123 7   -159779.443 7
  24130747.573    -3385756.936 5  -2414397.806 1
  20210231.604    -1304797.575 7   -971281.044 8
  21099467.769    -1847776.578 7  -1315680.205 7
  24199273.925     1424050.338 4   1018710.542 2
  24477991.511     -131028.521 3    -11630.136 1
  22263924.347    -3516718.292 6  -2623939.565 6
  23854213.714      950835.763 5    684697.160 3
 94  2  9  0 13 59.9990000  0  8 19 26 27  2 18 16  7 31
  21422944.323     -222765.474 6   -163979.726 7
  24104522.034    -3523582.878 5  -2521794.657 2
  20200737.526    -1354694.324 7  -1010161.627 8
  21085422.409    -1921580.274 7  -1373189.552 7
  24210782.065     1484404.853 5   1065739.908 2
  24477706.253     -132515.435 3    -12788.767 1
  22236699.995    -3659808.888 6  -2735438.708 6
  23862491.339      994333.102 5    718591.149 3
 94  2  9  0 14 29.9990000  0  8 19 26 27  2 18 16  7 31
  21421976.581     -227856.715 7   -167946.933 7
  24078341.847    -3661162.614 5  -2628999.584 3
  20191307.644    -1404235.497 7  -1048765.153 8
  21071426.308    -1995137.933 7  -1430507.188 7
  24222275.456     1544824.876 5   1112820.467 1
  24477476.151     -133711.086 3    -13720.458 2
  22209523.776    -3802605.775 6  -2846708.988 6
  23870819.675     1038126.781 5    752716.061 3
 94  2  9  0 14 59.9990000  0  8 19 26 27  2 18 16  7 31
  21421062.620     -232658.445 6   -171688.553 7
  24052205.831    -3798495.637 5  -2736012.302 2
  20181954.151    -1453415.225 7  -1087087.014 8
  21057469.440    -2068466.603 7  -1487646.388 8
  24233771.612     1605291.907 5   1159937.452 1
  24477299.206     -134628.420 3    -14435.297 2
  22182408.183    -3945109.228 6  -2957750.615 6
  23879208.354     1082193.749 5    787053.941 4
 94  2  9  0 15 29.9990000  0  8 19 26 27  2 18 16  7 31
  21420201.894     -237174.672 7   -175207.689 7
  24026123.745    -3935561.309 5  -2842816.659 4
  20172660.222    -1502236.156 7  -1125129.295 8
  21043562.011    -2141557.302 7  -1544600.156 7
  24245295.253     1665790.413 5
  24477186.612     -135256.775 3    -14924.992 1
  22155350.128    -4087309.199 6  -3068555.771 6
  23887647.698     1126531.693 5    821602.985 2
 94  2  9  0 15 59.9990000  0  8 19 26 27  2 18 16  7 31
  21419399.769     -241393.573 7   -178495.151 7
  24000100.667    -4072334.423 5  -2949393.110 3
  20163441.417    -1550675.635 7  -1162874.343 8
  21029701.550    -2214398.579 7  -1601359.560 7
  24256801.472     1726327.568 4
  24477110.120     -135588.123 2
  22128350.394    -4229190.691 6  -3179112.759 6
  23896137.292     1171148.358 5    856369.187 4
 94  2  9  0 16 29.9990000  0  8 19 26 27  2 18 16  7 31
  21418653.167     -245327.608 7   -181560.643 7
  23974126.104    -4208815.625 5  -3055742.067 2
  20154296.464    -1598738.620 7  -1200326.023 8
  21015884.972    -2287015.905 7  -1657944.464 7
  24268331.886     1786874.958 5        -0.32511
  24477100.175     -135661.789 2
  22101407.269    -4370779.042 6  -3289441.317 6
  23904673.870     1216012.960 5    891328.580 3
 94  2  9  0 16 59.9990000  0  8 19 26 27  2 18 16  7 31
  21417958.308     -248960.890 7   -184391.760 7
  23948212.558    -4344982.760 5  -3161846.312 2
  20145226.948    -1646406.520 7  -1237469.832 8
  21002107.331    -2359405.932 7  -1714352.262 7
  24279848.097     1847436.638 4     47190.489 1
  24477140.214     -135482.646 3
  22074513.308    -4512082.810 6  -3399548.116 6
  23913258.003     1261129.176 5    926484.020 2
 94  2  9  0 17 29.9990000  0  8 19 26 27  2 18 16  7 31
  21417329.050     -252283.520 7   -186980.833 7
  23922367.659    -4480832.122 5  -3267702.945 3
  20136230.394    -1693686.438 7  -1274311.332 8
  20988374.167    -2431567.526 7  -1770582.063 7
  24291400.315     1908030.712 5     94406.644 1
  24477223.972     -135044.219 3    -14759.566 1
  22047677.378    -4653107.186 6  -3509437.221 6
  23921892.636     1306498.084 5    961836.414 1
 94  2  9  0 17 59.9990000  0  8 19 26 27  2 18 16  7 31
  21416753.784     -255295.839 7   -189328.102 7
  23896569.862    -4616370.905 5  -3373317.575 2
  20127302.284    -1740593.171 7  -1310862.026 8
  20974686.159    -2503514.548 7  -1826644.674 7
  24302925.034     1968668.308 3    141656.590 2
  24477345.292     -134348.627 3    -14217.571 1
  22020894.409    -4793849.117 6  -3619106.240 6
  23930575.167     1352125.223 5    997390.006 3
 94  2  9  0 18 29.9990000  0  8 19 26 27  2 18 16  7 31
  21416236.737     -258010.618 7   -191443.512 7
  23870833.894    -4751611.208 5  -3478699.618 3
  20118441.151    -1787151.490 7  -1347141.234 8
  20961035.315    -2575254.015 7  -1882545.554 7
  24314484.901     2029341.724 4    188934.597 1
  24477539.128     -133398.902 2
  21994167.214    -4934303.650 6  -3728551.301 6
  23939301.761     1398001.603 5   1033137.814 2
 94  2  9  0 18 59.9990000  0  8 19 26 27  2 18 16  7 31
  21415776.870     -260446.684 7   -193341.751 7
  23845150.261    -4886569.287 5  -3583861.740 4
  20109647.237    -1833378.166 7  -1383162.015 8
  20947419.495    -2646794.314 7  -1938291.236 8
  24326014.644     2090057.857 3    236245.695 1
  24477774.667     -132188.282 3        -0.25511
  21967497.300    -5074468.716 6  -3837770.810 6
  23948078.175     1444121.068 5   1069075.066 2
 94  2  9  0 19 29.9990000  0  8 19 26 27  2 18 16  7 31
  21415365.878     -262592.098 7   -195013.512 7
  23819530.480    -5021231.105 5  -3688792.981 4
  20100913.308    -1879255.653 7  -1418910.698 8
  20933851.815    -2718103.704 7  -1993857.000 8
  24337599.847     2150839.874 5    283608.328 1
  24478039.800     -130690.099 2      1167.052 2
  21940888.776    -5214298.276 6  -3946728.892 6
  23956906.409     1490515.806 5   1105226.781 3
 94  2  9  0 19 59.9990000  0  8 19 26 27  2 18 16  7 31
  21415014.097     -264441.557 6   -196454.664 7
  23793964.409    -5155584.787 5  -3793484.140 4
  20092259.386    -1924755.576 7  -1454365.176 8
  20920325.081    -2789162.704 7  -2049227.650 8
  24349157.784     2211679.881 3    331015.976 1
  24478394.659     -128905.415 3      2557.718 2
  21914344.487    -5353769.578 6  -4055407.804 6
  23965795.745     1537207.158 5   1141609.638 4
 94  2  9  0 20 29.9990000  0  8 19 26 27  2 18 16  7 31
  21414711.394     -266029.942 6   -197692.372 7
  23768450.862    -5289654.849 5  -3897954.270 3
  20083670.776    -1969877.047 7  -1489524.760 8
  20906849.667    -2859994.568 7  -2104421.310 8
  24360758.901     2272542.369 5    378441.265 2
  24478775.792     -126863.038 3      4149.137 1
  21887871.362    -5492913.592 6  -4163831.691 6
  23974724.979     1584152.256 5   1178190.188 2
 94  2  9  0 20 59.9990000  0  7 19 26 27  2 18  7 31
  21414460.050     -267364.383 7   -198732.213 7
  23742988.167    -5423439.305 4  -4002201.854 3
  20075158.323    -2014602.769 7  -1524375.974 8
  20893414.378    -2930601.916 7  -2159440.031 8
  24372325.237     2333420.867 4    425878.922 2
  21861445.097    -5631750.887 6  -4272016.558 6
  23983708.956     1631343.672 5   1214962.734 4
 94  2  9  0 21 29.9990000  0  8 19 26 27  2 18 15  7 31
  21414251.737     -268446.255 6   -199575.234 7
  23717579.987    -5556938.466 3  -4106227.095 3
  20066721.120    -2058940.635 7  -1558924.956 8
  20880019.972    -3000986.459 7  -2214285.131 8
  24383922.761     2394292.032 5    473310.945 1
  24397291.565     -109682.857 3
  21835083.894    -5770291.742 6  -4379970.438 6
  23992735.597     1678763.736 5   1251913.411 2
 94  2  9  0 21 59.9990000  0  8 19 26 27  2 18 15  7 31
  21414101.667     -269259.593 7   -200209.013 7
  23692244.526    -5690129.931 5  -4210012.595 3
  20058358.784    -2102889.233 7  -1593170.615 8
  20866675.011    -3071127.915 7  -2268940.821 8
  24395496.479     2455170.071 4    520748.338 1
  24376475.612     -219099.495 3
  21808777.112    -5908536.414 6  -4487693.526 6
  24001795.854     1726410.672 5   1289040.881 3
 94  2  9  0 22 29.9990000  0  8 19 26 27  2 18 15  7 31
  21413995.456     -269807.544 6   -200635.998 7
  23666957.167    -5823016.059 5  -4313560.176 3
  20050064.683    -2146471.281 7  -1627130.657 8
  20853369.964    -3141039.608 7  -2323417.472 8
  24407100.956     2516056.364 5    568192.118 1
  24355697.159     -328262.951 3        -0.44211
  21782526.745    -6046499.235 6  -4595197.001 6
  24010903.425     1774258.040 5   1326324.550 2
 94  2  9  0 22 59.9990000  0  8 19 26 27  2 18 15  7 31
  21413946.448     -270066.731 6
  23641719.659    -5955593.131 4  -4416866.915 3
  20041840.964    -2189699.050 7  -1660814.628 7
  20840107.253    -3210718.694 7  -2377712.878 8
  24418678.722     2576956.056 4    615646.388 1
  24334975.417     -437165.885 3    -84859.766 2
  21756326.706    -6184164.704 6  -4702468.754 6
  24020048.378     1822317.043 5   1363773.101 3
 94  2  9  0 23 29.9990000  0  8 19 26 27  2 18 15  7 31
  21413953.120     -270028.999 6
  23616553.683    -6087869.786 4  -4519939.563 4
  20033684.237    -2232575.264 7  -1694224.656 8
  20826892.597    -3280162.697 7  -2431825.084 7
  24430276.269     2637853.791 3    663099.063 1
  24314308.894     -545807.486 3   -169515.494 1
  21730194.175    -6321506.869 6  -4809488.600 6
  24029228.729     1870579.854 5   1401380.475 3
 94  2  9  0 23 59.9990000  0  8 19 26 27  2 18 15  7 31
  21414013.081     -269695.004 6
  23591436.651    -6219854.420 5  -4622784.675 3
  20025589.690    -2275092.725 7  -1727355.151 7
  20813721.987    -3349389.344 7  -2485767.936 8
  24441854.878     2698740.571 3    710543.206 1
  24293674.823     -654192.323 3   -253971.138 1
  21704119.003    -6458526.959 6  -4916257.480 6
  24038449.761     1919041.826 5   1439143.041 2
 94  2  9  0 24 29.9990000  0  8 19 26 27  2 18 15  7 31
  21414138.175     -269062.002 6   -200055.087 7
  23566374.511    -6351546.640 4  -4725401.950 4
  20017571.784    -2317249.706 7  -1760204.749 7
  20800583.847    -3418422.104 7  -2539559.694 8
  24453441.019     2759601.014 3
  24273100.753     -762319.027 3   -338225.610 1
  21678108.229    -6595211.774 6  -5022765.093 6
  24047710.987     1967701.622 5   1477059.754 1
 94  2  9  0 24 59.9990000  0  8 19 26 27  2 18 15  7 31
  21414317.425     -268122.347 6   -199322.890 7
  23541369.870    -6482929.538 4  -4827778.197 4
  20009619.675    -2359028.579 7  -1792759.703 8
  20787489.886    -3487238.017 7  -2593182.479 8
  24465016.269     2820436.052 4
  24252577.761     -870163.264 3   -422260.024 1
  21652164.706    -6731533.949 6  -5128990.123 6
  24057013.073     2016579.667 5   1515146.533 2
 94  2  9  0 25 29.9990000  0  8 19 26 27  2 18 15  7 31
  21414549.097     -266886.263 6   -198359.710 7
  23516434.862    -6613992.680 4  -4929905.273 5
  20001744.065    -2400428.734 7  -1825019.564 8
  20774435.386    -3555835.244 7  -2646634.861 8
  24476578.073     2881241.473 3        -0.46212
  24232110.284     -977730.200 3   -506078.336 3
  21626296.433    -6867498.971 6  -5234936.857 6
  24066351.815     2065668.204 5   1553397.353 2
 94  2  9  0 25 59.9990000  0  8 19 26 27  2 18 15  7 31
  21414841.261     -265344.674 6   -197158.475 7
  23491558.714    -6744701.472 4  -5031756.241 4
  19993936.854    -2441437.704 7  -1856974.608 8
  20761424.745    -3624199.453 7  -2699905.669 8
  24488157.097     2942043.948 3     47378.013 2
  24211700.253    -1085000.081 3   -589665.184 1
  21600489.581    -7003095.688 6  -5340596.591 7
  24075737.456     2114989.451 5   1591829.499 1
 94  2  9  0 26 29.9990000  0  8 19 26 27  2 18 15  7 31
  21415187.081     -263526.596 6   -195741.804 6
  23466753.698    -6875067.143 5  -5133339.860 3
  19986203.472    -2482070.477 7  -1888636.509 8
  20748461.644    -3692333.556 7  -2752997.164 8
  24499721.167     3002833.005 3     94746.005 2
  24191336.737    -1191983.389 3   -673028.752 2
  21574754.401    -7138338.104 6  -5445980.256 6
  24085168.425     2164528.825 5   1630431.624 2
 94  2  9  0 26 59.9990000  0  8 19 26 27  2 18 15  7 31
  21415578.347     -261461.202 6   -194132.403 6
  23442008.159    -7005121.342 5  -5234680.779 3
  19978542.261    -2522333.398 7  -1920010.211 8
  20735536.479    -3760255.993 7  -2805923.729 8
  24511258.604     3063587.488 3    142087.128 2
  24171032.417    -1298698.406 4   -756183.241 2
  21549076.745    -7273267.423 6  -5551119.952 6
  24094631.073     2214256.551 5   1669180.493 2
 94  2  9  0 27 29.9990000  0  8 19 26 27  2 18 15  7 31
  21416023.706     -259144.557 6   -192327.230 6
  23417317.019    -7134856.807 5  -5335773.340 3
  19970952.753    -2562213.497 7  -1951085.608 8
  20722649.089    -3827970.760 7  -2858688.477 8
  24522854.480     3124318.490 4    189409.883 1
  24150776.706    -1405134.449 4   -839120.372 3
  21523463.776    -7407880.849 6  -5656013.496 6
  24104131.347     2264172.645 5   1708076.140 3
 94  2  9  0 27 59.9990000  0  8 19 26 27  2 18 15  7 31
  21416511.050     -256586.388 6   -190333.852 6
  23392691.987    -7264279.085 5  -5436621.863 4
  19963438.847    -2601708.633 7  -1981861.040 7
  20709798.175    -3895492.631 7  -2911302.907 8
  24534389.831     3185023.429 3    236712.331 2
  24130574.550    -1511281.276 4   -921832.130 2
  21497906.667    -7542181.456 6  -5760663.284 6
  24113667.628     2314278.897 5   1747119.965 3
 94  2  9  0 28 29.9980000  0  8 19 26 27  2 18 15  7 31
  21417040.123     -253776.052 6   -188143.996 7
  23368123.389    -7393386.169 5  -5537224.770 5
  19955997.334    -2640817.664 7  -2012335.613 8
  20696987.295    -3962823.406 7  -2963768.429 8
  24545949.123     3245706.339 3    283997.675 1
  24110435.506    -1617125.115 4  -1004307.783 2
  21472413.014    -7676164.126 6  -5865065.332 6
  24123234.162     2364569.477 5   1786307.425 2
 94  2  9  0 28 59.9980000  0  8 19 26 27  2 18 15  7 31
  21417631.350     -250693.289 6   -185741.847 7
  23343614.123    -7522180.463 5  -5637583.957 4
  19948625.350    -2679548.716 7  -2042515.654 7
  20684209.764    -4029970.935 7  -3016091.167 8
  24557487.193     3306369.398 2    331267.441 1
  24090351.850    -1722666.795 5  -1086547.987 2
  21446975.951    -7809825.585 6  -5969217.089 6
  24132842.154     2415057.880 5   1825649.042 4
 94  2  9  0 29 29.9980000  0  7 19 26 27  2 15  7 31
  21418273.381     -247322.033 6   -183114.911 7
  23319168.584    -7650632.753 5  -5737676.628 2
  19941329.201    -2717903.331 7  -2072402.365 8
  20671471.600    -4096915.325 7  -3068255.617 8
  24070329.334    -1827895.689 5  -1168544.433 1
  21421608.498    -7943132.716 6  -6073092.754 6
  24142494.006     2465761.352 5   1865158.229 4
 94  2  9  0 29 59.9980000  0  7 19 26 27  2 15  7 31
  21418973.568     -243648.787 6   -180252.649 7
  23294794.443    -7778739.011 5  -5837499.689 4
  19934100.545    -2755887.300 7  -2102000.259 7
  20658771.920    -4163641.716 7  -3120250.211 8
  24050365.600    -1932812.337 5  -1250297.573 3
  21396307.264    -8076087.025 6  -6176693.497 7
  24152182.943     2516676.882 4   1904832.663 3
 94  2  9  0 30 29.9980000  0  7 19 26 27  2 15  7 31
  21419729.561     -239657.332 6   -177142.437 7
  23270475.975    -7906500.853 5  -5937054.369 2
  19926939.115    -2793507.177 7  -2131314.452 7
  20646121.303    -4230133.308 7  -3172061.832 8
  24030461.576    -2037421.426 5  -1331811.109 2
  21371075.537    -8208675.463 6  -6280009.143 7
  24161906.772     2567786.527 4   1944658.321 4
 94  2  9  0 30 59.9980000  0  7 19 26 27  2 15  7 31
  21420555.420     -235335.763 6   -173774.992 7
  23246240.014    -8033890.146 5  -6036318.745 3
  19919855.553    -2830731.144 7  -2160320.141 7
  20633517.225    -4296371.134 7  -3223675.718 8
  24010610.904    -2141706.540 5  -1413072.164 2
  21345923.053    -8340870.524 6  -6383018.261 7
  24171670.662     2619096.961 4   1984640.455 3
 94  2  9  0 31 29.9980000  0  7 19 26 27  2 15  7 31
  21421432.357     -230714.122 6   -170173.729 7
  23222063.295    -8160914.647 5  -6135298.851 3
  19912847.514    -2867560.065 7  -2189017.996 7
  20620958.943    -4362366.377 7  -3275100.576 8
  23990832.303    -2245678.691 5  -1494089.365 2
  21320835.889    -8472691.305 6  -6485735.732 7
  24181465.170     2670566.155 4   2024746.302 3
 94  2  9  0 31 59.9980000  0  7 19 26 27  2 15  7 31
  21422371.397     -225797.742 6   -166342.794 6
  23197959.748    -8287574.843 5  -6233995.064 2
  19905916.709    -2903979.607 7  -2217396.856 7
  20608443.748    -4428128.295 7  -3326343.627 8
  23971101.873    -2349325.964 5  -1574853.381 3
  21295824.350    -8604131.048 6  -6588156.298 7
  24191289.107     2722186.826 5   2064970.192 1
 94  2  9  0 32 29.9980000  0  7 19 26 27  2 15  7 31
  21423362.959     -220575.896 6   -162273.824 7
  23173934.654    -8413848.297 5  -6332389.942 2
  19899069.100    -2939962.303 7  -2245435.318 7
  20595973.732    -4493662.320 7  -3377409.100 8
  23951442.881    -2452625.481 4  -1655346.436 4
  21270889.373    -8735160.580 6  -6690257.211 7
  24201138.818     2773981.585 4   2105329.790 2
 94  2  9  0 32 59.9980000  0  7 19 26 27  2 15  7 31
  21424409.928     -215070.754 6   -157984.108 7
  23149977.295    -8539741.360 5  -6430488.435 3
  19892307.600    -2975514.126 7  -2273138.038 7
  20583541.014    -4558992.230 7  -3428315.523 8
  23931850.842    -2555585.697 5  -1735575.141 5
  21246028.357    -8865808.304 6  -6792060.617 7
  24211036.889     2825946.916 4   2145822.301 2
 94  2  9  0 33 29.9980000  0  7 19 26 27  2 15  7 31
  21425500.920     -209312.646 6   -153497.296 6
  23126087.107    -8665303.119 5  -6528328.723 5
  19885612.303    -3010684.494 7  -2300543.512 7
  20571142.248    -4624153.974 7  -3479090.910 8
  23912318.639    -2658239.378 4  -1815564.987 4
  21221233.170    -8996115.336 6  -6893598.547 7
  24220950.053     2878064.166 4   2186433.161 3
 94  2  9  0 33 59.9980000  0  7 19 26 27  2 15  7 31
  21426659.904     -203263.862 6   -148783.972 6
  23102255.717    -8790523.113 5  -6625902.690 4
  19878991.178    -3045474.980 7  -2327652.994 7
  20558773.693    -4689140.893 7  -3529730.069 8
  23892843.545    -2760567.790 4  -1895301.369 4
  21196507.068    -9126056.935 6  -6994851.726 7
  24230904.990     2930369.319 4   2227190.444 2
 94  2  9  0 34 29.9980000  0  7 19 26 27  2 15  7 31
  21427865.748     -196901.502 6   -143826.311 7
  23078490.607    -8915387.022 5  -6723199.189 4
  19872446.686    -3079880.054 7  -2354462.132 7
  20546446.162    -4753937.005 7  -3580220.549 8
  23873434.365    -2862555.894 4  -1974772.558 2
  21171846.936    -9255632.070 6  -7095819.352 7
  24240895.756     2982872.329 5   2268101.940 2
 94  2  9  0 34 59.9980000  0  7 19 26 27  2 15  7 31
  21429129.834     -190254.883 6   -138647.148 6
  23054799.248    -9039927.400 5  -6820243.614 4
  19865965.295    -3113922.663 7  -2380988.838 7
  20534148.693    -4818559.507 7  -3630575.749 8
  23854091.959    -2964224.774 5  -2053995.024 2
  21147254.896    -9384868.335 6  -7196522.924 7
  24250925.334     3035544.678 5   2309145.367 2
 94  2  9  0 35 29.9980000  0  6 19 26 27  2 15  7
  21430453.482     -183311.941 6   -133237.074 7
  23031163.201    -9164116.074 5  -6917013.975 4
  19859562.271    -3147581.356 7  -2407216.386 8
  20521886.576    -4882990.181 7  -3680781.471 8
  23834808.428    -3065554.194 4  -2132952.978 2
  21122732.826    -9513733.158 6  -7296937.056 7
 94  2  9  0 35 59.9980000  0  6 19 26 27  2 15  7
  21431823.068     -176100.516 6   -127617.802 6
  23007593.740    -9287955.956 5  -7013512.537 5
  19853229.123    -3180861.936 7  -2433149.313 8
  20509658.881    -4947243.415 7  -3730848.941 8
  23815588.701    -3166557.079 3  -2211656.475 2
  21098277.553    -9642234.578 6  -7397068.022 7
 94  2  9  0 36 29.9980000  0  6 19 26 27  2 15  7
  21433248.748     -168630.035 6   -121796.660 6
  22984103.053    -9411425.512 5  -7109722.544 4
  19846970.592    -3213749.264 7  -2458775.797 7
  20497466.670    -5011298.873 7  -3780762.296 8
  23796436.107    -3267222.530 3  -2290097.034 3
  21073895.889    -9770365.091 6  -7496909.961 7
 94  2  9  0 36 59.9980000  0  6 19 26 27  2 15  7
  21434718.123     -160904.911 6   -115777.109 6
  22960681.904    -9534500.975 5  -7205625.464 4
  19840785.279    -3246239.615 7  -2484092.961 7
  20485323.389    -5075136.577 7  -3830505.959 8
  23777345.615    -3367546.130 4  -2368271.214 3
  21049586.498    -9898110.377 6  -7596451.721 7
 94  2  9  0 37 29.9980000  0  6 19 26 27  2 15  7
  21436235.928     -152920.406 6   -109555.426 6
  22937340.076    -9657168.051 5  -7301210.164 4
  19834678.826    -3278344.207 7  -2509109.529 8
  20473217.428    -5138748.906 7  -3880074.012 8
  23758316.389    -3467528.366 3  -2446179.428 2
  21025352.178   -10025470.665 6  -7695693.484 7
 94  2  9  0 37 59.9980000  0  6 19 26 27  2 15  7
  21437811.904     -144649.245 6   -103110.383 6
  22914068.982    -9779429.062 5  -7396478.474 4
  19828643.928    -3310056.253 7  -2533820.217 8
  20461156.811    -5202121.973 7  -3929455.630 8
  23739363.186    -3567154.871 3  -2523810.432 4
  21001193.529   -10152437.437 6  -7794628.606 7
 94  2  9  0 38 29.9980000  0  6 19 26 27  2 15  7
  21439438.646     -136079.084 6    -96432.356 6
  22890883.100    -9901285.702 5  -7491431.667 4
  19822685.193    -3341378.387 6  -2558227.079 8
  20449142.404    -5265256.959 7  -3978651.723 8
  23720467.740    -3666421.397 4  -2601160.931 2
  20977103.225   -10279025.821 6  -7893268.888 7
 94  2  9  0 38 59.9980000  0  6 19 26 27  2 15  7
  21441129.639     -127201.202 6    -89514.547 6
  22867768.428   -10022759.650 5  -7586086.668 5
  19816800.928    -3372298.490 6  -2582320.668 8
  20437172.311    -5328165.778 7  -4027671.577 8
  23701643.896    -3765328.269 3  -2678231.194 3
  20953083.506   -10405236.945 6  -7991615.203 7
 94  2  9  0 39 29.9980000  0  6 19 26 27  2 15  7
  21442879.420     -118006.491 6    -82349.863 6
  22844721.350   -10143870.035 5  -7680458.378 4
  19810995.561    -3402803.992 6  -2606091.196 8
  20425243.475    -5390850.028 7  -4076516.446 8
  23682895.170    -3863868.002 4  -2755015.356 2
  20929140.912   -10531064.551 6  -8089662.664 7
 94  2  9  0 39 59.9980000  0  6 19 26 27  2 15  7
  21444686.850     -108501.731 6    -74943.588 6
  22821745.998   -10264628.978 5  -7774556.248 4
  19805269.553    -3432890.007 6  -2629534.860 8
  20413352.771    -5453324.677 7  -4125197.993 8
  23664215.201    -3962044.085 5  -2831516.147 2
  20905266.732   -10656518.624 6  -8187419.073 7
 94  2  9  0 40 29.9980000  0  6 19 26 27  2 15  7
  21446552.240      -98703.678 6    -67308.756 6
  22798836.256   -10385013.331 5  -7868362.191 5
  19799625.826    -3462543.077 6  -2652641.143 8
  20401506.092    -5515582.269 7  -4173710.398 8
  23645604.193    -4059848.193 4  -2907727.087 2
  20881468.451   -10781585.514 6  -8284873.775 7
 94  2  9  0 40 59.9980000  0  6 19 26 27  2 15  7
  21448467.506      -88639.226 6    -59466.357 6
  22775994.201   -10505017.576 5  -7961871.950 4
  19794067.545    -3491763.669 6  -2675410.443 8
  20389702.037    -5577625.791 7  -4222055.985 7
  23627059.240    -4157287.807 4  -2983653.994 1
  20857745.631   -10906249.454 6  -8382014.490 7
 94  2  9  0 41 29.9980000  0  6 19 26 27  2 15  7
  21450434.451      -78309.863 6    -51417.514 6
  22753239.029   -10624599.979 5  -8055053.016 4
  19788586.186    -3520553.126 6  -2697843.797 8
  20377934.904    -5639458.264 7  -4270237.130 8
  23608583.506    -4254350.373 4  -3059287.141 2
  20834099.725   -11030502.497 6  -8478835.030 7
 94  2  9  0 41 59.9980000  0  6 19 26 27  2 15  7
  21452451.217      -67719.309 6    -43165.148 6
  22730565.678   -10743746.144 5  -8147894.185 5
  19783191.623    -3548915.881 6  -2719944.652 8
  20366204.959    -5701099.399 7  -4318269.180 8
  23590186.139    -4351035.852 4  -3134626.431 2
  20810533.443   -11154341.292 6  -8575332.766 7
 94  2  9  0 42 29.9980000  0  6 19 26 27  2 15  7
  21454512.162      -56886.972 6    -34724.381 6
  22707977.357   -10862466.391 5  -8240403.408 4
  19777869.506    -3576873.176 6  -2741729.569 8
  20354506.014    -5762571.092 7  -4366169.193 8
  23571855.928    -4447359.201 4  -3209683.590 1
  20787044.061   -11277766.597 6  -8671508.306 7
 94  2  9  0 42 59.9980000  0  6 19 26 27  2 15  7
  21456629.787      -45763.921 6    -26057.079 6
  22685465.373   -10980753.042 5  -8332574.794 5
  19772630.256    -3604417.037 6  -2763192.314 8
  20342842.217    -5823874.236 7  -4413937.871 8
  23553603.826    -4543301.242 4  -3284443.544 2
  20763638.217   -11400767.783 6  -8767353.362 7
 94  2  9  0 43 29.9980000  0  6 19 26 27  2 15  7
  21458803.303      -34332.683 6    -17149.638 6
  22663038.350   -11098625.979 5  -8424423.817 3
  19767464.146    -3631560.027 6  -2784342.705 8
  20331204.029    -5885020.550 7  -4461584.339 8
  23535415.865    -4638867.184 5  -3358910.502 2
  20740310.154   -11523370.616 6  -8862888.031 7
 94  2  9  0 43 59.9970000  0  6 19 26 27  2 15  7
  21461038.556      -22582.807 6     -7993.905 6
  22640683.407   -11216105.087 5  -8515965.944 4
  19762374.189    -3658302.136 7  -2805180.713 8
  20319604.368    -5945985.691 7  -4509089.636 8
  23517306.470    -4734050.098 5  -3433078.925 3
  20717055.978   -11645562.244 6  -8958102.258 7
 94  2  9  0 44 29.9970000  0  6 19 26 27  2 15  7
  21463336.048      -10507.378 6      1415.509 6
  22618397.548   -11333199.890 5  -8607208.640 4
  19757359.454    -3684649.155 7  -2825710.864 8
  20308042.009    -6006755.068 7  -4556442.395 8
  23499261.126    -4828846.879 5  -3506946.507 1
  20693881.853   -11767351.327 6  -9053002.821 7
 94  2  9  0 44 59.9970000  0  6 19 26 27  2 15  7
  21465693.251        1878.620 6     11066.922 6
  22596186.735   -11449923.701 5  -8698162.219 5
  19752420.892    -3710611.761 7  -2845941.475 8
  20296511.860    -6067327.104 7  -4603641.380 7
  23481294.696    -4923261.114 5  -3580515.993 2
  20670779.196   -11888760.812 7  -9147607.597 7
 94  2  9  0 45 29.9970000  0  6 19 26 27  2 15  7
  21468106.946       14556.106 6     20945.475 6
  22574045.821   -11566266.806 5  -8788819.159 4
  19747553.790    -3736176.667 7  -2865862.183 8
  20285031.220    -6127672.262 7  -4650663.579 8
  23463408.407    -5017280.456 5  -3653777.793 4
  20647752.212   -12009764.073 6  -9241895.826 7
 94  2  9  0 45 59.9970000  0  6 19 26 27  2 15  7
  21470569.899       27504.970 6     31035.481 6
  22551984.274   -11682223.085 5  -8879174.681 4
  19742765.204    -3761354.179 7  -2885481.018 8
  20273589.384    -6187794.818 7  -4697512.319 8
  23445588.345    -5110903.891 5  -3726731.112 1
  20624804.009   -12130343.110 6  -9335853.505 7
 94  2  9  0 46 29.9970000  0  6 19 26 27  2 15  7
  21473082.790       40709.075 6     41324.389 6
  22529995.079   -11797780.773 6  -8969219.616 5
  19738048.720    -3786146.374 7  -2904799.615 8
  20262187.587    -6247703.991 7  -4744194.787 8
  23427849.360    -5204134.262 5  -3799378.104 2
  20601938.642   -12250510.856 6  -9429490.701 7
 94  2  9  0 46 59.9970000  0  6 19 26 27  2 15  7
  21475645.399       54159.784 6     51805.446 6
  22508078.782   -11912940.721 5  -9058954.612 5
  19733402.564    -3810545.184 7  -2923811.676 8
  20250828.774    -6307403.709 7  -4790714.048 8
  23410180.353    -5296975.513 5  -3871721.907 2
  20579148.923   -12370267.799 6  -9522807.786 7
 94  2  9  0 47 29.9970000  0  6 19 26 27  2 15  7
  21478249.501       67850.994 6     62473.898 6
  22486242.743   -12027693.721 6  -9148372.523 5
  19728837.907    -3834551.309 7  -2942517.755 8
  20239504.978    -6366904.009 7  -4837077.913 8
  23392589.657    -5389426.349 5  -3943761.483 4
  20556437.681   -12489602.588 6  -9615795.915 7
 94  2  9  0 47 59.9970000  0  6 19 26 27  2 15  7
  21480900.689       81788.295 6     73334.119 6
  22464485.423   -12142032.098 5  -9237467.346 5
  19724343.798    -3858157.813 7  -2960912.438 8
  20228220.712    -6426205.572 7  -4883286.913 8
  23375071.665    -5481484.082 5  -4015494.756 3
  20533806.532   -12608533.236 6  -9708469.142 7
 94  2  9  0 48 29.9970000  0  6 19 26 27  2 15  7
  21483601.360       95977.390 6     84390.539 6
  22442803.571   -12255957.342 5  -9326240.239 5
  19719931.774    -3881343.307 7  -2978979.054 8
  20216975.431    -6485315.573 7  -4929346.655 8
  23357631.634    -5573144.411 5  -4086918.365 2
  20511251.993   -12727066.367 6  -9800832.599 7
 94  2  9  0 48 59.9970000  0  6 19 26 27  2 15  7
  21486350.392      110432.110 6     95653.949 6
  22421207.813   -12369468.347 5  -9414690.356 5
  19715601.954    -3904099.831 7  -2996711.418 8
  20205759.860    -6544241.301 7  -4975262.803 8
  23340266.149    -5664402.003 5  -4158028.156 2
  20488781.009   -12845179.877 6  -9892869.087 7
 94  2  9  0 49 29.9970000  0  6 19 26 27  2 15  7
  21489152.126      125153.033 6    107124.787 6
  22399680.235   -12482563.533 5  -9502816.470 4
  19711347.657    -3926452.693 7  -3014129.236 8
  20194577.392    -6603006.943 7  -5021054.207 8
  23322974.314    -5755264.185 5  -4228829.840 2
  20466384.954   -12962873.049 6  -9984578.024 7
 94  2  9  0 49 59.9970000  0  6 19 26 27  2 15  7
  21492007.212      140157.877 6    118816.861 6
  22378242.142   -12595244.502 5  -9590619.815 5
  19707173.735    -3948395.923 7  -3031227.856 8
  20183424.610    -6661618.902 7  -5066725.852 8
  23305761.571    -5845725.454 5  -4299319.103 2
  20444066.821   -13080138.876 6 -10075953.959 7
 94  2  9  0 50 29.9970000  0  6 19 26 27  2 15  7
  21494915.876      155436.946 6    130722.602 6
  22356874.267   -12707519.526 5  -9678106.828 5
  19703070.798    -3969942.711 7  -3048017.565 8
  20172295.649    -6720101.479 7  -5112296.689 8
  23288623.517    -5935790.951 5  -4369499.980 2
  20421837.462   -13196964.650 7 -10166987.014 8
 94  2  9  0 50 59.9970000  0  6 19 26 27  2 15  7
  21497877.899      170999.933 6    142849.601 6
  22335586.806   -12819363.222 5  -9765257.749 5
  19699045.024    -3991095.213 7  -3064500.041 7
  20161195.548    -6778427.657 7  -5157745.657 8
  23271562.673    -6025445.716 5  -4439360.789 2
  20399694.446   -13313329.453 7 -10257660.868 8
 94  2  9  0 51 29.9970000  0  6 19 26 27  2 15  7
  21500891.446      186842.268 6    155194.268 6
  22314394.595   -12930760.169 5  -9852060.559 4
  19695099.243    -4011849.323 7  -3080672.075 7
  20150127.626    -6836588.919 7  -5203066.110 8
  23254575.626    -6114683.756 5  -4508896.898 4
  20377636.720   -13429247.610 7 -10347986.679 8
 94  2  9  0 51 59.9970000  0  6 19 26 27  2 15  7
  21503953.360      202936.703 6    167735.364 6
  22293275.868   -13041730.134 6  -9938530.656 4
  19691224.642    -4032192.328 7  -3096523.776 7
  20139092.118    -6894580.284 7  -5248254.175 8
  23237672.673    -6203513.340 5  -4578114.723 4
  20355653.931   -13544747.050 7 -10437986.212 8
 94  2  9  0 52 29.9970000  0  6 19 26 27  2 15  7
  21507066.462      219295.710 6    180482.628 6
  22272242.345   -13152252.932 5 -10024652.317 5
  19687436.360    -4052114.866 7  -3112047.832 7
  20128094.189    -6952369.396 7  -5293284.651 8
  23220847.407    -6291919.636 5  -4647002.700 2
  20333754.845   -13659825.033 7 -10527657.334 8
 94  2  9  0 52 59.9970000  0  6 19 26 27  2 15  7
  21510233.071      235929.019 6    193443.628 6
  22251296.946   -13262326.152 5 -10110423.645 5
  19683722.923    -4071624.923 7  -3127250.480 7
  20117137.985    -7009945.598 7  -5338149.223 7
  23204105.345    -6379907.134 5  -4715564.348 3
  20311933.188   -13774506.080 7 -10617019.171 8
 94  2  9  0 53 29.9970000  0  6 19 26 27  2 15  7
  21513452.282      252837.387 6    206618.968 6
  22230436.079   -13371963.062 5 -10195854.985 5
  19680088.571    -4090720.254 7  -3142129.955 7
  20106221.157    -7067324.194 7  -5382859.809 7
  23187443.470    -6467474.469 5  -4783798.616 3
  20290184.017   -13888805.552 7 -10706083.682 8
 94  2  9  0 53 59.9970000  0  6 19 26 27  2 15  7
  21516720.665      270025.081 6    220011.936 6
  22209652.282   -13481176.030 6 -10280955.993 5
  19676530.899    -4109403.950 7  -3156688.684 7
  20095340.001    -7124510.175 7  -5427420.310 7
  23170860.423    -6554616.174 5  -4851701.213 2
  20268512.204   -14002708.117 7 -10794838.904 8
 94  2  9  0 54 29.9970000  0  6 19 26 27  2 15  7
  21520045.470      287517.507 6    233642.391 6
  22188953.360   -13589934.959 5 -10365703.218 5
  19673055.790    -4127680.702 7  -3170930.312 7
  20084493.134    -7181494.851 7  -5471823.946 8
  23154362.939    -6641317.120 5  -4919260.378 2
  20246919.579   -14116168.747 7 -10883249.755 8
 94  2  9  0 54 59.9970000  0  6 19 26 27  2 15  7
  21523429.353      305297.428 6    247496.861 5
  22168344.915   -13698241.344 5 -10450097.778 5
  19669654.634    -4145563.539 7  -3184864.994 7
  20073683.251    -7238305.993 7  -5516092.366 8
  23137945.462    -6727582.110 5  -4986479.783 3
  20225414.462   -14229175.692 7 -10971307.091 8
 94  2  9  0 55 29.9970000  0  6 19 26 27  2 15  7
  21526864.985      323334.773 6    261551.927 6
  22147820.985   -13806119.527 6 -10534158.679 5
  19666318.626    -4163062.343 7  -3198500.423 7
  20062900.696    -7294977.557 7  -5560252.022 8
  23121613.009    -6813423.600 5  -5053369.221 4
  20203993.509   -14341723.000 6 -11059006.263 8
 94  2  9  0 55 59.9970000  0  6 19 26 27  2 15  7
  21530350.438      341649.142 6    275822.849 5
  22127374.001   -13913553.487 6 -10617873.436 5
  19663070.142    -4180168.094 7  -3211829.582 7
  20052147.814    -7351488.791 7  -5604286.745 8
  23105361.540    -6898830.356 5  -5119919.893 2
  20182668.673   -14453781.400 6 -11146324.474 8
 94  2  9  0 56 29.9970000  0  6 19 26 27  2 15  7
  21533888.079      360243.423 6    290311.877 5
  22107016.470   -14020543.037 6 -10701241.890 5
  19659888.548    -4196876.681 7  -3224849.253 7
  20041421.923    -7407840.979 7  -5648197.542 8
  23089186.353    -6983804.338 5  -5186133.344 1
  20161441.446   -14565360.146 7 -11233268.929 8
 94  2  9  0 56 59.9970000  0  6 19 26 27  2 15  7
  21537480.735      379118.104 6    305019.395 5
  22086735.446   -14127101.384 6 -10784274.356 5
  19656787.212    -4213159.333 6  -3237537.044 7
  20030731.673    -7464020.990 7  -5691974.173 8
  23073102.415    -7068332.820 5  -5251999.643 2
  20140298.274   -14676473.974 7 -11319851.103 8
 94  2  9  0 57 29.9970000  0  6 19 26 27  2 15  7
  21541123.603      398255.177 6    319931.389 5
  22066537.845   -14233248.942 6 -10866986.710 5
  19653771.415    -4229016.233 6  -3249893.070 7
  20020074.165    -7520034.642 7  -5735621.168 8
  23057101.149    -7152430.888 5  -5317530.568 3
  20119233.563   -14787158.145 7 -11406098.482 8
 94  2  9  0 57 59.9970000  0  6 19 26 27  2 15  7
  21544813.915      417656.785 6    335049.513 5
  22046420.524   -14338964.663 6 -10949362.584 5
  19650836.657    -4244444.222 7  -3261914.882 7
  20009448.657    -7575864.173 7  -5779124.688 8
  23041184.485    -7236093.139 5  -5382721.910 2
  20098245.267   -14897418.737 6 -11492015.795 8
 94  2  9  0 58 29.9970000  0  6 19 26 27  2 15  7
  21548549.548      437299.643 6    350355.633 5
  22026386.595   -14444243.124 6 -11031397.736 5
  19647980.907    -4259442.466 7  -3273601.833 7
  19998860.048    -7631513.526 7  -5822487.816 8
  23025344.064    -7319322.843 5  -5447576.175 2
  20077343.071   -15007278.921 6 -11577621.124 8
 94  2  9  0 58 59.9960000  0  6 19 26 27  2 15  7
  21552333.981      457179.241 6    365846.212 5
  22006438.801   -14549058.518 6 -11113072.033 5
  19645209.621    -4274012.332 7  -3284954.978 7
  19988306.012    -7686970.760 7  -5865701.243 8
  23009587.465    -7402107.162 5  -5512083.401 2
  20056518.090   -15116728.185 7 -11662906.252 8
 94  2  9  0 59 29.9960000  0  6 19 26 27  2 15  7
  21556162.590      477293.642 6    381519.755 6
  21986585.402   -14653405.848 6 -11194381.632 5
  19642511.551    -4288178.542 6  -3295993.585 7
  19977782.598    -7742262.607 7  -5908785.798 8
  22993921.902    -7484459.351 5  -5576253.916 2
  20035767.645   -15225778.989 7 -11747880.879 8
 94  2  9  0 59 59.9960000  0  6 19 26 27  2 15  7
  21560039.402      497647.690 6    397380.030 6
  21966813.981   -14757288.012 6 -11275328.739 5
  19639894.246    -4301950.397 7  -3306724.903 7
  19967294.238    -7797388.756 7  -5951741.231 8
  22978327.012    -7566378.018 5  -5640086.578 3
  20015090.879   -15334427.461 7 -11832541.998 8
 94  2  9  1  0 29.9960000  0  6 19 26 27  2 15  7
  21563957.231      518258.116 6    413440.089 6
  21947136.926   -14860715.911 6 -11355921.883 5
  19637347.301    -4315323.236 6  -3317145.303 7
  19956836.832    -7852348.874 7  -5994567.293 8
  22962828.113    -7647853.423 5  -5703573.858 3
  19994491.418   -15442662.123 7 -11916880.672 8
 94  2  9  1  0 59.9960000  0  6 19 26 27  2 15  7
  21567932.020      539139.468 6    429711.260 6
  21927538.988   -14963688.592 6 -11436160.315 5
  19634880.066    -4328292.581 7  -3327251.289 7
  19946406.715    -7907145.927 7  -6037266.292 8
  22947406.395    -7728874.315 5  -5766706.988 2
  19973979.379   -15550454.806 7 -12000874.951 8
 94  2  9  1  1 29.9960000  0  6 19 26 27  2 15  7
  21571957.074      560295.748 6    446196.649 5
  21908032.473   -15066211.398 6 -11516048.219 5
  19632489.613    -4340854.938 7  -3337040.137 7
  19936011.832    -7961777.580 7  -6079836.409 8
  22932077.895    -7809433.362 5  -5829480.208 3
  19953556.293   -15657787.468 7 -12084510.771 8
 94  2  9  1  1 59.9960000  0  6 19 26 27  2 15  7
  21576032.457      581711.863 6    462884.522 5
  21888602.168   -15168299.265 6 -11595597.188 5
  19630175.465    -4353022.805 7  -3346521.592 8
  19925648.434    -8016245.322 7  -6122278.798 8
  22916830.277    -7889541.972 5  -5891902.468 2
  19933217.238   -15764661.046 7 -12167788.868 8
 94  2  9  1  2 29.9960000  0  6 19 26 27  2 15  7
  21580156.285      603373.097 6    479763.393 5
  21869262.137   -15269939.318 6 -11674797.201 5
  19627932.957    -4364808.134 7  -3355704.975 8
  19915311.949    -8070554.632 7  -6164597.731 8
  22901673.941    -7969194.859 5  -5953969.622 2
  19912974.816   -15871050.398 7 -12250689.641 8
 94  2  9  1  2 59.9960000  0  6 19 26 27  2 15  7
  21584326.809      625281.442 6    496834.809 5
  21850009.316   -15371104.884 6 -11753627.489 5
  19625763.465    -4376206.635 7  -3364586.935 8
  19905008.301    -8124699.890 7  -6206788.837 8
  22886606.996    -8048389.365 5  -6015679.559 2
  19892823.488   -15976945.445 7 -12333205.242 8
 94  2  9  1  3 29.9960000  0  7 19 26 27  2 13 15  7
  21588540.629      647448.415 5    514107.763 5
  21830850.777   -15471775.086 6 -11832071.790 5
  19623668.738    -4387205.067 7  -3373157.141 8
  19894740.481    -8178657.315 7  -6248833.571 8
  23695964.481          -0.33314
  22871624.645    -8127118.749 5  -6077027.101 3
  19872765.918   -16082351.869 7 -12415340.110 8
 94  2  9  1  3 59.9960000  0  7 19 26 27  2 13 15  7
  21592809.293      669879.473 6    531586.501 5
  21811789.230   -15571951.233 6 -11910131.118 5
  19621650.645    -4397806.010 7  -3381417.619 8
  19884507.809    -8232425.512 7  -6290730.856 8
  23663103.973     -172670.492 4
  22856728.754    -8205388.142 5  -6138016.189 4
  19852798.441   -16187283.958 7 -12497105.350 8
 94  2  9  1  4 29.9960000  0  7 19 26 27  2 13 15  7
  21597132.793      692579.695 6    549274.984 5
  21792824.145   -15671634.952 6 -11987806.717 5
  19619715.754    -4407997.057 7  -3389358.709 8
  19874313.848    -8286003.876 7  -6332480.224 8
  23630237.207     -345316.183 3
  22841923.738    -8283194.930 5  -6198644.820 3
  19832914.379   -16291753.409 7 -12578510.099 8
 94  2  9  1  4 59.9960000  0  7 19 26 27  2 13 15  7
  21601497.387      715556.374 5    567178.878 5
  21773944.410   -15770841.995 6 -12065110.896 5
  19617857.309    -4417754.779 7  -3396962.117 8
  19864155.606    -8339388.806 7  -6374078.865 8
  23597409.059     -517936.934 4
  22827205.699    -8360539.077 5  -6258912.930 2
  19813120.551   -16395788.626 7 -12659576.484 8
 94  2  9  1  5 29.9960000  0  7 19 26 27  2 13 15  7
  21605926.160      738797.886 6    585289.136 5
  21755150.426   -15869603.077 6 -12142067.556 5
  19616082.090    -4427084.604 7  -3404232.127 8
  19854028.738    -8392600.510 7  -6415542.522 8
  23564546.957     -690534.919 3
  22812575.199    -8437424.227 5  -6318823.421 3
  19793402.973   -16499396.760 7 -12740310.083 8
 94  2  9  1  5 59.9960000  0  7 19 26 27  2 13 15  7
  21610399.645      762305.909 5    603607.077 5
  21736443.926   -15967919.864 6 -12218678.025 5
  19614388.418    -4435976.590 7  -3411160.954 8
  19843930.902    -8445653.498 7  -6456882.505 8
  23531724.730     -863094.305 3
  22798036.020    -8513835.817 5  -6378364.858 3
  19773774.957   -16602552.819 7 -12820691.408 8
 94  2  9  1  6 29.9960000  0  7 19 26 27  2 13 15  7
  21614916.980      786050.898 5    622109.659 5
  21717816.816   -16065801.397 6 -12294949.339 5
  19612780.012    -4444431.357 7  -3417749.095 8
  19833862.941    -8498575.007 7  -6498120.037 8
  23498882.199    -1035618.771 3
  22783583.121    -8589778.592 5  -6437541.027 3
  19754229.770   -16705263.363 7 -12900725.580 7
 94  2  9  1  6 59.9960000  0  7 19 26 27  2 13 15  7
  21619480.551      810025.556 5    640791.205 5
  21699269.973   -16163245.145 6 -12370879.522 5
  19611254.496    -4452460.114 7  -3424005.279 8
  19823817.246    -8551376.837 7  -6539264.308 8
  23466066.473    -1208105.069 3
  22769215.707    -8665250.571 5  -6496350.352 2
  19734769.121   -16807514.856 7 -12980402.058 7
 94  2  9  1  7 29.9960000  0  7 19 26 27  2 13 15  7
  21624088.488      834229.917 5    659651.750 5
  21680816.051   -16260226.216 6 -12446449.160 5
  19609800.824    -4460081.551 7  -3429944.071 8
  19813790.457    -8604055.471 7  -6580312.582 8
  23433247.309    -1380545.284 3
  22754951.387    -8740244.975 5  -6554787.490 2
  19715402.449   -16909285.568 7 -13059703.903 7
 94  2  9  1  7 59.9960000  0  7 19 26 27  2 13 15  7
  21628731.262      858653.598 5    678683.156 5
  21662450.559   -16356729.254 6 -12521646.314 5
  19608428.379    -4467305.497 7  -3435573.121 8
  19803792.191    -8656591.927 7  -6621250.070 8
  23400448.184    -1552937.830 3        -0.30311
  22740768.231    -8814761.982 5  -6612852.659 3
  19696127.637   -17010587.462 7 -13138640.441 7
 94  2  9  1  8 29.9960000  0  7 19 26 27  2 13 15  7
  21633423.207      883305.395 5    697892.340 5
  21644183.184   -16452741.985 6 -12596461.414 5
  19607127.543    -4474133.127 7  -3440893.360 7
  19793828.332    -8708963.033 7  -6662058.713 8
  23367638.988    -1725277.815 3   -134291.163 1
  22726676.613    -8888797.578 5  -6670542.683 3
  19676942.566   -17111420.797 7 -13217211.858 7
 94  2  9  1  8 59.9960000  0  7 19 26 27  2 13 15  7
  21638161.863      908205.847 5    717295.288 5
  21626006.340   -16548253.669 6 -12670886.078 5
  19605903.082    -4480571.500 6  -3445910.284 8
  19783897.918    -8761150.944 7  -6702724.607 8
  23334872.441    -1897562.733 4   -268539.094 1
  22712682.332    -8962350.458 5  -6727856.604 2
  19657839.160   -17211780.204 7 -13295413.970 8
 94  2  9  1  9 29.9960000  0  7 19 26 27  2 13 15  7
  21642950.027      933352.112 5    736889.770 5
  21607931.106   -16643262.088 6 -12744918.593 5
  19604752.481    -4486621.933 7  -3450624.919 7
  19773999.184    -8813159.207 7  -6743250.513 8
  23302074.574    -2069796.258 3
  22698776.754    -9035426.109 5  -6784798.620 3
  19638828.949   -17311676.736 7 -13373255.423 8
 94  2  9  1  9 59.9960000  0  7 19 26 27  2 13 15  7
  21647787.629      958763.793 5    756691.079 5
  21589945.629   -16737767.580 6 -12818559.204 5
  19603676.238    -4492262.071 6  -3455019.845 7
  19764136.871    -8864982.216 7  -6783632.070 8
  23269341.504    -2241971.589 4
  22684960.856    -9108018.602 5  -6841364.165 3
  19619907.879   -17411116.097 7 -13450740.630 8
 94  2  9  1 10 29.9960000  0  7 19 26 27  2 13 15  7
  21652671.621      984455.595 5    776710.654 5
  21572054.770   -16831770.255 6 -12891808.004 5
  19602685.379    -4497469.268 6  -3459077.405 8
  19754309.090    -8916636.351 7  -6823882.034 8
  23236565.738    -2414081.653 3
  22671241.895    -9180122.460 5  -6897548.954 2
  19601076.051   -17510090.676 7 -13527863.665 8
 94  2  9  1 10 59.9960000  0  7 19 26 27  2 13 15  7
  21657612.441     1010416.919 5    796940.244 5
  21554257.637   -16925286.593 6 -12964677.853 5
  19601774.231    -4502253.699 6  -3462805.545 8
  19744507.309    -8968139.567 7  -6864014.406 8
  23203837.660    -2586132.157 4
  22657615.301    -9251744.756 5  -6953358.500 4
  19582327.449   -17608605.725 7 -13604628.621 8
 94  2  9  1 11 29.9960000  0  7 19 26 27  2 13 15  7
  21662605.231     1036632.672 5    817368.089 5
  21536558.465   -17018326.020 6 -13037176.074 5
  19600946.332    -4506617.373 6  -3466205.821 7
  19734736.027    -9019495.019 7  -6904031.629 8
  23171096.816    -2758120.726 4        -0.01011
  22644074.941    -9322884.571 5  -7008792.098 1
  19563668.676   -17706660.611 7 -13681035.015 8
 94  2  9  1 11 59.9960000  0  7 19 26 27  2 13 15  7
  21667638.910     1063114.786 5    838003.504 5
  21518944.832   -17110879.701 6 -13109295.808 5
  19600200.137    -4510539.023 6  -3469261.656 7
  19724994.816    -9070685.068 7  -6943919.968 8
  23138394.754    -2930022.508 5   -133949.406 1
  22630633.137    -9393518.559 5  -7063831.529 3
  19545101.066   -17804235.007 7 -13757067.002 8
 94  2  9  1 12 29.9960000  0  7 19 26 27  2 13 15  7
  21672725.699     1089831.592 5    858821.770 5
  21501415.324   -17202964.036 6 -13181049.807 5
  19599533.707    -4514043.762 6  -3471992.628 7
  19715280.184    -9121728.993 7  -6983694.443 8
  23105698.363    -3101844.010 4   -267836.266 1
  22617285.152    -9463655.013 5  -7118483.282 2
  19526628.770   -17901327.798 7 -13832723.707 8
 94  2  9  1 12 59.9960000  0  7 19 26 27  2 13 15  7
  21677848.027     1116777.659 5    879818.686 5
  21483984.184   -17294577.323 6 -13252436.754 5
  19598940.074    -4517158.081 7  -3474419.376 7
  19705599.129    -9172609.827 7  -7023341.833 8
  23073013.598    -3273587.974 4   -401662.589 1
  22604036.356    -9533298.031 5  -7172750.529 2
  19508239.676   -17997948.151 7 -13908012.279 8
 94  2  9  1 13 29.9960000  0  7 19 26 27  2 13 15  7
  21683022.559     1143955.942 5    900996.561 5
  21466647.856   -17385704.144 6 -13323444.648 5
  19598423.277    -4519878.041 7  -3476538.829 7
  19695945.980    -9223324.710 7  -7062859.916 8
  23040352.629    -3445250.771 4   -535425.694 1
  22590878.918    -9602445.275 5  -7226631.462 2
  19489937.613   -18094104.548 7 -13982939.327 8
 94  2  9  1 13 59.9950000  0  7 19 26 27  2 13 15  7
  21688243.280     1171374.287 5    922361.507 5
  21449398.530   -17476333.777 6 -13394065.115 5
  19597981.226    -4522200.854 7  -3478348.818 7
  19686330.444    -9273873.087 7  -7102248.257 8
  23007703.390    -3616819.276 4   -669115.367 1
  22577814.155    -9671088.746 5  -7280119.857 3
  19471732.694   -18189788.716 7 -14057498.415 8
 94  2  9  1 14 29.9950000  0  7 19 26 27  2 13 15  7
  21693509.413     1199054.979 5    943930.852 5
  21432252.991   -17566438.767 6 -13464276.773 5
  19597614.796    -4524116.492 7  -3479841.515 7
  19676747.280    -9324225.815 7  -7141484.137 8
  22975067.319    -3788287.491 4   -802726.866 1
  22564851.577    -9739217.130 5  -7333206.870 2
  19453620.944   -18284977.956 7 -14131671.832 8
 94  2  9  1 14 59.9950000  0  7 19 26 27  2 13 15  7
  21698826.015     1226990.483 5    965698.756 5
  21415207.108   -17656018.916 6 -13534079.461 5
  19597327.773    -4525638.916 7  -3481027.806 7
  19667202.382    -9374385.858 7  -7180569.878 7
  22942462.937    -3959662.916 4   -936266.047 1
  22551984.741    -9806843.218 5  -7385902.477 3
  19435597.069   -18379675.886 7 -14205462.402 8
 94  2  9  1 15 29.9950000  0  7 19 26 27  2 13 15  7
  21704189.694     1255174.623 5    987660.408 4
  21398260.554   -17745074.771 6 -13603473.615 5
  19597115.054    -4526749.486 7  -3481893.179 7
  19657688.921    -9424372.933 7  -7219520.825 8
  22909860.921    -4130941.053 3  -1069729.484 1
  22539208.780    -9873964.201 5  -7438204.513 3
  19417673.765   -18473863.068 7 -14278854.998 8
 94  2  9  1 15 59.9950000  0  7 19 26 27  2 13 15  7
  21709598.030     1283595.316 5   1009806.410 4
  21381404.202   -17833627.489 6 -13672475.704 5
  19596982.858    -4527451.618 7  -3482440.278 7
  19648209.116    -9474191.279 7  -7258340.305 8
  22877285.077    -4302124.851 4  -1203119.300 2
  22526532.718    -9940584.167 5  -7490116.141 2
  19399847.773   -18567540.594 7 -14351850.469 8
 94  2  9  1 16 29.9950000  0  7 19 26 27  2 13 15  7
  21715046.702     1312252.347 5   1032136.536 5
  21364654.390   -17921685.233 6 -13741092.115 5
  19596926.265    -4527746.539 7
  19638760.366    -9523838.514 7  -7297026.455 8
  22844730.507    -4473218.190 4  -1336438.684 1
  22513945.030   -10006709.003 5  -7541641.971 3
  19382118.601   -18660718.093 7 -14424456.299 8
 94  2  9  1 16 59.9950000  0  7 19 26 27  2 13 15  7
  21720551.851     1341161.212 5   1054662.939 5
  21347990.374   -18009242.294 6 -13809318.361 5
  19596953.132    -4527611.031 7
  19629347.327    -9573310.911 7  -7335576.365 7
  22812200.101    -4644199.740 5  -1469670.953 1
  22501466.101   -10072319.023 5  -7592766.644 4
  19364483.358   -18753393.681 7 -14496671.026 8
 94  2  9  1 17 29.9950000  0  7 19 26 27  2 13 15  7
  21726106.483     1370317.739 6   1077382.305 5
  21331420.562   -18096307.763 6 -13877161.571 5
  19597060.210    -4527046.873 7  -3482124.903 7
  19619964.022    -9622616.604 7  -7373996.372 8
  22779681.796    -4815065.352 4  -1602812.874 1
  22489076.296   -10137411.565 5  -7643488.058 4
  19346938.827   -18845591.236 7 -14568513.260 8
 94  2  9  1 17 59.9950000  0  7 19 26 27  2 13 15  7
  21731696.194     1399718.270 5   1100291.779 5
  21314948.140   -18182876.201 6 -13944617.465 5
  19597244.390    -4526079.835 7  -3481371.365 7
  19610612.546    -9671758.967 7  -7412289.113 7
  22747188.116    -4985813.396 4
  22476789.210   -10201986.882 5  -7693806.461 2
  19329479.343   -18937328.317 7 -14639996.688 8
 94  2  9  1 18 29.9950000  0  7 19 26 27  2 13 15  7
  21737335.437     1429354.841 5   1123385.203 5
  21298570.655   -18268935.673 6 -14011676.783 5
  19597503.233    -4524722.227 7  -3480313.493 7
  19601287.929    -9720756.523 7  -7450469.014 8
  22714721.804    -5156447.680 5        -0.36111
  22464596.788   -10266050.564 5  -7743726.180 2
  19312108.593   -19028611.660 7 -14711126.553 8
 94  2  9  1 18 59.9950000  0  7 19 26 27  2 13 15  7
  21743014.390     1459216.505 5   1146654.028 4
  21282289.187   -18354487.688 6 -14078340.676 5
  19597835.476    -4522980.212 6  -3478956.073 7
  19591987.124    -9769639.581 7  -7488559.685 7
  22682264.296    -5326971.727 5   -132876.189 1
  22452503.562   -10329608.177 5  -7793251.545 2
  19294822.546   -19119456.279 7 -14781914.549 7
 94  2  9  1 19 29.9950000  0  7 19 26 27  2 13 15  7
  21748744.116     1489314.452 5   1170106.947 5
  21266111.069   -18439530.979 6 -14144608.163 5
  19598238.858    -4520848.917 6  -3477295.323 6
  19582705.687    -9818405.050 7  -7526558.737 7
  22649838.804    -5497380.706 5   -265662.360 1
  22440503.991   -10392656.695 5  -7842380.229 2
  19277621.718   -19209846.964 7 -14852348.835 7
 94  2  9  1 19 59.9950000  0  7 19 26 27  2 13 15  7
  21754519.202     1519665.370 5   1193757.007 4
  21250024.491   -18524053.445 6 -14210469.824 5
  19598722.038    -4518295.739 6  -3475305.839 7
  19573451.640    -9867039.151 7  -7564455.432 7
  22617433.499    -5667660.104 4   -398347.496 1
  22428600.874   -10455182.965 5  -7891101.955 4
  19260513.249   -19299752.336 7 -14922404.952 7
 94  2  9  1 20 29.9950000  0  7 19 26 27  2 13 15  7
  21760350.327     1550299.180 5   1217627.500 4
  21234040.351   -18608054.735 6 -14275925.349 5
  19599298.624    -4515277.275 6  -3472953.795 6
  19564229.288    -9915507.030 7  -7602222.595 7
  22585061.351    -5837789.543 4   -530915.854 1
  22416812.429   -10517168.622 5  -7939402.464 2
  19243499.132   -19389153.437 7 -14992068.140 7
 94  2  9  1 20 59.9950000  0  7 19 26 27  2 13 15  7
  21766230.374     1581218.809 5   1241720.701 3
  21218154.077   -18691541.569 6 -14340980.023 5
  19599962.702    -4511795.891 6  -3470241.034 6
  19555039.429    -9963791.136 7  -7639846.558 7
  22552724.398    -6007768.090 5   -663366.613 1
  22405122.491   -10578614.846 5  -7987282.608 2
  19226584.796   -19478052.046 7 -15061339.768 7
 94  2  9  1 21 29.9950000  0  7 19 26 27  2 13 15  7
  21772163.304     1612397.151 5   1266015.491 5
  21202361.757   -18774525.612 6 -14405642.908 5
  19600708.093    -4507863.146 6  -3467176.561 6
  19545888.921   -10011885.043 7  -7677322.315 7
  22520396.835    -6177609.172 4
  22393527.835   -10639536.989 5  -8034754.381 3
  19209758.515   -19566450.431 7 -15130221.608 7
 94  2  9  1 21 59.9950000  0  7 19 26 27  2 13 15  7
  21778148.272     1643835.354 5   1290512.761 3
  21186672.983   -18856969.936 6 -14469885.220 5
  19601545.351    -4503468.087 6  -3463751.834 6
  19536777.812   -10059766.714 7  -7714632.691 7
  22488109.429    -6347292.683 5        -0.07011
  22382035.468   -10699916.927 5  -8081803.642 3
  19193038.890   -19654329.985 7 -15198699.175 7
 94  2  9  1 22 29.9950000  0  7 19 26 27  2 13 15  7
  21784172.421     1675500.549 5   1315186.925 4
  21171084.358   -18938884.303 6 -14533714.591 5
  19602459.444    -4498660.561 6  -3460005.715 6
  19527700.429   -10107460.953 7  -7751797.018 7
  22455840.710    -6516844.557 4   -132118.417 1
  22370643.202   -10759782.237 5  -8128451.904 2
  19176409.382   -19741722.106 7 -15266796.918 7
 94  2  9  1 22 59.9950000  0  7 19 26 27  2 13 15  7
  21790238.382     1707370.944 5   1340021.004 4
  21155599.233   -19020261.352 6 -14597125.279 5
  19603448.523    -4493464.033 6  -3455956.476 6
  19518658.538   -10154988.133 7  -7788831.174 8
  22423600.405    -6686265.659 4   -264134.750 1
  22359346.358   -10819135.937 5  -8174701.488 2
  19159872.421   -19828620.332 7 -15334509.787 7
 94  2  9  1 23 29.9950000  0  7 19 26 27  2 13 15  7
  21796344.460     1739455.303 5   1365021.803 4
  21140213.913   -19101093.439 6 -14660111.317 5
  19604513.530    -4487860.436 6  -3451590.028 6
  19509644.405   -10202344.963 7  -7825732.591 7
  22391394.843    -6855532.530 5   -396031.013 1
  22348151.999   -10877956.470 5  -8220535.644 2
  19143437.616   -19914998.170 7 -15401817.173 7
 94  2  9  1 23 59.9950000  0  7 19 26 27  2 13 15  7
  21802492.874     1771742.243 5   1390180.455 2
  21124928.773   -19181418.757 6 -14722702.467 5
  19605650.523    -4481885.404 6  -3446934.160 6
  19500661.460   -10249558.721 7  -7862522.524 7
  22359204.460    -7024660.218 5   -527818.783 1
  22337055.413   -10936260.681 5  -8265967.477 2
  19127089.718   -20000886.307 7 -15468742.979 7
 94  2  9  1 24 29.9950000  0  7 19 26 27  2 13 15  7
  21808674.046     1804251.588 5   1415512.396 3
  21109740.054   -19261255.288 6 -14784912.736 5
  19606860.140    -4475533.912 6  -3441984.942 6
  19491702.093   -10296630.576 7  -7899201.885 7
  22327058.163    -7193638.371 5   -659490.018 1
  22326060.702   -10994040.545 5  -8310990.712 2
  19110838.390   -20086292.675 7 -15535293.367 7
 94  2  9  1 24 59.9950000  0  7 19 26 27  2 13 15  7
  21814907.890     1836996.518 5   1441027.923 3
  21094638.757   -19340611.971 6 -14846749.107 5
  19608144.319    -4468788.250 6  -3436728.570 6
  19482775.968   -10343554.627 7  -7935766.064 7
  22294924.554    -7362451.979 5   -791033.033 1
  22315173.554   -11051282.860 5  -8355595.062 2
  19094683.093   -20171192.759 7 -15601449.257 7
 94  2  9  1 25 29.9950000  0  7 19 26 27  2 13 15  7
  21821180.179     1869976.418 5   1466726.529 2
  21079631.148   -19419499.564 6 -14908219.956 5
  19609501.632    -4461648.254 6  -3431164.931 7
  19473873.515   -10390328.773 7  -7972213.439 7
  22262838.280    -7531104.682 5   -922450.624 1
  22304379.148   -11107993.616 5  -8399785.237 3
  19078621.601   -20255595.257 7 -15667217.415 7
 94  2  9  1 25 59.9950000  0  7 19 26 27  2 13 15  7
  21827508.210     1903224.546 5   1492634.159 2
  21064711.608   -19497875.428 6 -14969292.053 5
  19610939.905    -4454096.279 6  -3425280.284 6
  19465005.679   -10436932.618 7  -8008528.114 7
  22230773.273    -7699576.712 5
  22293691.898   -11164155.258 5  -8443547.532 3
  19062659.273   -20339484.823 7 -15732585.885 7
 94  2  9  1 26 29.9950000  0  7 19 26 27  2 13 15  7
  21833882.069     1936719.177 5   1518733.830 2
  21049898.476   -19575731.186 6 -15029958.869 5
  19612453.390    -4446138.435 6  -3419079.367 7
  19456167.108   -10483371.398 7  -8044714.172 7
  22198751.366    -7867874.089 5
  22283111.038   -11219776.107 5  -8486888.411 3
  19046793.898   -20422853.411 7 -15797548.401 7
 94  2  9  1 26 59.9950000  0  7 19 26 27  2 13 15  7
  21840297.749     1970440.000 5   1545009.784 3
  21035184.898   -19653045.082 6 -15090203.444 5
  19614043.905    -4437777.565 6  -3412564.415 6
  19447362.866   -10529635.707 7  -8080764.276 7
  22166753.398    -8035989.016 5
  22272626.905   -11274850.167 5  -8529803.224 3
  19031030.671   -20505686.678 7 -15862093.776 7
 94  2  9  1 27 29.9950000  0  7 19 26 27  2 13 15  7
  21846755.382     2004366.701 5   1571446.173 2
  21020579.155   -19729806.969 6 -15150017.889 5
  19615711.374    -4429025.403 6  -3405744.551 6
  19438590.429   -10575734.099 7  -8116685.084 7
  22134796.382    -8203930.991 5        -0.03111
  22262252.437   -11329389.308 5  -8572301.200 3
  19015364.554   -20588020.086 7 -15926249.659 7
 94  2  9  1 27 59.9950000  0  7 19 26 27  2 13 15  7
  21853255.507     2038505.424 5   1598047.763 3
  21006076.452   -19805998.844 6 -15209388.158 5
  19617454.772    -4419875.010 6  -3398614.386 6
  19429851.898   -10621661.492 7  -8152472.657 7
  22102878.546    -8371691.494 5   -130722.390 1
  22251973.898   -11383386.868 5  -8614377.212 3
  18999788.304   -20669864.157 7 -15990024.239 7
 94  2  9  1 28 29.9950000  0  7 19 26 27  2 13 15  7
  21859788.608     2072837.762 5   1624800.200 4
  20991687.366   -19881636.188 6 -15268326.320 5
  19619270.960    -4410323.389 6  -3391171.565 7
  19421144.398   -10667415.212 7  -8188124.901 7
  22070985.398    -8539269.227 5   -261302.337 1
  22241800.515   -11436844.012 5  -8656032.106 2
  18984307.960   -20751227.824 7 -16053424.468 7
 94  2  9  1 28 59.9940000  0  7 19 26 27  2 13 15  7
  21866360.869     2107394.293 5   1651727.390 4
  20977398.299   -19956705.212 6 -15326821.660 5
  19621168.955    -4400349.183 6  -3383399.451 6
  19412470.580   -10712992.095 7  -8223639.344 7
  22039123.486    -8706651.747 5   -391730.144 1
  22231734.439   -11489754.428 5  -8697260.965 2
  18968914.541   -20832114.783 7 -16116453.238 7
 94  2  9  1 29 29.9940000  0  7 19 26 27  2 13 15  7
  21872988.244     2142207.240 5   1678854.346 3
  20963220.791   -20031221.912 6 -15384886.615 5
  19623147.861    -4389936.045 6  -3375285.323 6
  19403834.018   -10758390.444 7  -8259014.666 7
  22007325.283    -8873846.886 5   -522012.011 1
  22221766.557   -11542120.463 5  -8738065.662 2
  18953609.510   -20912534.849 7 -16179118.209 7
 94  2  9  1 29 59.9940000  0  7 19 26 27  2 13 15  7
  21879657.010     2177267.996 5   1706174.405 4
  20949140.815   -20105218.969 6 -15442546.646 5
  19625209.783    -4379105.147 6  -3366845.679 6
  19395225.369   -10803630.894 7  -8294266.955 7
  21975538.127    -9040860.232 5   -652152.218 1
  22211903.471   -11593953.736 5  -8778455.193 2
  18938396.119   -20992483.051 7 -16241415.495 7
 94  2  9  1 30 29.9940000  0  7 19 26 27  2 13 15  7
  21886373.893     2212579.501 5   1733689.839 3
  20935158.400   -20178693.419 6 -15499799.461 5
  19627351.033    -4367854.745 6  -3358079.138 6
  19386646.604   -10848714.442 7  -8329396.979 7
  21943792.400    -9207679.100 5   -782140.768 1
  22202145.229   -11645243.725 5  -8818421.381 1
  18923274.799   -21071927.816 7 -16303320.478 6
 94  2  9  1 30 59.9940000  0  7 19 26 27  2 13 15  7
  21893146.354     2248148.902 5   1761406.258 1
  20921271.799   -20251640.397 6 -15556641.245 5
  19629575.315    -4356176.187 6  -3348978.965 6
  19378099.580   -10893630.477 7  -8364396.476 7
  21912090.393    -9374286.347 5   -911964.550 1
  22192488.213   -11695975.906 5  -8857952.931 2
  18908256.275   -21150851.250 7 -16364819.239 7
 94  2  9  1 31 29.9940000  0  7 19 26 27  2 13 15  7
  21899957.190     2283940.213 5   1789295.586 3
  20907489.627   -20324075.420 6 -15613084.081 5
  19631873.994    -4344092.984 6  -3339563.491 6
  19369579.947   -10938392.625 7  -8399276.058 7
  21880426.033    -9540685.273 5  -1041625.957 1
  22182944.400   -11746156.150 5  -8897054.366 1
  18893339.346   -21229255.857 7 -16425913.721 7
 94  2  9  1 31 59.9940000  0  7 19 26 27  2 13 15  7
  21906801.877     2319930.173 5   1817339.714 3
  20893807.979   -20395991.488 6 -15669122.576 5
  19634250.400    -4331608.615 6  -3329835.418 6
  19361088.057   -10983013.547 7  -8434045.598 7
  21848798.565    -9706875.014 5  -1171124.378 1
  22173495.190   -11795785.994 5  -8935726.943 1
  18878520.486   -21307135.781 7 -16486599.353 7
 94  2  9  1 32 29.9940000  0  7 19 26 27  2 13 15  7
  21913695.986     2356111.889 5   1845533.243 2
  20880216.721   -20467381.831 6 -15724751.398 5
  19636702.447    -4318717.806 6  -3319790.643 6
  19352626.236   -11027479.650 7  -8468694.494 7
  21817210.393    -9872856.255 5  -1300460.343 1
  22164154.432   -11844868.146 5  -8973972.752 3
  18863798.213   -21384501.449 7 -16546884.270 7
 94  2  9  1 32 59.9940000  0  7 19 26 27  2 13 15  7
  21920616.025     2392509.318 5   1873894.871 2
  20866736.791   -20538245.147 6 -15779969.558 5
  19639234.158    -4305413.236 6  -3309423.455 6
  19344199.190   -11071772.210 7  -8503208.166 7
  21785671.557   -10038620.333 5  -1429627.058 1
  22154927.205   -11893396.610 5  -9011787.105 3
  18849171.525   -21461359.384 7 -16606773.554 6
 94  2  9  1 33 29.9940000  0  7 19 26 27  2 13 15  7
  21927587.604     2429140.590 5   1902438.726 2
  20853355.471   -20608576.297 6 -15834773.024 5
  19641844.252    -4291706.731 6  -3298743.065 6
  19335804.588   -11115891.121 7  -8537586.518 7
  21754169.471   -10204165.686 5  -1558623.362 1
  22145792.994   -11941372.118 5  -9049170.576 3
  18834644.057   -21537714.753 7 -16666271.230 7
 94  2  9  1 33 59.9940000  0  7 19 26 27  2 13 15  7
  21934606.330     2466007.372 5   1931166.095 3
  20840071.236   -20678374.101 6 -15889160.907 5
  19644524.135    -4277608.498 6  -3287757.425 6
  19327441.088   -11159828.307 7  -8571823.267 7
  21722709.072   -10369491.151 5  -1687448.343 1
  22136771.744   -11988795.845 5  -9086124.099 4
  18820205.033   -21613578.628 7 -16725385.919 7
 94  2  9  1 34 29.9940000  0  7 19 26 27  2 13 15  7
  21941662.580     2503102.585 5   1960071.426 2
  20826885.299   -20747650.566 6 -15943142.564 5
  19647276.049    -4263148.543 6  -3276489.943 6
  19319113.947   -11203593.229 7  -8605925.793 7
  21691280.432   -10534604.596 5  -1816108.122 1
  22127848.596   -12035678.411 5  -9122655.959 3
  18805860.377   -21688968.481 7 -16784131.239 7
 94  2  9  1 34 59.9940000  0  7 19 26 27  2 13 15  7
  21948763.830     2540418.330 5   1989148.613 2
  20813804.096   -20816402.176 6 -15996715.240 5
  19650095.916    -4248330.375 6  -3264943.336 6
  19310815.182   -11247207.981 7  -8639911.305 8
  21659907.861   -10699501.537 5  -1944599.175 2
  22119028.861   -12082017.774 5  -9158764.525 5
  18791603.760   -21763887.598 7 -16842509.757 7
 94  2  9  1 35 29.9940000  0  7 19 26 27  2 13 15  7
  21955901.213     2577927.929 5   2018376.886 1
  20800827.018   -20884607.549 6 -16049862.268 5
  19652988.799    -4233142.426 6  -3253108.577 6
  19302540.291   -11290682.317 7  -8673787.393 7
  21628574.275   -10864174.911 5  -2072916.029 1
  22110316.697   -12127809.450 5  -9194446.349 3
  18777437.479   -21838325.356 7 -16900513.195 7
 94  2  9  1 35 59.9940000  0  7 19 26 27  2 13 15  7
  21963075.158     2615628.350 5   2047753.843 2
  20787948.932   -20952255.163 6 -16102574.678 5
  19655953.846    -4217554.328 6  -3240962.016 6
  19294293.658   -11334021.009 7  -8707557.790 7
  21597278.627   -11028620.812 5  -2201055.640 1
  22101707.611   -12173052.080 5  -9229700.321 3
  18763369.346   -21912276.220 7 -16958137.223 7
 94  2  9  1 36 29.9940000  0  7 19 26 27  2 13 15  7
  21970285.643     2653536.433 5   2077292.597 2
  20775184.924   -21019342.195 6 -16154850.271 5
  19659001.666    -4201537.295 6  -3228481.221 6
  19286076.682   -11377216.690 7  -8741216.751 8
  21566030.049   -11192828.709 5  -2329009.845 1
  22093202.729   -12217737.619 5  -9264520.163 3
  18749387.533   -21985724.581 7 -17015369.694 7
 94  2  9  1 36 59.9940000  0  7 19 26 27  2 13 15  7
  21977539.564     2691647.454 5   2106989.514 4
  20762524.783   -21085871.196 6 -16206691.047 6
  19662130.752    -4185082.947 6  -3215659.663 6
  19277876.721   -11420273.452 7  -8774767.468 8
  21534831.213   -11356803.820 5  -2456782.611 2
  22084808.080   -12261874.099 5  -9298912.223 2
  18735508.229   -22058674.119 7 -17072213.484 7
 94  2  9  1 37 29.9940000  0  7 19 26 27  2 13 15  7
  21984835.111     2729973.170 5   2136853.707 2
  20749972.768   -21151842.618 6 -16258097.340 6
  19665346.799    -4168193.175 6  -3202498.796 6
  19269718.244   -11463164.602 7  -8808189.134 8
  21503676.557   -11520540.873 5  -2584369.889 1
  22076506.361   -12305458.600 5  -9332874.135 3
  18721723.744   -22131101.985 7 -17128650.762 7
 94  2  9  1 37 59.9940000  0  7 19 26 27  2 13 15  7
  21992169.275     2768524.551 5   2166893.749 3
  20737521.729   -21217272.590 6 -16309081.711 6
  19668639.955    -4150885.047 6  -3189011.944 6
  19261588.963   -11505881.962 7
  21472560.572   -11684038.391 5  -2711770.502 2
  22068317.674   -12348492.523 5
  18708039.260   -22203009.562 7 -17184682.619 7
 94  2  9  1 38 29.9940000  0  7 19 26 27  2 13 15  7
  21999547.783     2807296.734 5   2197105.815 3
  20725175.744   -21282151.816 6 -16359636.935 5
  19672007.947    -4133175.162 6  -3175212.043 6
  19253498.869   -11548407.284 7  -8874611.980 8
  21441488.440   -11847279.669 5  -2838971.492 2
  22060240.838   -12390961.500 5  -9399499.691 3
  18694460.096   -22274375.379 7 -17240292.327 7
 94  2  9  1 38 59.9940000  0  7 19 26 27  2 13 15  7
  22006968.033     2846273.956 5   2227477.664 2
  20712928.354   -21346490.624 6 -16409771.066 5
  19675449.705    -4115093.837 6  -3161122.694 6
  19245439.674   -11590763.456 7  -8907616.781 8
  21410473.244   -12010279.809 5  -2965984.534 1
  22052263.369   -12432883.288 5  -9432165.984 4
  18680979.283   -22345206.237 7 -17295485.190 7
 94  2  9  1 39 29.9940000  0  7 19 26 27  2 13 15  7
  22014419.049     2885440.302 5   2257996.891 2
  20700788.322   -21410316.056 6 -16459505.159 6
  19678961.486    -4096656.792 6  -3146756.176 6
  19237411.190   -11632959.744 7  -8940496.998 8
  21379502.596   -12173045.756 5  -3092815.072 2
  22044386.135   -12474267.933 5  -9464413.757 3
  18667603.057   -22415518.921 7 -17350274.276 7
 94  2  9  1 39 59.9940000  0  7 19 26 27  2 13 15  7
  22021907.354     2924804.511 4   2288670.265 2
  20688740.049   -21473625.634 6 -16508837.287 6
  19682540.049    -4077846.150 6  -3132098.535 6
  19229410.049   -11675000.439 7  -8973255.974 8
  21348572.416   -12335568.891 5  -3219456.446 1
  22036615.190   -12515109.586 5  -9496238.400 4
  18654313.018   -22485338.898 7 -17404679.433 7
 94  2  9  1 40 29.9940000  0  7 19 26 27  2 13 15  7
  22029443.150     2964369.043 5   2319499.736 3
  20676791.869   -21536419.309 6 -16557767.412 6
  19686194.010    -4058646.528 6  -3117137.788 6
  19221437.815   -11716884.624 7  -9005892.987 8
  21317693.119   -12497844.387 5  -3345904.825 2
  22028947.643   -12555405.936 5  -9527638.155 4
  18641118.049   -22554672.835 7 -17458705.859 7
 94  2  9  1 40 59.9940000  0  7 19 26 27  2 13 15  7
  22037008.494     3004140.165 5   2350490.205 2
  20664932.611   -21598706.835 6 -16606303.133 6
  19689923.236    -4039053.429 6  -3101870.450 6
  19213496.127   -11758617.560 7  -9038412.150 8
  21286856.486   -12659872.654 5  -3472160.594 3
  22021381.205   -12595159.832 5  -9558615.179 4
  18628017.525   -22623542.033 7 -17512370.162 7
 94  2  9  1 41 29.9940000  0  7 19 26 27  2 13 15  7
  22044609.479     3044086.583 5   2381617.249 1
  20653172.174   -21660508.650 6 -16654460.376 6
  19693723.330    -4019085.747 6  -3086311.218 6
  19205581.697   -11800207.934 7  -9070820.223 8
  21256069.565   -12821662.439 5  -3598230.526 2
  22013920.205   -12634383.338 5  -9589178.929 4
  18614992.572   -22691979.455 7 -17565698.000 7
 94  2  9  1 41 59.9940000  0  7 19 26 27  2 13 15  7
  22052242.643     3084212.789 5   2412884.453 1
  20641511.736   -21721794.374 6 -16702215.480 6
  19697592.275    -3998746.994 6  -3070462.837 6
  19197696.627   -11841655.925 7  -9103117.353 8
  21225339.783   -12983202.176 5  -3724105.601 1
  22006554.354   -12673067.406 5  -9619322.328 3
  18602053.065   -22759974.783 7 -17618681.356 7
 94  2  9  1 42 29.9940000  0  7 19 26 27  2 13 15  7
  22059909.486     3124510.106 4   2444284.941 1
  20629948.869   -21782568.588 6 -16749572.006 5
  19701525.565    -3978065.284 6  -3054347.227 6
  19189831.197   -11882971.732 7  -9135311.476 8
  21194643.830   -13144493.299 5  -3849786.939 2
  21999291.979   -12711216.423 5  -9649048.805 3
  18589204.002   -22827505.449 7 -17671302.631 7
 94  2  9  1 42 59.9940000  0  7 19 26 27  2 13 15  7
  22067614.588     3164987.778 5   2475826.012 2
  20618482.744   -21842815.159 6 -16796517.379 6
  19705530.127    -3957035.614 6  -3037960.474 6
  19181997.307   -11924145.411 7  -9167394.859 8
  21163995.315   -13305519.810 5  -3975262.095 1
  21992144.088   -12748817.030 5  -9678347.953 3
  18576443.572   -22894545.254 7 -17723541.425 7
 94  2  9  1 43 29.9940000  0  7 19 26 27  2 13 15  7
  22075350.783     3205649.933 5   2507510.813 3
  20607119.908   -21902521.502 6 -16843041.799 6
  19709597.525    -3935646.203 6  -3021293.408 6
  19174189.713   -11965172.736 7  -9199364.201 8
  21133404.197   -13466279.047 5  -4100529.011 2
  21985083.932   -12785869.527 5  -9707220.006 4
  18563784.432   -22961076.680 7 -17775384.082 7
 94  2  9  1 43 59.9930000  0  7 19 26 27  2 13 15  7
  22083132.044     3246521.280 5   2539358.615 2
  20595865.731   -21961667.952 6 -16889129.943 6
  19713740.497    -3913870.270 6  -3004325.140 6
  19166413.661   -12006044.805 7  -9231212.561 8
  21102867.919   -13626754.569 5  -4225574.830 2
  21978141.833   -12822364.619 5  -9735657.706 3
  18551225.810   -23027067.008 7 -17826805.101 7
 94  2  9  1 44 29.9930000  0  7 19 26 27  2 13 15  7
  22090948.021     3287610.838 5   2571376.449 4
  20584714.450   -22020272.458 6 -16934795.777 6
  19717965.036    -3891684.436 6  -2987037.485 6
  19158665.380   -12046756.183 7  -9262935.698 8
  21072387.497   -13786950.484 5  -4350402.746 2
  21971304.106   -12858300.867 5  -9763659.948 3
  18538772.638   -23092509.821 7 -17877799.484 7
 94  2  9  1 44 59.9930000  0  7 19 26 27  2 13 15  7
  22098803.560     3328907.628 4   2603555.765 3
  20573663.919   -22078329.772 6 -16980035.241 5
  19722268.841    -3869065.291 6  -2969412.182 6
  19150951.208   -12087299.730 7  -9294528.065 8
  21041956.286   -13946860.833 5  -4475008.213 3
  21964572.950   -12893679.264 5  -9791227.513 4
  18526420.247   -23157422.310 7 -17928380.632 7
 94  2  9  1 45 29.9930000  0  7 19 26 27  2 13 15  7
  22106700.552     3370403.145 4   2635889.915 3
  20562721.091   -22135855.158 6 -17024860.216 6
  19726652.708    -3846020.530 6  -2951455.221 6
  19143264.982   -12127678.811 7  -9325992.273 8
  21011579.427   -14106488.416 5  -4599393.285 2
  21957946.200   -12928505.740 5  -9818365.003 4
  18514166.771   -23221828.083 7 -17978566.935 7
 94  2  9  1 45 59.9930000  0  7 19 26 27  2 13 15  7
  22114637.231     3412086.426 4   2668370.364 4
  20551868.880   -22192867.804 6 -17069285.648 6
  19731117.591    -3822564.920 6  -2933178.122 6
  19135616.185   -12167897.099 7  -9357331.187 8
  20981250.935   -14265826.942 5  -4723553.149 3
  21951421.802   -12962776.928 5  -9845069.809 3
  18501999.599   -23285747.793 7 -18028374.489 7
 94  2  9  1 46 29.9930000  0  7 19 26 27  2 13 15  7
  22122599.646     3453934.058 3   2700978.898 2
  20541117.239   -22249384.377 6 -17113324.533 5
  19735655.528    -3798724.338 6  -2914601.047 6
  19127991.513   -12207961.869 7  -9388550.477 8
  20950995.536   -14424881.065 6  -4847491.383 3
  21945005.583   -12996500.332 5  -9871347.748 4
  18489922.856   -23349209.850 7 -18077825.420 7
 94  2  9  1 46 59.9930000  0  7 19 26 27  2 13 15  7
  22130587.505     3495940.203 3   2733710.951 1
  20530457.997   -22305386.954 6 -17156962.890 5
  19740258.497    -3774520.961 6  -2895741.274 6
  19120396.981   -12247868.760 7  -9419646.738 8
  20920781.739   -14583646.112 6  -4971204.372 1
  21938695.552   -13029674.226 5  -9897197.523 4
  18477931.638   -23412222.904 7 -18126926.493 7
 94  2  9  1 47 29.9930000  0  7 19 26 27  2 13 15  7
  22138620.778     3538103.609 4   2766565.509 1
  20519901.372   -22360876.216 6 -17200201.267 6
  19744927.153    -3749993.109 6  -2876628.661 6
  19112827.786   -12287627.867 7  -9450627.854 8
  20890619.411   -14742127.109 6  -5094696.015 3
  21932483.185   -13062306.888 5  -9922625.556 4
  18466029.388   -23474792.553 7 -18175682.050 7
 94  2  9  1 47 59.9930000  0  7 19 26 27  2 13 15  7
  22146676.161     3580431.135 4   2799547.966 2
  20509443.786   -22415826.886 6 -17243019.966 6
  19749657.630    -3725141.250 6  -2857263.579 6
  19105290.005   -12327236.099 7  -9481491.401 8
  20860513.239   -14900319.724 5  -5217962.971 4
  21926385.263   -13094396.993 5  -9947630.817 3
  18454210.028   -23536897.543 7 -18224075.546 7
 94  2  9  1 48 29.9930000  0  7 19 26 27  2 13 15  7
  22154759.286     3622933.364 3
  20499093.763   -22470210.093 6 -17285396.447 5
  19754447.708    -3699966.597 6  -2837646.926 5
  19097783.481   -12366688.586 7  -9512233.544 6
  20830473.497   -15058216.972 5  -5340999.733 1
  21920371.239   -13125940.699 5  -9972210.245 1
  18442482.911   -23598522.134 6 -18272094.636 6
 94  2  9  1 48 59.9930000  0  7 19 26 27  2 13 15  7
  22162877.505     3665611.299 3
  20488854.896   -22524026.602 6 -17327331.399 5
  19759297.263    -3674470.234 6  -2817779.641 5
  19090306.685   -12405986.024 7  -9542854.924 7
  20800481.708   -15215821.659 5  -5463808.516 2
  21914480.372   -13156943.533 5  -9996368.306 1
  18430847.310   -23659670.382 7 -18319742.618 6
 94  2  9  1 49 29.9930000  0  7 19 26 27  2 13 15  7
  22171033.044     3708473.116 3
  20478719.903   -22577293.177 6 -17368837.800 5
  19764216.177    -3648625.263 6  -2797640.699 5
  19082858.403   -12445125.535 7  -9573353.225 7
  20770542.872   -15373125.737 5  -5586383.080 2
  21908680.599   -13187400.630 5 -10020101.082 1
  18419301.747   -23720328.090 6 -18367008.341 6
 94  2  9  1 49 59.9930000  0  7 19 26 27  2 13 15  7
  22179216.935     3751496.957 3
  20468685.138   -22630032.162 6 -17409933.103 5
  19769204.091    -3622422.057 6  -2777222.622 5
  19075439.208   -12484118.008 7  -9603736.959 6
  20740669.599   -15530134.485 5  -5708727.518 2
  21902985.786   -13217320.527 5 -10043415.302 2
  18407852.841   -23780502.734 7 -18413897.662 6
 94  2  9  1 50 29.9930000  0  7 19 26 27  2 13 15  7
  22187441.388     3794685.132 3
  20458743.341   -22682252.925 6 -17450624.609 5
  19774259.122    -3595845.889 6  -2756513.931 5
  19068047.521   -12522959.279 7  -9634002.873 6
  20710847.888   -15686834.959 5  -5830831.781 1
  21897395.380   -13246693.119 4 -10066303.010 2
  18396492.825   -23840196.106 7 -18460411.961 6
 94  2  9  1 50 59.9930000  0  7 19 26 27  2 13 15  7
  22195693.974     3838039.386 3        -0.29211
  20448904.013   -22733980.699 6 -17490931.955 5
  19779387.739    -3568893.188 6  -2735511.821 5
  19060681.192   -12561652.703 7  -9664153.587 7
  20681088.700   -15843230.463 6  -5952698.369 2
  21891910.505   -13275525.368 4 -10088769.680 2
  18385227.075   -23899406.785 7 -18506550.139 6
 94  2  9  1 51 29.9930000  0  7 19 26 27  2 13 15  7
  22203981.036     3881581.116 3     33928.318 1
  20439152.763   -22785195.620 6 -17530839.674 5
  19784591.786    -3541544.087 6  -2714200.846 5
  19053353.825   -12600182.786 7  -9694177.015 7
  20651386.575   -15999297.553 6  -6074309.047 1
  21886527.466   -13303796.255 4 -10110798.953 1
  18374057.646   -23958102.983 7 -18552287.419 6
 94  2  9  1 51 59.9930000  0  7 19 26 27  2 13 15  7
  22212299.083     3925318.951 3
  20429505.489   -22835882.840 6 -17570336.202 5
  19789869.458    -3513803.118 6  -2692584.509 5
  19046050.169   -12638543.615 7  -9724068.557 7
  20621758.544   -16155024.327 6  -6195654.553 2
  21881255.489   -13331497.705 4 -10132384.458 1
  18362983.474   -24016288.247 7 -18597626.568 6
 94  2  9  1 52 29.9930000  0  7 19 26 27  2 13 15  7
  22220667.208     3969256.685 3        -0.11411
  20419963.739   -22886054.237 6 -17609430.783 5
  19795221.817    -3485692.821 6  -2670680.391 5
  19038782.419   -12676743.358 7  -9753834.589 7
  20592182.685   -16310420.203 6  -6316742.209 2
  21876094.435   -13358642.033 4 -10153535.891 1
  18352007.372   -24073975.106 7 -18642577.360 6
 94  2  9  1 52 59.9930000  0  8 19 26 27  2 13 15  7  4
  22229053.255     4013402.756 3     34399.413 1
  20410517.755   -22935695.242 6 -17648112.091 5
  19800641.638    -3457210.213 6  -2648486.161 5
  19031546.310   -12714773.572 7  -9783468.516 7
  20562675.794   -16465482.791 5  -6437570.165 2
  21871037.927   -13385229.921 5 -10174253.713 1
  18341124.067   -24131169.873 6 -18687144.696 6
  22588014.435          -0.22515
 94  2  9  1 53 29.9930000  0  8 19 26 27  2 13 15  7  4
  22237505.528     4057738.573 3
  20401175.974   -22984786.914 6 -17686365.332 5
  19806131.372    -3428356.396 6  -2626002.686 5
  19024343.091   -12752625.680 7  -9812963.647 7
  20533234.606   -16620202.096 5  -6558130.602 3
  21866084.294   -13411254.363 5 -10194532.464 1
  18330330.396   -24187875.070 6 -18731330.552 6
  22558952.919     -152671.607 5        -0.46211
 94  2  9  1 53 59.9930000  0  8 19 26 27  2 13 15  7  4
  22245976.067     4102252.981 3
  20391939.896   -23033333.028 6 -17724193.470 5
  19811691.380    -3399139.925 6  -2603236.604 5
  19017170.614   -12790310.591 7  -9842328.508 7
  20503853.708   -16774584.236 5  -6678428.303 1
  21861232.341   -13436724.630 5 -10214379.422 1
  18319631.481   -24244104.530 7 -18775145.693 6
  22529886.317     -305385.807 3   -118998.394 1
 94  2  9  1 54 29.9930000  0  8 19 26 27  2 13 15  7  4
  22254474.966     4146954.435 3
  20382808.419   -23081308.504 6 -17761576.953 5
  19817324.036    -3369547.516 6  -2580177.597 5
  19010036.286   -12827808.112 7  -9871547.339 7
  20474544.497   -16928615.276 5  -6798452.460 4
  21856501.560   -13461630.351 5 -10233786.468 2
  18309025.224   -24299839.258 7 -18818575.332 6
  22500827.427     -458126.794 3   -238017.097 1
 94  2  9  1 54 59.9930000  0  8 19 26 27  2 13 15  7  4
  22263016.122     4191818.505 2
  20373784.653   -23128718.316 6 -17798519.664 5
  19823024.466    -3339578.448 6  -2556825.094 5
  19002931.294   -12865132.943 7  -9900631.617 7
  20445299.724   -17082298.763 6  -6918205.801 2
  21851866.841   -13485978.530 5 -10252759.042 1
  18298511.638   -24355095.625 7 -18861632.239 6
  22471757.185     -610902.147 3   -357062.661 1
 94  2  9  1 55 29.9930000  0  8 19 26 27  2 13 15  7  4
  22271572.130     4236823.295 2
  20364865.185   -23175587.324 6 -17835040.962 5
  19828801.060    -3309252.369 6  -2533194.400 5
  18995860.583   -12902302.692 7  -9929595.068 7
  20416124.396   -17235639.281 6  -7037691.848 2
  21847335.614   -13509776.919 5 -10271303.233 2
  18288086.888   -24409869.943 7 -18904313.523 6
  22442658.388     -763740.462 3   -476157.280 1
 94  2  9  1 55 59.9930000  0  8 19 26 27  2 13 15  7  4
  22280170.888     4281987.143 2        -0.02611
  20356048.974   -23221923.042 6 -17871146.725 5
  19834635.278    -3278560.446 6  -2509278.634 6
  18988818.724   -12939315.031 7  -9958435.838 8
  20387005.208   -17388631.819 6
  21842911.794   -13533023.643 5 -10289417.585 3
  18277757.310   -24464158.940 7 -18946616.634 7
  22413572.903     -916663.519 3
 94  2  9  1 56 29.9930000  0  8 19 26 27  2 13 15  7  4
  22288795.817     4327292.633 3     35302.920 1
  20347329.606   -23267749.748 6 -17906855.834 5
  19840542.419    -3247530.141 6  -2485099.187 5
  18981800.169   -12976178.599 7  -9987160.699 7
  20357958.138   -17541289.345 6  -7275860.681 1
  21838588.419   -13555735.079 5 -10307114.801 1
  18267514.591   -24517977.064 7 -18988552.822 6
  22384453.630    -1069687.208 3   -714557.030 1
 94  2  9  1 56 59.9930000  0  8 19 26 27  2 13 15  7  4
  22297445.560     4372753.226 3     70726.725 1
  20338706.849   -23313066.564 6 -17942167.645 5
  19846512.825    -3216151.544 6  -2460648.352 6
  18974820.232   -13012870.606 7 -10015751.885 8
  20328973.630   -17693593.155 6  -7394538.925 3
  21834369.036   -13577895.723 5 -10324382.840 2
  18257365.817   -24571301.599 7 -19030104.401 6
  22355312.622    -1222790.014 3   -833857.773 1
 94  2  9  1 57 29.9930000  0  8 19 26 27  2 13 15  7  4
  22306125.739     4418353.776 3    106259.613 1
  20330173.997   -23357891.851 6 -17977096.439 5
  19852547.575    -3184444.747 6  -2435941.764 5
  18967868.099   -13049390.277 7 -10044208.758 7
  20300056.481   -17845555.439 6  -7512951.061 2
  21830252.169   -13599521.053 5 -10341233.738 1
  18247318.130   -24624130.870 7 -19071270.057 6
  22326172.075    -1375975.745 4
 94  2  9  1 57 59.9930000  0  8 19 26 27  2 13 15  7  4
  22314834.341     4464108.487 3
  20321737.872   -23402208.075 6 -18011628.570 5
  19858643.544    -3152407.616 6  -2410977.789 5
  18960955.755   -13085722.347 7 -10072519.455 7
  20271211.005   -17997172.451 6  -7631094.117 2
  21826248.669   -13620610.972 5 -10357667.439 1
  18237355.294   -24676473.624 7 -19112056.605 6
  22296977.700    -1529209.339 3
 94  2  9  1 58 29.9930000  0  8 19 26 27  2 13 15  7  4
  22323565.278     4509999.262 3
  20313404.114   -23446016.020 6 -18045764.613 5
  19864801.521    -3120048.356 6  -2385762.778 5
  18954076.614   -13121878.609 7 -10100693.143 8
  20242418.458   -18148452.086 6  -7748974.306 4
  21822328.021   -13641176.278 5 -10373692.315 4
  18227485.646   -24728339.297 7 -19152471.393 7
  22267853.685    -1682487.190 4        -0.13412
 94  2  9  1 58 59.9920000  0  8 19 26 27  2 13 15  7  4
  22332317.047     4556019.267 3
  20305161.461   -23489309.621 6 -18079499.897 6
  19871020.578    -3087351.309 6  -2360284.591 5
  18947229.711   -13157866.047 7 -10128735.308 8
  20213697.961   -18299383.959 6  -7866583.510 4
  21818515.016   -13661214.286 5 -10389306.367 2
  18217704.898   -24779728.244 7 -19192514.722 7
  22238636.266    -1835814.023 3   -119475.537 1
 94  2  9  1 59 29.9920000  0  8 19 26 27  2 13 15  7  4
  22341103.328     4602170.880 3        -0.27711
  20297029.617   -23532081.190 6 -18112828.396 6
  19877309.328    -3054311.145 6  -2334539.013 5
  18940407.594   -13193705.449 7 -10156662.116 8
  20185042.086   -18449976.676 6  -7983928.441 5
  21814805.211   -13680728.640 5 -10404512.378 2
  18208014.102   -24830651.186 7 -19232194.920 7
  22209473.016    -1989204.469 4   -239000.493 1
 94  2  9  1 59 59.9920000  0  8 19 26 27  2 13 15  7  4
  22349896.922     4648460.727 2
  20288987.633   -23574320.975 6 -18145742.499 6
  19883665.211    -3020919.954 6  -2308519.913 5
  18933611.023   -13229406.491 7 -10184481.096 7
  20156451.469   -18600215.633 6  -8100997.701 2
  21811197.070   -13699712.319 5 -10419304.825 1
  18198416.516   -24881107.358 7 -19271511.403 6
  22180261.156    -2142661.520 4   -358577.370 1
 94  2  9  2  0 29.9920000  0  8 19 26 27  2 13 15  7  4
  22358728.195     4694870.066 1        -0.19311
  20281050.492   -23616053.526 6 -18178261.391 5
  19890088.188    -2987182.826 6  -2282231.254 5
  18926842.711   -13264990.411 7 -10212208.822 8
  20127925.609   -18750101.519 6  -8217791.837 4
  21807681.281   -13718169.554 5 -10433687.078 2
  18188897.219   -24931098.203 7 -19310465.300 7
  22151047.781    -2296209.745 4   -478225.235 1
 94  2  9  2  0 59.9920000  0  8 19 26 27  2 13 15  7  4
  22367602.828     4741404.889 2
  20273202.164   -23657300.838 6 -18210402.163 6
  19896569.281    -2953111.336 6  -2255682.051 5
  18920093.820   -13300458.208 7 -10239846.063 9
  20099472.742   -18899631.717 6  -8334308.812 5
  21804264.594   -13736100.706 5 -10447659.410 2
  18179474.117   -24980629.494 7 -19349061.110 7
  22121808.180    -2449838.921 3   -597936.180 1
 94  2  9  2  1 29.9920000  0  8 19 26 27  2 13 15  7  4
  22376484.656     4788085.797 2
  20265436.891   -23698067.401 6 -18242168.313 6
  19903116.031    -2918710.243 6  -2228876.002 5
  18913372.063   -13335794.401 7 -10267380.751 9
  20071085.375   -19048793.583 6  -8450538.802 5
  21800956.000   -13753496.696 5 -10461214.690 2
  18170135.586   -25029698.797 7 -19387296.914 7
  22092584.836    -2603519.525 3   -717687.143 2
 94  2  9  2  1 59.9920000  0  8 19 26 27  2 13 15  7  4
  22385399.148     4834910.915 3        -0.47611
  20257774.102   -23738374.111 6 -18273576.135 6
  19909721.383    -2883994.607 6  -2201824.883 5
  18906668.078   -13371003.277 7 -10294816.229 8
  20042773.859   -19197592.934 6  -8566486.292 5
  21797747.602   -13770367.253 5 -10474360.546 2
  18160885.375   -25078325.204 7 -19425187.614 7
  22063304.992    -2757257.333 3   -837482.768 2
 94  2  9  2  2 29.9920000  0  8 19 26 27  2 13 15  7  4
  22394326.734     4881893.785 3     36609.458 1
  20250190.148   -23778212.180 6 -18304618.796 5
  19916389.484    -2848960.008 6  -2174525.197 5
  18899999.367   -13406059.634 7 -10322132.872 8
  20014529.125   -19346018.091 6  -8682142.215 5
  21794633.898   -13786703.832 5 -10487090.329 2
  18151715.633   -25126507.707 7 -19462732.415 7
  22034057.883    -2911021.670 3   -957298.914 2
 94  2  9  2  2 59.9920000  0  8 19 26 27  2 13 15  7  4
  22403304.328     4929031.964 3     73340.518 1
  20242705.531   -23817559.218 6 -18335278.816 5
  19923114.180    -2813607.624 6  -2146977.894 5
  18893358.672   -13440941.767 7 -10349313.745 8
  19986357.164   -19494063.791 6  -8797502.458 5
  21791631.156   -13802504.773 5 -10499402.752 4
  18142633.266   -25174240.157 7 -19499926.521 7
  22004810.234    -3064791.281 5  -1077119.306 1
 94  2  9  2  3 29.9920000  0  7 26 27  2 13 15  7  4
  20235307.648   -23856402.761 6 -18365546.511 6
  19929902.250    -2777942.931 6  -2119187.237 6
  18886753.781   -13475657.487 7 -10376364.949 8
  19958253.578   -19641737.288 6  -8912572.666 5
  21788725.234   -13817780.640 5 -10511306.062 4
  18133635.711   -25221533.366 7 -19536778.354 7
  21975504.273    -3218582.363 4  -1196956.341 2
 94  2  9  2  3 59.9920000  0  8  9 26 27  2 13 15  7  4
  22308891.172          -0.22113
  20228023.313   -23894721.024 6 -18395404.907 6
  19936750.602    -2741952.557 6  -2091142.821 6
  18880178.984   -13510194.870 7 -10403277.189 8
  19930225.789   -19789028.189 6  -9027344.773 5
  21785921.750   -13832524.589 5 -10522794.837 2
  18124718.641   -25268371.374 7 -19573275.488 7
  21946269.492    -3372387.329 5  -1316804.209 2
 94  2  9  2  4 29.9920000  0  8  9 26 27  2 13 15  7  4
  22279902.750     -152368.766 3
  20220827.242   -23932509.257 6 -18424850.282 6
  19943658.203    -2705640.224 6  -2062847.502 6
  18873640.320   -13544554.903 7 -10430051.237 7
  19902274.336   -19935934.373 6  -9141817.056 4
  21783210.922   -13846737.906 5 -10533870.153 3
  18115897.477   -25314745.276 7 -19609410.991 7
  21916992.664    -3526202.086 5  -1436659.753 2
 94  2  9  2  4 59.9920000  0  8  9 26 27  2 13 15  7  4
  22250902.375     -304710.965 3        -0.07511
  20213742.641   -23969769.405 6 -18453884.162 6
  19950635.266    -2668996.530 6  -2034293.984 6
  18867138.289   -13578745.483 7 -10456693.242 8
  19874391.453   -20082445.841 6  -9255981.804 5
  21780612.570   -13860413.842 5 -10544526.730 3
  18107159.789   -25360646.119 7 -19645177.866 7
  21887706.688    -3680030.953 5  -1556526.286 1
 94  2  9  2  5 29.9920000  0  8  9 26 27  2 13 15  7  4
  22221918.438     -457031.179 3   -118691.103 1
  20206748.258   -24006523.444 6 -18482523.679 5
  19957666.024    -2632034.171 6  -2005492.172 5
  18860655.484   -13612789.880 7 -10483221.334 7
  19846582.961   -20228574.631 6  -9369848.341 4
  21778099.945   -13873568.287 5 -10554776.932 2
  18098514.305   -25406100.797 7 -19680597.088 6
  21858432.164    -3833903.457 4  -1676426.867 1
 94  2  9  2  5 59.9920000  0  8  9 26 27  2 13 15  7  4
  22192932.836     -609343.509 2   -237376.005 1
  20199842.078   -24042785.564 6 -18510779.871 6
  19964758.219    -2594774.421 6  -1976458.614 5
  18854205.602   -13646704.592 7 -10509648.373 8
  19818847.016   -20374337.206 6  -9483429.533 5
  21775698.516   -13886221.161 5 -10564636.288 4
  18089945.719   -25451122.541 7 -19715678.957 7
  21829154.898    -3987835.582 5  -1796373.908 1
 94  2  9  2  6 29.9920000  0  8  9 26 27  2 13 15  7  4
  22163964.594     -761617.758 3   -356031.169 1
  20193045.531   -24078512.373 6 -18538618.956 6
  19971911.672    -2557174.607 6  -1947160.069 5
  18847782.344   -13680445.558 7 -10535940.019 8
  19791184.656   -20519688.180 6  -9596689.988 5
  21773397.469   -13898330.736 5 -10574072.301 1
  18081464.703   -25495677.825 7 -19750397.352 7
  21799844.617    -4141787.333 3  -1916336.260 2
 94  2  9  2  6 59.9920000  0  8  9 26 27  2 13 15  7  4
  22134998.078     -913852.005 3   -474655.242 1
  20186349.477   -24113702.064 6 -18566039.499 5
  19979131.773    -2519239.002 6  -1917599.869 5
  18841395.898   -13714009.511 7 -10562093.743 7
  19763606.633   -20664628.917 6  -9709630.784 5
  21771195.961   -13909901.673 5 -10583088.617 2
  18073074.977   -25539768.628 7 -19784753.818 6
  21770532.867    -4295762.588 3  -2036316.817 1
 94  2  9  2  7 29.9920000  0  8  9 26 27  2 13 15  7  4
  22106024.641    -1066061.887 3   -593260.308 2
  20179751.648   -24148365.374 6 -18593049.874 5
  19986402.008    -2480991.180 5  -1887796.387 5
  18835042.469   -13747410.387 7 -10588120.401 7
  19736098.555   -20809172.746 6  -9822262.320 4
  21769093.664   -13920951.064 5 -10591698.502 2
  18064770.977   -25583402.126 7 -19818753.933 7
  21741257.688    -4449762.885 5  -2156316.997 2
 94  2  9  2  7 59.9920000  0  8  9 26 27  2 13 15  7  4
  22077061.922    -1218247.442 3   -711846.396 2
  20173255.680   -24182516.455 6 -18619661.089 6
  19993749.000    -2442429.230 6  -1857748.113 5
  18828712.938   -13780650.642 7 -10614021.891 8
  19708671.141   -20953316.940 6  -9934582.441 5
  21767083.227   -13931479.567 5 -10599902.544 4
  18056559.672   -25626573.728 7 -19852394.133 7
  21711925.813    -4603766.784 4  -2276319.991 1
 94  2  9  2  8 29.9920000  0  8  9 26 27  2 13 15  7  4
  22048114.297    -1370395.039 3   -830402.983 1
  20166843.297   -24216182.054 6 -18645894.033 5
  20001142.891    -2403565.402 6  -1827464.593 5
  18822420.539   -13813743.233 7 -10639808.318 7
  19681315.719   -21097062.578 6 -10046591.979 5
  21765182.024   -13941492.140 4 -10607704.495 4
  18048429.016   -25669282.849 7 -19885673.963 7
  21682618.211    -4757774.706 4  -2396326.098 3
 94  2  9  2  8 59.9920000  0  8  9 26 27  2 13 15  7  4
  22019170.680    -1522485.659 3   -948915.079 1
  20160530.938   -24249369.937 6
  20008597.234    -2364394.152 6  -1796941.562 5
  18816150.484   -13846683.192 7
  19654040.711   -21240400.044 6 -10158283.493 5
  21763374.727   -13950982.323 3 -10615099.440 5
  18040390.102   -25711517.257 7 -19918583.884 7
  21653332.000    -4911768.087 5  -2516320.916 3
 94  2  9  2  9 29.9920000  0  8  9 26 27  2 13 15  7  4
  21990242.719    -1674536.102 4  -1067395.891 1
  20154303.758   -24282108.574 6 -18697265.342 5
  20016106.531    -2324926.689 6  -1766187.694 5
  18809909.375   -13879477.908 7 -10691030.118 7
  19626842.648   -21383334.540 6 -10269660.980 5
  21761667.195   -13959958.956 4 -10622094.245 5
  18032439.633   -25753304.586 7 -19951145.429 6
  21624015.570    -5065740.660 4  -2636299.508 1
 94  2  9  2  9 59.9920000  0  8  9 26 27  2 13 15  7  4
  21961313.727    -1826535.048 4  -1185836.604 1
  20148158.477   -24314387.091 6 -18722417.439 6
  20023674.961    -2285157.789 6  -1735198.956 5
  18803698.977   -13912106.804 7 -10716455.229 7
  19599717.719   -21525856.696 6 -10380717.181 5
  21760067.313   -13968416.327 5 -10628684.389 5
  18024574.227   -25794646.600 7 -19983359.971 7
  21594712.742    -5219693.955 4  -2756263.062 2
 94  2  9  2 10 29.9920000  0  8  9 26 27  2 13 15  7  4
  21932398.047    -1978485.628 4  -1304239.611 1
  20142107.063   -24346197.192 6 -18747204.530 6
  20031295.063    -2245103.589 6  -1703987.900 5
  18797524.594   -13944566.315 7 -10741748.344 7
  19572672.383   -21667967.206 6 -10491452.622 5
  21758550.711   -13976358.612 5 -10634873.188 5
  18016789.281   -25835539.868 7 -20015224.864 7
  21565439.977    -5373638.016 5  -2876219.421 2
 94  2  9  2 10 59.9920000  0  8  9 26 27  2 13 15  7  4
  21903484.289    -2130402.263 4  -1422616.151 2
  20136138.250   -24377535.827 6 -18771624.236 5
  20038975.398    -2204766.074 5  -1672556.083 5
  18791382.539   -13976849.062 7 -10766903.719 7
  19545711.313   -21809663.414 6 -10601865.221 5
  21757134.797   -13983786.764 5 -10640661.358 5
  18009093.883   -25876004.767 7 -20046755.937 7
  21536146.750    -5527564.552 5  -2996162.201 1
 94  2  9  2 11 29.9920000  0  8  9 26 27  2 13 15  7  4
  21874592.805    -2282262.209 5  -1540948.517 1
  20130271.133   -24408381.114 6 -18795659.517 5
  20046701.781    -2164151.836 5  -1640908.627 5
  18785269.805   -14008955.603 7 -10791921.792 7
  19518827.367   -21950939.343 6 -10711950.330 5
  21755818.914   -13990698.756 5 -10646047.339 5
  18001475.156   -25916037.365 7 -20077950.159 7
  21506846.461    -5681479.852 5  -3116096.209 1
 94  2  9  2 11 59.9920000  0  8  9 26 27  2 13 15  7  4
  21845711.445    -2434041.692 5  -1659218.223 2
  20124501.758   -24438706.386 6 -18819289.597 5
  20054484.852    -2123249.750 5  -1609036.879 5
  18779194.539   -14040884.039 7 -10816801.091 7
  19492023.820   -22091787.627 6 -10821702.201 5
  21754595.094   -13997090.734 5 -10651028.122 4
  17993944.102   -25955611.166 7 -20108786.882 7
  21477557.352    -5835393.639 5  -3236028.958 2
 94  2  9  2 12 29.9920000  0  8  9 26 27  2 13 15  7  4
  21816840.516    -2585747.691 5  -1777430.635 2
  20118825.414   -24468524.098 6 -18842524.159 6
  20062321.984    -2082058.817 5  -1576940.038 5
  18773151.250   -14072661.445 7 -10841562.697 7
  19465303.024   -22232213.694 6 -10931125.082 5
  21753485.234   -14002971.466 5 -10655610.472 4
  17986494.625   -25994734.835 7 -20139272.841 7
  21448277.703    -5989298.552 5  -3355954.810 2
 94  2  9  2 12 59.9920000  0  8  9 26 27  2 13 15  7  4
  21787990.141    -2737358.915 5  -1895569.230 2
  20113254.328   -24497830.847 6 -18865360.591 6
  20070224.274    -2040555.303 6  -1544599.641 5
  18767128.852   -14104284.999 7 -10866204.412 7
  19438665.414   -22372206.629 6 -11040210.463 5
  21752464.742   -14008333.951 5 -10659789.026 5
  17979138.930   -26033412.255 7 -20169411.088 7
  21419005.859    -6143175.821 5  -3475859.111 2
 94  2  9  2 13 29.9910000  0  8  9 26 27  2 13 15  7  4
  21759159.862    -2888871.252 5  -2013630.696 2
  20107776.722   -24526624.372 6 -18887797.080 6
  20078181.542    -1998724.819 6  -1512004.467 5
  18761140.487   -14135758.252 7 -10890729.011 8
  19412108.175   -22511764.459 6 -11148956.800 5
  21751539.644   -14013184.272 5 -10663568.505 4
  17971862.433   -26071629.038 7 -20199190.392 7
  21389715.081    -6297022.365 5  -3595739.495 2
 94  2  9  2 13 59.9910000  0  8  9 26 27  2 13 15  7  4
  21730341.753    -3040326.213 5  -2131647.512 4
  20102384.636   -24554939.396 6 -18909860.732 6
  20086208.901    -1956551.452 5  -1479142.132 5
  18755180.198   -14167080.612 7 -10915136.032 8
  19385630.862   -22650899.345 6 -11257373.569 5
  21750712.065   -14017529.249 5 -10666954.167 3
  17964678.823   -26109399.299 7 -20228621.750 7
  21360433.151    -6450845.631 4  -3715601.686 3
 94  2  9  2 14 29.9910000  0  8  9 26 27  2 13 15  7  4
  21701522.776    -3191724.118 5  -2249619.830 1
  20097086.870   -24582790.823 6 -18931563.139 5
  20094298.956    -1914030.066 5  -1446008.612 5
  18749250.753   -14198240.060 7 -10939416.116 7
  19359237.487   -22789595.450 6 -11365448.440 5
  21749985.542   -14021360.700 5 -10669939.712 2
  17957573.714   -26146731.801 7 -20257712.000 6
  21331185.956    -6604614.137 4  -3835421.253 1
 94  2  9  2 14 59.9910000  0  8  9 26 27  2 13 15  7  4
  21672730.003    -3343071.918 5  -2367553.100 3
  20091868.792   -24610179.269 5 -18952904.775 5
  20102452.323    -1871172.094 5  -1412612.804 5
  18743359.066   -14229208.791 7 -10963547.587 7
  19332928.769   -22927849.236 6 -11473178.642 5
  21749351.480   -14024679.212 5 -10672525.584 3
  17950550.925   -26183624.956 7 -20286459.897 6
  21301941.144    -6758331.991 5  -3955201.335 1
 94  2  9  2 15 29.9910000  0  8  9 26 27  2 13 15  7  4
  21643933.573    -3494384.163 5  -2485458.671 2
  20086747.120   -24637114.001 5 -18973892.862 5
  20110668.565    -1828005.644 5  -1378976.615 4
  18737502.284   -14259981.993 7 -10987526.684 7
  19306702.980   -23065663.098 6 -11580566.034 5
  21748812.730   -14027490.934 5 -10674716.491 3
  17943614.612   -26220080.311 7 -20314866.658 7
  21272695.878    -6912011.927 5  -4074951.867 3
 94  2  9  2 15 59.9910000  0  8  9 26 27  2 13 15  7  4
  21615146.534    -3645657.909 5  -2603334.254 4
  20081709.167   -24663590.336 6 -18994523.768 5
  20118934.980    -1784557.235 5  -1345120.722 5
  18731685.823   -14290547.893 7 -11011344.268 7
  19280559.855   -23203032.070 6 -11687606.763 5
  21748376.440   -14029794.535 5 -10676511.496 2
  17936759.917   -26256106.436 7 -20342938.956 7
  21243446.284    -7065647.417 5  -4194667.762 2
 94  2  9  2 16 29.9910000  0  8  9 26 27  2 13 15  7  4
  21586369.769    -3796880.041 5  -2721169.565 2
  20076759.761   -24689592.995 6 -19014785.566 5
  20127253.948    -1740852.405 6  -1311065.006 5
  18725905.745   -14320921.070 7 -11035011.672 7
  19254504.534   -23339961.599 6 -11794305.071 5
  21748034.519   -14031598.907 5 -10677917.504 1
  17929988.331   -26291697.975 7 -20370672.619 7
  21214227.995    -7219235.950 5  -4314347.065 1
 94  2  9  2 16 59.9910000  0  8  9 26 27  2 13 15  7  4
  21557611.409    -3948037.435 5  -2838954.455 2
  20071901.847   -24715104.711 6 -19034664.841 5
  20135618.550    -1696888.701 6  -1276807.582 5
  18720162.956   -14351101.138 7 -11058528.603 7
  19228532.542   -23476446.632 6 -11900657.016 5
  21747789.597   -14032902.703 5 -10678933.432 1
  17923296.870   -26326847.572 7 -20398061.899 7
  21185009.862    -7372784.836 5  -4433995.552 1
 94  2  9  2 17 29.9910000  0  8  9 26 27  2 13 15  7  4
  21528857.370    -4099107.942 5  -2956671.658 1
  20067142.941   -24740117.531 6 -19054155.333 5
  20144038.714    -1652648.654 5  -1242334.838 5
  18714454.909   -14381099.436 7 -11081903.891 7
  19202645.706   -23612475.958 6 -12006653.866 5
  21747640.737   -14033698.397 5 -10679553.427 3
  17916691.706   -26361555.361 7 -20425106.926 7
  21155795.019    -7526284.650 5  -4553605.781 1
 94  2  9  2 17 59.9910000  0  8  9 26 27  2 13 15  7  4
  21500126.862    -4250083.808 5  -3074315.125 2
  20062481.105   -24764627.415 6 -19073253.944 5
  20152514.401    -1608113.739 5  -1207632.331 5
  18708778.089   -14410929.883 7 -11105148.402 7
  19176849.128   -23748050.577 6 -12112296.410 5
  21747581.144   -14033990.829 4
  17910172.339   -26395816.544 7 -20451803.946 7
  21126595.706    -7679725.265 5  -4673169.851 2
 94  2  9  2 18 29.9910000  0  8  9 26 27  2 13 15  7  4
  21471419.214    -4400943.680 4  -3191868.235 1
  20057909.933   -24788645.297 6 -19091969.172 5
  20161043.480    -1563271.100 5  -1172690.043 4
  18703128.253   -14440605.815 7 -11128272.505 8
  19151138.792   -23883166.460 6 -12217581.503 5
  21747622.964   -14033779.285 4
  17903741.714   -26429636.207 7 -20478156.909 7
  21097412.745    -7833114.998 5  -4792694.292 3
 94  2  9  2 18 59.9910000  0  8  9 26 27  2 13 15  7  4
  21442730.120    -4551696.986 4  -3309338.256 3
  20053432.050   -24812182.615 6 -19110309.933 5
  20169633.612    -1518132.664 5  -1137517.243 4
  18697513.175   -14470136.187 7 -11151283.182 8
  19125512.355   -24017828.495 6 -12322512.936 5
  21747751.261   -14033072.677 4 -10679065.847 2
  17897379.690   -26463041.208 7 -20504186.773 7
  21068234.441    -7986459.590 5  -4912183.551 4
 94  2  9  2 19 29.9910000  0  8  9 26 27  2 13 15  7  4
  21414068.370    -4702336.552 4  -3426719.656 2
  20049041.589   -24835245.321 6 -19128280.874 5
  20178282.276    -1472701.763 5  -1102116.557 4
  18691917.191   -14499521.938 7 -11174181.171 7
  19099977.472   -24152031.858 7 -12427086.954 5
  21747983.847   -14031869.466 4 -10678128.270 2
  17891109.605   -26496018.172 7 -20529883.105 7
  21039054.886    -8139739.874 5  -5031622.695 2
 94  2  9  2 19 59.9910000  0  8  9 26 27  2 13 15  7  4
  21385426.558    -4852853.167 4  -3544005.284 4
  20044748.831   -24857825.437 6 -19145875.763 5
  20186986.144    -1426969.712 5  -1066481.209 5
  18686353.128   -14528752.149 7 -11196957.964 8
  19074524.972   -24285766.769 6 -12531295.956 5
  21748307.925   -14030163.546 5 -10676799.005 2
  17884917.151   -26528549.601 7 -20555232.259 8
  21009903.409    -8292938.426 5  -5150998.164 4
 94  2  9  2 20 29.9910000  0  8  9 26 27  2 13 15  7  4
  21356804.206    -5003254.418 4  -3661201.023 3
  20040537.776   -24879939.246 6 -19163107.317 5
  20195738.573    -1380956.280 5  -1030626.612 5
  18680824.550   -14557820.822 7 -11219608.873 7
  19049166.253   -24419031.694 6 -12635138.731 5
  21748726.120   -14027957.448 4 -10675079.901 1
  17878809.581   -26560653.750 7 -20580248.468 7
  20980775.058    -8446059.481 5  -5270313.198 2
 94  2  9  2 20 59.9910000  0  8  9 26 27  2 13 15  7  4
  21328202.183    -5153568.082 5  -3778328.499 2
  20036419.495   -24901586.665 6 -19179975.439 5
  20204545.800    -1334663.781 5   -994554.562 5
  18675326.269   -14586714.885 7 -11242123.724 7
  19023895.730   -24551823.031 6 -12738612.479 5
  21749241.183   -14025251.125 5 -10672971.100 2
  17872778.886   -26592326.136 7 -20604928.241 7
  20951651.917    -8599081.406 5  -5389550.982 2
 94  2  9  2 21 29.9910000  0  8  9 26 27  2 13 15  7  4
  21299612.230    -5303804.421 4  -3895395.741 4
  20032384.644   -24922796.341 6 -19196502.450 5
  20213408.722    -1288105.463 5   -958275.366 5
  18669865.495   -14615420.139 7 -11264491.453 8
  18998711.589   -24684151.173 6 -12841725.296 5
  21749856.050   -14022058.392 5 -10670483.260 1
  17866830.987   -26623574.662 7 -20629277.734 7
  20922548.823    -8752016.872 5  -5508721.425 2
 94  2  9  2 21 59.9910000  0  8  9 26 27  2 13 15  7  4
  21271039.831    -5453967.282 4  -4012405.725 4
  20028431.245   -24943577.987 6 -19212695.948 6
  20222319.659    -1241294.658 5   -921799.437 3
  18664437.167   -14643932.046 7 -11286708.512 7
  18973617.800   -24816018.329 6 -12944478.891 5
  21750549.597   -14018385.341 5 -10667621.107 1
  17860964.948   -26654426.458 7 -20653318.076 7
  20893457.441    -8904876.241 5  -5627832.567 4
 94  2  9  2 22 29.9910000  0  8  9 26 27  2 13 15  7  4
  21242474.620    -5604060.198 4  -4129361.226 2
  20024552.073   -24963934.723 6 -19228558.344 5
  20231266.620    -1194255.306 5   -885145.404 2
  18659053.011   -14672243.396 7 -11308769.307 7
  18948615.558   -24947421.266 6 -13046870.768 5
  21751339.456   -14014232.510 5 -10664385.131 2
  17855164.542   -26684896.225 7 -20677060.742 7
  20864382.886    -9057660.162 5  -5746884.922 3
 94  2  9  2 22 59.9910000  0  8  9 26 27  2 13 15  7  4
  21213921.605    -5754064.142 4  -4246247.411 2
  20020766.144   -24983840.489 6 -19244069.334 5
  20240264.675    -1146969.501 5   -848299.328 3
  18653703.706   -14700338.862 7 -11330661.884 7
  18923698.847   -25078346.721 6 -13148890.573 5
  21752227.183   -14009590.372 5 -10660767.894 2
  17849442.448   -26714966.061 7 -20700491.785 7
  20835328.933    -9210347.784 5  -5865862.230 2
 94  2  9  2 23 29.9910000  0  8  9 26 27  2 13 15  7  4
  21185405.464    -5903962.430 4  -4363051.273 2
  20017065.511   -25003293.355 6 -19259227.419 5
  20249312.105    -1099426.438 5   -811252.789 4
  18648394.050   -14728238.109 7 -11352401.546 7
  18898876.042   -25208796.284 6 -13250539.567 5
  21753199.612   -14004463.952 5 -10656773.250 2
  17843795.011   -26744643.891 7 -20723617.345 7
  20806283.253    -9362949.437 5  -5984772.546 2
 94  2  9  2 23 59.9910000  0  8  9 26 27  2 13 15  7  4
  21156893.605    -6053769.205 4  -4479783.815 3
  20013451.011   -25022292.015 6 -19274031.578 5
  20258413.433    -1051622.277 5   -774002.810 2
  18643113.659   -14755985.822 7 -11374023.133 7
  18874139.784   -25338775.227 6 -13351821.837 5
  21754264.089   -13998862.100 5 -10652408.169 2
  17838221.573   -26773942.049 7 -20746447.073 7
  20777259.620    -9515473.545 5  -6103622.464 3
 94  2  9  2 24 29.9910000  0  8  9 26 27  2 13 15  7  4
  21128409.503    -6203484.734 4  -4596445.253 2
  20009924.315   -25040819.178 6 -19288468.316 5
  20267558.769    -1003542.341 5   -736537.965 2
  18637865.542   -14783573.038 7 -11395519.653 7
  18849503.730   -25468280.247 6 -13452734.828 5
  21755419.972   -13992785.173 5 -10647672.902 2
  17832720.386   -26802845.018 7 -20768968.849 7
  20748264.573    -9667904.564 5  -6222399.835 2
 94  2  9  2 24 59.9910000  0  8  9 26 27  2 13 15  7  4
  21099937.651    -6353096.891 4  -4713026.170 4
  20006489.292   -25058879.901 6 -19302541.628 5
  20276763.042     -955168.817 5   -698844.330 3
  18632646.323   -14811006.128 7 -11416896.091 7
  18824947.542   -25597315.653 6 -13553281.884 5
  21756671.230   -13986241.186 5 -10642573.690 4
  17827292.675   -26831349.039 7 -20791179.773 7
  20719277.050    -9820239.220 5  -6341102.112 2
 94  2  9  2 25 29.9910000  0  8  9 26 27  2 13 15  7  4
  21071492.011    -6502572.809 3  -4829500.882 5
  20003142.284   -25076468.254 6 -19316246.841 5
  20286026.073     -906495.796 5   -660917.313 5
  18627453.972   -14838276.154 7 -11438145.456 8
  18800485.886   -25725862.527 6 -13653448.257 5
  21758005.300   -13979215.354 5 -10637099.012 4
  17821954.909   -26859426.913 7 -20813058.630 8
  20690301.362    -9972460.448 5  -6459716.001 5
 94  2  9  2 25 59.9910000  0  8  9 26 27  2 13 15  7  4
  21043073.558    -6651901.568 4  -4945860.935 3
  19999879.808   -25093589.315 6 -19329587.924 5
  20295346.019     -857546.107 5   -622774.723 3
  18622301.698   -14865360.446 7 -11459250.099 7
  18776116.448   -25853919.467 6 -13753232.857 5
  21759431.964   -13971709.644 4 -10631250.409 4
  17816690.831   -26887065.896 7 -20834595.487 8
  20661352.190   -10124560.588 5  -6578235.543 5
 94  2  9  2 26 29.9910000  0  8  9 26 27  2 13 15  7  4
  21014694.917    -6801069.675 5  -5062095.833 4
  19996706.050   -25110256.314 5 -19342575.200 5
  20304696.355     -808349.043 5   -584439.392 3
  18617188.761   -14892253.607 7
  18751838.550   -25981491.831 6 -13852639.899 5
  21760942.128   -13963733.107 4 -10625034.928 2
  17811514.253   -26914270.490 7
  20632446.800   -10276532.275 5  -6696654.983 3
 94  2  9  2 26 59.9910000  0  8  9 26 27  2 13 15  7  4
  20986335.659    -6950076.103 5  -5178204.755 3
  19993622.394   -25126494.683 6 -19355228.481 5
  20314108.956     -758919.076 5   -545922.543 4
  18612099.722   -14918974.374 7
  18727657.894   -26108578.067 6 -13951668.105 5
  21762554.323   -13955288.010 4 -10618454.325 3
  17806420.315   -26941045.831 7
  20603542.597   -10428387.317 5  -6814983.574 2
 94  2  9  2 27 29.9910000  0  8  9 26 27  2 13 15  7  4
  20958008.409    -7098934.629 5  -5294198.386 5
  19990611.081   -25142314.062 6 -19367555.289 6
  20323551.784     -709263.826 5   -507230.177 4
  18607049.776   -14945516.661 7 -11521709.465 8
  18703568.526   -26235172.652 6 -14050313.219 6
  21764252.245   -13946372.289 5 -10611507.019 3
  17801405.495   -26967388.741 7 -20897184.699 8
  20574661.855   -10580128.632 5  -6933223.502 5
 94  2  9  2 27 59.9910000  0  8  9 26 27  2 13 15  7  4
  20929702.159    -7247668.573 4  -5410094.945 3
  19987686.565   -25157710.351 6 -19379552.394 5
  20333052.144     -659383.710 5   -468362.578 2
  18602030.253   -14971870.483 7 -11542244.901 7
  18679571.605   -26361273.569 6 -14148573.641 5
  21766033.667   -13936987.579 4 -10604194.246 2
  17796475.776   -26993308.160 7 -20917381.642 7
  20545819.714   -10731753.414 5  -7051372.663 4
 94  2  9  2 28 29.9900000  0  8  9 26 27  2 13 15  7  4
  20901423.006    -7396291.949 5  -5525905.337 3
  19984830.264   -25172697.541 5 -19391230.725 5
  20342585.865     -609276.694 5   -429318.166 2
  18597051.678   -14998050.858 7 -11562645.183 6
  18655664.982   -26486879.472 6 -14246448.342 5
  21767909.287   -13927140.489 4 -10596521.189 1
  17791620.154   -27018812.615 7 -20937255.235 7
  20516983.678   -10883267.081 5  -7169435.199 3
 94  2  9  2 28 59.9900000  0  8  9 26 27  2 13 15  7  4
  20873158.850    -7544822.552 5  -5641643.435 3
  19982053.006   -25187275.426 5 -19402590.114 5
  20352167.397     -558919.874 5   -390079.101 1
  18592103.811   -15024037.835 7 -11582894.768 6
  18631857.170   -26611993.115 6 -14343939.473 5
  21769874.717   -13916828.680 4 -10588486.010 1
  17786852.061   -27043892.549 7 -20956798.024 7
  20488171.373   -11034682.545 5  -7287421.251 3
 94  2  9  2 29 29.9900000  0  8  9 26 27  2 13 15  7  4
  20844912.217    -7693257.817 5  -5757307.247 2
  19979360.881   -25201429.092 5 -19413618.956 5
  20361799.561     -508318.718 5   -350649.644 2
  18587199.959   -15049820.620 7 -11602985.228 7
  18608144.287   -26736612.333 6 -14441045.329 6
  21771924.365   -13906058.048 4 -10580093.301 1
  17782154.779   -27068555.129 7 -20976015.610 7
  20459379.217   -11185985.837 5  -7405319.858 4
 94  2  9  2 29 59.9900000  0  8  9 26 27  2 13 15  7  4
  20816684.358    -7841588.841 5  -5872889.810 1
  19976754.397   -25215147.009 5 -19424308.240 5
  20371472.326     -457481.697 5   -311036.407 1
  18582330.912   -15075410.064 7 -11622925.040 6
  18584523.365   -26860736.521 6 -14537765.458 5
  21774060.373   -13894832.079 4 -10571345.746 1
  17777535.592   -27092821.640 7 -20994924.582 6
  20430614.248   -11337169.825 5  -7523125.509 3
 94  2  9  2 30 29.9900000  0  7  9 26 27  2 13  7  4
  20788482.490    -7989793.931 5  -5988374.220 1
  19974220.529   -25228432.873 5 -19434660.850 5
  20381190.147     -406399.873 5   -271232.399 2
  18577498.404   -15100808.150 7 -11642715.744 6
  18560999.818   -26984358.242 6 -14634094.049 5
  17772994.303   -27116702.531 7 -21013533.057 6
  20401859.162   -11488230.418 5  -7640835.026 3
 94  2  9  2 30 59.9900000  0  7  9 26 27  2 13  7  4
  20760310.514    -8137866.347 5  -6103755.298 1
  19971779.014   -25241271.988 5 -19444665.379 4
  20390960.100     -355094.386 5   -231254.124 2
  18572700.287   -15126019.490 7 -11662360.946 6
  18537571.217   -27107480.104 7 -14730033.151 5
  17768518.826   -27140214.233 7 -21031853.860 7
  20373139.670   -11639157.008 5  -7758440.128 4
 94  2  9  2 31 29.9900000  0  7  9 26 27  2 13  7  4
  20732154.475    -8285800.798 5  -6219028.841 2
  19969423.139   -25253667.924 6 -19454324.549 5
  20400755.201     -303581.350 5   -191114.098 2
  18567932.811   -15151067.974 7 -11681879.235 6
  18514236.936   -27230106.832 7 -14825586.425 5
  17764111.631   -27163381.211 7 -21049906.030 7
  20344451.553   -11789949.414 5  -7875940.661 3
 94  2  9  2 31 59.9900000  0  8  9 26 27  2 13 12  7  4
  20704033.076    -8433590.213 5  -6334189.369 4
  19967141.897   -25265641.648 5 -19463654.730 5
  20410600.318     -251858.319 5   -150810.461 5
  18563194.209   -15175969.921 7 -11701283.339 7
  18490994.459   -27352240.156 7 -14920755.233 6
  21789540.506     -144002.574 3
  17759768.529   -27186206.591 7 -21067692.037 7
  20315768.607   -11940610.685 5  -7993339.031 4
 94  2  9  2 32 29.9900000  0  8  9 26 27  2 13 12  7  4
  20675940.279    -8581214.245 5  -6449220.999 4
  19964947.842   -25277188.095 5 -19472651.956 5
  20420489.404     -199909.371 5   -110330.787 4
  18558487.998   -15200710.195 7 -11720561.471 8
  18467849.373   -27473870.095 7 -15015531.789 6
  21762138.623     -288037.298 4        -0.48311
  17755492.990   -27208665.115 7 -21085192.181 8
  20287133.787   -12091125.750 5  -8110623.474 5
 94  2  9  2 32 59.9900000  0  8  9 26 27  2 13 12  7  4
  20647878.108    -8728667.836 5  -6564119.842 2
  19962834.850   -25288297.201 5 -19481308.414 5
  20430416.537     -147730.117 5    -69671.647 2
  18553810.631   -15225277.397 7 -11739704.735 7
  18444802.678   -27594993.397 7 -15109913.578 5
  21734717.779     -432101.550 3   -112258.243 1
  17751291.272   -27230753.304 7 -21102403.746 7
  20258519.506   -12241481.082 5  -8227783.461 4
 94  2  9  2 33 29.9900000  0  8  9 26 27  2 13 12  7  4
  20619852.631    -8875951.242 5  -6678886.087 2
  19960793.764   -25298988.408 5 -19489639.227 5
  20440392.553      -95294.247 5    -28812.551 2
  18549168.764   -15249673.566 7 -11758714.739 7
  18421847.342   -27715605.167 7 -15203896.766 5
  21707298.373     -576190.594 4
  17747159.334   -27252471.754 7 -21119327.202 7
  20229934.701   -12391673.315 5  -8344816.340 4
 94  2  9  2 33 59.9900000  0  8  9 26 27  2 13 12  7  4
  20591857.115    -9023075.308 5  -6793528.163 4
  19958839.897   -25309281.059 5 -19497659.472 6
  20450420.436      -42608.934 5     12240.906 4
  18544557.897   -15273908.822 7 -11777599.357 8
  18398990.256   -27835715.210 6 -15297488.975 6
  21679874.397     -720314.259 5
  17743097.436   -27273821.752 7 -21135963.567 8
  20201388.475   -12541709.110 5  -8461727.318 4
 94  2  9  2 34 29.9900000  0  8  9 26 27  2 13 12  7  4
  20563895.779    -9170031.561 5  -6908039.501 4
  19956958.608   -25319165.200 5 -19505361.409 6
  20460486.873       10322.498 5     53486.169 4
  18539981.420   -15297946.493 7 -11796330.003 8
  18376236.389   -27955310.353 7 -15390679.984 6
  21652437.779     -864459.513 4
  17739106.014   -27294789.261 7 -21152301.872 8
  20172868.811   -12691582.519 5  -8578511.725 5
 94  2  9  2 34 59.9900000  0  8  9 26 27  2 13 12  7  4
  20535954.545    -9316835.055 5  -7022431.781 3
  19955151.818   -25328657.733 5 -19512758.203 5
  20470605.029       63487.214 5     94913.193 3
  18535445.693   -15321788.518 7 -11814908.208 7
  18353571.795   -28074393.609 6 -15483472.100 5
  21625008.022    -1008629.488 4
  17735189.662   -27315378.533 7 -21168345.454 7
  20144376.139   -12841299.922 5  -8695174.612 4
 94  2  9  2 35 29.9900000  0  8  9 26 27  2 13 12  7  4
  20508047.748    -9463483.866 5  -7136703.515 5
  19953415.108   -25337773.003 6 -19519861.020 6
  20480762.373      116867.137 5    136507.942 4
  18530945.404   -15345438.069 7 -11833336.425 8
  18331008.811   -28192967.927 6 -15575867.659 6
  21597567.850    -1152826.895 4        -0.30411
  17731342.639   -27335580.500 7 -21184087.235 8
  20115917.350   -12990870.846 5  -8811723.347 5
 94  2  9  2 35 59.9900000  0  8  9 26 27  2 13 12  7  4
  20480170.881    -9609984.566 6  -7250859.875 3
  19951749.881   -25346513.600 5 -19526671.875 5
  20490959.193      170429.878 5    178245.147 2
  18526485.936   -15368883.478 7 -11851605.567 7
  18308542.053   -28311039.358 6 -15667871.350 5
  21570129.607    -1297057.962 4   -112388.098 1
  17727570.529   -27355393.220 7 -21199525.718 8
  20087481.311   -13140303.936 5  -8928164.675 5
 94  2  9  2 36 29.9900000  0  8  9 26 27  2 13 12  7  4
  20452319.186    -9756339.767 5  -7364902.858 2
  19950169.670   -25354860.819 5 -19533176.211 5
  20501188.959      224185.019 5    220132.248 1
  18522060.561   -15392113.167 7 -11869706.622 7
  18286171.779   -28428594.207 6 -15759472.494 5
  21542668.998    -1441308.561 3   -224791.164 1
  17723877.553   -27374823.149 7 -21214665.912 7
  20059074.482   -13289590.301 5  -9044491.677 5
 94  2  9  2 36 59.9900000  0  8  9 26 27  2 13 12  7  4
  20424492.740    -9902559.500 5  -7478840.262 1
  19948650.279   -25362817.507 5 -19539376.233 5
  20511453.092      278133.084 5    262169.709 2
  18517677.459   -15415165.020 7 -11887669.105 7
  18263898.951   -28545637.917 6 -15850675.364 5
  21515216.397    -1585584.285 4   -337213.768 1
  17720241.678   -27393890.449 7 -21229523.540 7
  20030696.615   -13438721.775 5  -9160697.994 5
 94  2  9  2 37 29.9900000  0  8  9 26 27  2 13 12  7  4
  20396703.818   -10048624.274 5  -7592656.939 4
  19947217.006   -25370370.854 5 -19545261.963 5
  20521755.022      332292.968 4    304372.184 2
  18513327.498   -15438033.666 7 -11905488.830 7
  18241723.693   -28662152.808 6 -15941466.168 6
  21487761.803    -1729867.141 4   -449641.977 1
  17716687.068   -27412593.998 7 -21244097.730 7
  20002353.318   -13587677.093 5  -9276767.050 5
 94  2  9  2 37 59.9900000  0  8  9 26 27  2 13 12  7  4
  20368937.115   -10194541.416 5  -7706358.578 5
  19945852.787   -25377516.758 5 -19550830.202 5
  20532108.490      386676.094 4    346748.624 4
  18509006.045   -15460737.663 7 -11923180.256 8
  18219654.709   -28778133.651 6 -16031840.825 6
  21460300.740    -1874151.675 4   -562071.438 2
  17713196.318   -27430949.008 7 -21258400.324 9
  19974042.701   -13736447.789 6  -9392692.221 5
 94  2  9  2 38 29.9900000  0  8  9 26 27  2 13 12  7  4
  20341197.397   -10340301.137 5  -7819937.562 5
  19944567.115   -25384268.243 5 -19556091.097 5
  20542496.326      441273.529 5    389292.034 2
  18504710.342   -15483300.910 7 -11940762.008 8
  18197686.568   -28893589.699 7 -16121806.546 6
  21432850.420    -2018447.038 4   -674509.340 2
  17709768.732   -27448963.083 7 -21272437.259 9
  19945768.693   -13885035.058 6  -9508474.489 5
 94  2  9  2 38 59.9900000  0  8  9 26 27  2 13 12  7  4
  20313491.482   -10485891.040 5  -7933384.213 4
  19943353.397   -25390648.053 5 -19561062.369 5
  20552925.279      496061.912 4    431984.274 4
  18500446.334   -15505720.105 7 -11958231.509 7
  18175812.647   -29008535.560 7 -16211374.731 6
  21405379.412    -2162767.535 4   -786966.847 1
  17706404.209   -27466637.066 7 -21286209.187 8
  19917534.248   -14033439.988 6  -9624114.641 5
 94  2  9  2 39 29.9900000  0  8  9 26 27  2 13 12  7  4
  20285824.795   -10631279.104 5  -8046673.591 5
  19942214.139   -25396641.934 5 -19565732.946 5
  20563383.912      551052.238 4    474833.871 2
  18496214.982   -15527957.059 7 -11975559.007 7
  18154038.022   -29122954.144 7 -16300532.045 6
  21377918.365    -2307095.829 4   -899430.404 2
  17703110.318   -27483940.224 7 -21299692.163 8
  19889318.389   -14181642.992 5  -9739597.452 5
 94  2  9  2 39 59.9900000  0  8  9 26 27  2 13 12  7  4
  20258201.334   -10776453.261 5  -8159796.271 4
  19941146.607   -25402250.219 5 -19570103.039 5
  20573888.389      606247.746 5    517843.330 3
  18492020.733   -15549984.665 7 -11992723.368 7
  18132364.607   -29236843.069 7 -16389276.634 6
  21350459.381    -2451429.249 4  -1011897.944 1
  17699890.787   -27500858.966 7 -21312875.593 8
  19861169.279   -14329633.444 5  -9854914.671 5
 94  2  9  2 40 29.9900000  0  8  9 26 27  2 13 12  7  4
  20230619.217   -10921394.214 5  -8272737.247 4
  19940151.170   -25407469.250 5 -19574169.816 5
  20584435.740      661663.914 5    561024.754 3
  18487877.732   -15571763.694 7 -12009694.030 6
  18110796.443   -29350191.367 7 -16477599.955 6
  21322990.084    -2595756.464 3  -1124360.646 2
  17696749.662   -27517366.855 7 -21325738.870 8
  19833048.178   -14477399.855 5  -9970057.266 5
 94  2  9  2 40 59.9900000  0  8  9 26 27  2 13 12  7  4
  20203078.920   -11066116.634 5  -8385507.945 5
  19939231.904   -25412304.231 5 -19577937.321 5
  20595028.553      717304.107 5    604380.722 5
  18483780.990   -15593295.006 7 -12026471.668 8
  18089331.389   -29463000.533 7 -16565503.184 6
  21295520.858    -2740078.570 3  -1236819.422 3
  17693683.607   -27533478.878 7 -21338293.691 9
  19804960.068   -14624950.794 5 -10085032.001 5
 94  2  9  2 41 29.9900000  0  8  9 26 27  2 13 12  7  4
  20175576.943   -11210643.665 5
  19938382.568   -25416772.988 5 -19581419.492 5
  20605652.436      773164.159 5    647908.006 4
  18479725.428   -15614605.867 7 -12043077.529 7
  18067964.037   -29575279.195 7 -16652993.021 6
  21268054.990    -2884403.768 3
  17690691.100   -27549210.354 7 -21350551.969 8
  19776927.022   -14772304.523 5 -10199853.052 5
 94  2  9  2 41 59.9900000  0  8  9 26 27  2 13 12  7  4
  20148115.217   -11354980.169 6
  19937605.639   -25420870.013 5 -19584611.968 5
  20616325.373      829250.800 5    691611.847 4
  18475712.232   -15635698.049 7 -12059512.989 7
  18046702.881   -29687020.590 6 -16740064.226 6
  21240601.678    -3028724.912 4
  17687770.264   -27564568.692 7 -21362519.500 8
  19748913.490   -14919464.118 5 -10314522.828 5
 94  2  9  2 42 29.9900000  0  8  9 26 27  2 13 12  7  4
  20120680.147   -11499127.670 5  -8722919.091 5
  19936897.607   -25424592.041 5 -19587512.267 5
  20627038.889      885535.663 5    735470.147 3
  18471733.889   -15656590.542 7 -12075792.850 7
  18025537.100   -29798226.762 6 -16826718.358 6
  21213134.162    -3173043.265 4  -1574194.378 2
  17684914.311   -27579571.360 7 -21374209.883 9
  19720958.670   -15066434.082 6 -10429044.850 5
 94  2  9  2 42 59.9900000  0  8  9 26 27  2 13 12  7  4
  20093284.045   -11643094.680 6  -8835101.153 4
  19936252.303   -25427941.744 5 -19590122.439 5
  20637781.061      941986.451 4    779457.733 2
  18467792.959   -15677306.230 7 -12091934.952 6
  18004478.740   -29908902.771 6 -16912959.381 5
  21185673.514    -3317363.687 5  -1686651.795 2
  17682120.412   -27594239.144 7 -21385639.338 8
  19693026.006   -15213212.954 6 -10543417.960 5
 94  2  9  2 43 29.9890000  0  8  9 26 27  2 13 12  7  4
  20065926.243   -11786862.951 6  -8947128.342 5
  19935692.470   -25430910.773 5 -19592435.983 4
  20648556.251      998605.967 4    823576.774 1
  18463885.884   -15697834.901 7 -12107931.320 7
  17983519.173   -30019033.655 6 -16998775.638 6
  21158209.470    -3461669.287 5  -1799097.665 1
  17679393.556   -27608574.155 7 -21396809.475 8
  19665137.915   -15359768.407 6 -10657616.988 5
 94  2  9  2 43 59.9890000  0  8  9 26 27  2 13 12  7  4
  20038604.087   -11930430.872 6  -9058999.428 4
  19935198.056   -25433498.286 5 -19594452.218 5
  20659364.439     1055382.349 4    867818.161 1
  18460016.915   -15718169.537 7 -12123776.485 6
  17962665.353   -30128622.503 6 -17084169.524 5
  21130750.556    -3605965.113 4  -1911535.908 1
  17676727.017   -27622584.574 6 -21407726.676 7
  19637289.017   -15506093.140 6 -10771636.207 5
 94  2  9  2 44 29.9890000  0  8  9 26 27  2 13 12  7  4
  20011323.501   -12073798.738 6  -9170714.639 5
  19934776.446   -25435728.598 5 -19596190.147 5
  20670187.462     1112285.779 4    912158.463 2
  18456179.064   -15738331.124 7 -12139486.817 7
  17941911.548   -30237680.903 6 -17169150.059 6
  21103294.525    -3750260.812 4  -2023974.073 3
  17674121.095   -27636290.862 7 -21418406.898 9
  19609488.634   -15652192.580 6 -10885479.917 6
 94  2  9  2 44 59.9890000  0  8  9 26 27  2 13 12  7  4
  19984080.485   -12216962.863 5  -9282271.069 4
  19934417.540   -25437608.862 5 -19597655.281 5
  20681044.626     1169343.828 3    956619.290 2
  18452378.501   -15758310.240 7 -12155054.950 6
  17921260.548   -30346199.786 6 -17253710.214 5
  21075838.946    -3894546.679 5  -2136404.522 1
  17671569.642   -27649676.781 7 -21428837.490 7
  19581734.235   -15798072.636 6 -10999152.641 5
 94  2  9  2 45 29.9890000  0  8  9 26 27  2 13 12  7  4
  19956875.751   -12359928.215 6  -9393672.602 5
  19934124.118   -25439152.671 5 -19598858.256 5
  20691938.853     1226572.709 4   1001213.205 1
  18448615.853   -15778103.657 7 -12170478.390 7
  17900712.657   -30454180.343 7 -17337850.879 6
  21048385.243    -4038823.417 5  -2248827.867 1
  17669088.071   -27662737.245 7 -21439014.481 8
  19553997.517   -15943734.586 5 -11112655.444 5
 94  2  9  2 45 59.9890000  0  8  9 26 27  2 13 12  7  4
  19929706.392   -12502689.372 5  -9504915.033 5
  19933895.454   -25440356.182 5 -19599796.058 5
  20702855.634     1283977.804 3   1045944.420 1
  18444881.493   -15797711.828 7 -12185757.481 6
  17880268.665   -30561620.382 7 -17421570.371 5
  21020926.782    -4183088.026 4  -2361241.806 2
  17666670.251   -27675441.626 7 -21448913.980 7
  19526334.821   -16089197.791 6 -11226003.364 5
 94  2  9  2 46 29.9890000  0  8  9 26 27  2 13 12  7  4
  19902574.806   -12645264.051 5  -9616012.154 4
  19933731.298   -25441221.391 5 -19600470.263 4
  20713820.978     1341569.467 5   1090821.011 2
  18441181.892   -15817140.295 7 -12200896.554 6
  17859925.243   -30668525.299 7 -17504872.883 5
  20993476.579    -4327345.022 5  -2473649.792 1
  17664318.743   -27687787.265 7 -21458533.951 7
  19498667.524   -16234476.659 5 -11339207.643 5
 94  2  9  2 46 59.9890000  0  8  9 26 27  2 13 12  7  4
  19875477.337   -12787658.342 5  -9726968.708 5
  19933634.524   -25441727.698 5 -19600864.796 5
  20724821.329     1399371.454 5   1135861.541 3
  18437527.540   -15836371.126 7 -12215881.612 7
  17839686.892   -30774883.725 7 -17587749.565 6
  20966029.306    -4471582.374 5  -2586042.493 1
  17662039.532   -27699762.575 7 -21467865.365 8
  19471083.735   -16379548.046 6 -11452250.271 4
 94  2  9  2 47 29.9890000  0  8  9 26 27  2 13 12  7  4
  19848420.478   -12929857.146 5  -9837772.925 5
  19933607.407   -25441859.259 5
  20735857.173     1457373.592 4   1181057.982 2
  18433901.126   -15855408.748 7 -12230716.122 8
  17819550.821   -30880698.583 7 -17670202.677 6
  20938586.439    -4615801.864 5  -2698421.291 1
  17659829.376   -27711384.889 7 -21476921.710 9
  19443506.353   -16524390.221 5 -11565114.258 5
 94  2  9  2 47 59.9890000  0  8  9 26 27  2 13 12  7  4
  19821402.626   -13071835.692 5  -9948405.520 5
  19933654.165   -25441617.275 5
  20746923.056     1515566.806 3   1226403.347 2
  18430319.376   -15874241.709 7 -12245391.152 6
  17799517.829   -30985969.223 7 -17752231.727 6
  20911147.603    -4760002.177 5
  17657681.399   -27722667.443 7 -21485713.296 7
  19415996.946   -16668997.087 6 -11677794.948 4
 94  2  9  2 48 29.9890000  0  8  9 26 27  2 13 12  7  4
  19794433.298   -13213577.243 5 -10058853.453 5
  19933768.470   -25441001.604 5 -19600299.017 5
  20758039.314     1573942.944 3   1271891.215 2
  18426773.978   -15892854.067 7 -12259894.287 7
  17779590.978   -31090685.789 7 -17833829.034 6
  20883710.978    -4904172.817 5
  17655600.009   -27733622.779 7 -21494249.899 7
  19388533.524   -16813337.296 6
 94  2  9  2 48 59.9890000  0  8  9 26 27  2 13 12  7  4
  19767505.345   -13355048.653 5 -10169090.860 5
  19933964.524   -25440011.452 5 -19599527.472 4
  20769175.767     1632481.928 3   1317505.994 4
  18423276.032   -15911239.343 7 -12274220.479 7
  17759768.220   -31194847.363 7 -17914993.879 6
  20856282.384    -5048311.698 5
  17653576.767   -27744254.005 7 -21502533.963 7
  19361107.899   -16957389.727 6 -11902516.432 5
 94  2  9  2 49 29.9890000  0  8  9 26 27  2 13 12  7  4
  19740645.501   -13496221.099 6 -10279095.331 6
  19934218.149   -25438666.790 5 -19598479.694 5
  20780343.134     1691173.776 3   1363239.862 5
  18419825.392   -15929392.906 7 -12288366.118 8
  17740054.814   -31298450.193 7 -17995723.336 6
  20828862.134    -5192414.056 5        -0.34612
  17651615.876   -27754554.459 7 -21510560.288 9
  19333766.767   -17101151.034 6 -12014538.198 5
 94  2  9  2 49 59.9890000  0  8  9 26 27  2 13 12  7  4
  19713832.915   -13637123.711 6 -10388889.539 6
  19934534.618   -25436997.226 5 -19597178.734 5
  20791543.196     1749997.146 3   1409076.223 4
  18416412.415   -15947325.376 7 -12302339.470 8
  17720443.884   -31401503.228 7 -18076024.377 6
  20801448.314    -5336487.616 5   -112265.415 2
  17649715.337   -27764531.765 7 -21518334.803 8
  19306444.064   -17244637.975 6 -12126346.192 5
 94  2  9  2 50 29.9890000  0  8  9 26 27  2 13 12  7  4
  19687066.118   -13777767.098 5 -10498481.770 5
  19934921.532   -25434993.411 5 -19595617.338 5
  20802750.353     1808947.353 3   1455011.401 1
  18413037.165   -15965053.354 7 -12316153.471 6
  17700938.189   -31504003.919 7 -18155895.025 6
  20774033.071    -5480529.224 5   -224505.595 1
  17647878.767   -27774186.180 7 -21525857.720 7
  19279206.579   -17387849.856 6 -12237939.830 5
 94  2  9  2 50 59.9890000  0  8  9 26 27  2 13 12  7  4
  19660353.946   -13918159.811 6 -10607878.656 5
  19935355.251   -25432669.836 5 -19593806.757 5
  20814005.595     1868041.340 3   1501058.674 1
  18409701.087   -15982578.065 7 -12329809.092 7
  17681539.032   -31605956.750 7 -18235338.780 6
  20746629.126    -5624542.190 5   -336723.477 2
  17646102.548   -27783532.109 7 -21533140.241 8
  19251995.767   -17530800.744 6 -12349330.099 5
 94  2  9  2 51 29.9890000  0  8  9 26 27  2 13 12  7  4
  19633684.235   -14058310.254 6 -10717086.758 5
  19935864.845   -25430020.802 5 -19591742.594 5
  20825290.376     1927318.734 4   1547248.847 2
  18406406.853   -15999895.537 6 -12343303.226 7
  17662246.079   -31707346.659 7 -18314343.881 6
  20719231.243    -5768510.326 5   -448906.406 1
  17644378.985   -27792558.154 6 -21540173.518 8
  19224846.321   -17673496.206 6 -12460521.346 5
 94  2  9  2 51 59.9890000  0  8  9 26 27  2 13 12  7  4
  19607053.282   -14198240.685 6 -10826123.456 5
  19936427.993   -25427046.831 5 -19589425.217 5
  20836589.267     1986769.596 4   1593574.136 1
  18403145.665   -16017024.654 7 -12356650.594 7
  17643052.353   -31808189.441 7 -18392922.648 6
  20691838.821    -5912448.198 5   -561065.788 2
  17642723.501   -27801282.016 7 -21546971.331 9
  19197733.001   -17815954.849 6 -12571528.034 5
 94  2  9  2 52 29.9890000  0  8  9 26 27  2 13 12  7  4
  19580474.345   -14337924.112 6 -10934967.648 5
  19937057.837   -25423727.804 5 -19586838.968 4
  20847950.970     2046419.406 5   1640054.455 1
  18399927.915   -16033946.720 6 -12369836.622 6
  17623970.407   -31908470.929 6 -18471064.043 5
  20664457.056    -6056340.432 5   -673189.591 1
  17641122.985   -27809678.517 7 -21553514.060 8
  19170675.282   -17958158.189 6 -12682335.815 5
 94  2  9  2 52 59.9890000  0  8  9 26 27  2 13 12  7  4
  19553939.071   -14477369.676 6 -11043626.507 5
  19937752.939   -25420077.788 5 -19583994.813 4
  20859343.040     2106261.742 4   1686684.903 1
  18396744.126   -16050665.796 7 -12382864.478 7
  17604993.649   -32008200.311 7 -18548775.224 6
  20637086.290    -6200195.202 5   -785284.190 2
  17639592.025   -27817745.865 7 -21559800.306 8
  19143661.321   -18100109.935 6 -12792947.531 5
 94  2  9  2 53 29.9890000  0  8  9 26 27  2 13 12  7  4
  19527445.704   -14616583.739 6 -11152104.979 5
  19938508.439   -25416096.997 5 -19580892.909 5
  20870748.579     2166261.322 3   1733437.797 2
  18393595.712   -16067197.215 7 -12395746.104 7
  17586119.267   -32107380.044 7 -18626058.102 6
  20609717.720    -6344013.626 5   -897350.418 1
  17638118.962   -27825474.637 7 -21565822.720 9
  19116702.626   -18241801.197 6 -12903356.268 5
 94  2  9  2 53 59.9890000  0  8  9 26 27  2 13 12  7  4
  19501001.571   -14755571.280 6 -11260406.948 5
  19939326.767   -25411803.083 5 -19577547.022 4
  20882192.579     2226377.925 3   1780281.876 1
  18390490.235   -16083543.342 7 -12408483.332 7
  17567347.689   -32206015.178 6 -18702916.626 5
  20582356.321    -6487799.556 5  -1009391.372 1
  17636708.853   -27832878.585 7 -21571592.015 7
  19089780.837   -18383221.552 5 -13013553.907 5
 94  2  9  2 54 29.9890000  0  8  9 26 27  2 13 12  7  4
  19474594.415   -14894326.441 5 -11368527.830 5
  19940204.915   -25407204.258 5 -19573963.537 5
  20893658.923     2286608.897 3   1827215.064 3
  18387418.376   -16099684.817 7 -12421061.110 7
  17548685.001   -32304091.006 7 -18779339.337 6
  20555000.720    -6631536.894 5  -1121394.468 2
  17635361.298   -27839959.014 7 -21577109.236 9
  19062937.939   -18524343.078 6 -13123518.700 6
 94  2  9  2 54 59.9890000  0  8  9 26 27  2 13 12  7  4
  19448232.189   -15032863.631 6 -11476478.866 5
  19941130.556   -25402328.617 5 -19570164.312 5
  20905134.157     2346926.202 3   1874215.545 2
  18384383.946   -16115632.128 7 -12433487.584 7
  17530129.493   -32401613.923 7 -18855331.199 6
  20527659.704    -6775230.560 5  -1233363.535 2
  17634070.485   -27846749.917 7 -21582400.848 8
  19036132.603   -18665168.689 6 -13233252.888 5
 94  2  9  2 55 29.9890000  0  8  9 26 27  2 13 12  7  4
  19421912.376   -15171173.923 6 -11584253.106 5
  19942110.985   -25397194.927 5 -19566164.055 4
  20916618.837     2407324.434 3   1921279.053 2
  18381385.720   -16131389.018 7 -12445765.689 7
  17511675.892   -32498588.990 7 -18930896.175 5
  20500323.165    -6918884.455 5  -1345301.565 2
  17632826.220   -27853265.567 7 -21587477.984 8
  19009393.493   -18805699.036 6 -13342757.032 5
 94  2  9  2 55 59.9890000  0  8  9 26 27  2 13 12  7  4
  19395642.212   -15309240.101 6 -11691837.095 5
  19943135.157   -25391801.382 5 -19561961.292 5
  20928145.860     2467822.301 3   1968420.254 2
  18378424.345   -16146945.752 7 -12457887.807 6
  17493328.118   -32595013.144 7 -19006031.847 5
  20473000.782    -7062493.947 5  -1457204.988 2
  17631639.946   -27859515.240 7 -21592347.833 8
  18982699.204   -18945928.434 6 -13452026.666 5
 94  2  9  2 56 29.9890000  0  8  9 26 27  2 13 12  7  4
  19369420.814   -15447029.477 6 -11799205.430 5
  19944219.743   -25386123.596 5 -19557537.043 5
  20939676.595     2528443.531 4   2015657.585 2
  18375504.939   -16162287.734 7 -12469842.604 7
  17475084.618   -32690873.739 7 -19080728.407 6
  20445674.946    -7206044.991 5  -1569062.902 2
  17630501.329   -27865489.274 7 -21597002.922 8
  18956082.360   -19085851.772 6 -13561057.816 6
 94  2  9  2 56 59.9890000  0  8  9 26 27  2 13 12  7  4
  19343249.907   -15584540.894 6 -11906357.160 5
  19945341.962   -25380164.840 5 -19552893.848 5
  20951237.118     2589195.258 4   2062996.586 2
  18372623.439   -16177436.969 7 -12481647.199 7
  17456946.392   -32786184.222 7 -19154996.295 6
  20418370.954    -7349549.645 5  -1680884.667 3
  17629417.884   -27871193.017 7 -21601447.385 8
  18929512.939   -19225492.613 6 -13669868.834 6
 94  2  9  2 57 29.9890000  0  8  9 26 27  2 13 12  7  4
  19317136.806   -15721777.041 6 -12013294.406 5
  19946540.485   -25373919.859 5 -19548027.646 5
  20962824.009     2650088.388 4   2110445.738 2
  18369774.634   -16192392.412 7 -12493300.798 7
  17438915.657   -32880951.324 7 -19228840.779 6
  20391073.017    -7493012.894 5  -1792674.167 1
  17628386.868   -27876621.785 7 -21605677.592 8
  18902990.696   -19364860.726 6 -13778467.324 5
 94  2  9  2 57 59.9880000  0  8  9 26 27  2 13 12  7  4
  19291069.051   -15858742.987 6 -12120021.096 6
  19947779.809   -25367379.402 5 -19542931.193 5
  20974440.231     2711119.777 4   2158002.672 2
  18366970.262   -16207131.491 7 -12504785.793 7
  17420985.535   -32975162.637 7 -19302252.167 6
  20363781.317    -7636419.312 5  -1904419.407 4
  17627407.051   -27881777.154 7 -21609694.775 9
  18876524.621   -19503940.956 6 -13886841.498 6
 94  2  9  2 58 29.9880000  0  8  9 26 27  2 13 12  7  4
  19265053.059   -15995467.491 6 -12226559.643 6
  19949083.426   -25360561.298 5 -19537618.383 5
  20986077.981     2772277.779 4   2205658.252 1
  18364204.785   -16221665.031 6 -12516110.629 7
  17403161.535   -33068837.859 7 -19375245.837 6
  20336502.676    -7779790.267 5  -2016136.986 2
  17626473.676   -27886667.030 7 -21613505.059 9
  18850106.113   -19642757.420 6 -13995010.127 6
 94  2  9  2 58 59.9880000  0  8  9 26 27  2 13 12  7  4
  19239083.770   -16131941.477 6 -12332903.000 6
  19950429.988   -25353470.266 5 -19532092.923 5
  20997729.902     2833567.602 3   2253416.478 1
  18361479.395   -16235989.986 6 -12527272.936 7
  17385438.262   -33161970.390 7 -19447816.616 6
  20309222.184    -7923115.897 5  -2127819.258 5
  17625597.879   -27891271.171 7 -21617092.699 9
  18823745.238   -19781286.811 6 -14102955.062 6
 94  2  9  2 59 29.9880000  0  8  9 26 27  2 13 12  7  4
  19213161.215   -16268166.653 6 -12439052.460 6
  19951830.879   -25346110.985 5 -19526358.420 5
  21009429.957     2894960.517 3   2301255.124 1
  18358795.387   -16250106.489 7 -12538272.783 7
  17367819.027   -33254566.640 7 -19519969.518 6
  20281958.918    -8066400.809 5  -2239469.786 4
  17624780.027   -27895590.543 7 -21620458.424 9
  18797435.645   -19919531.019 6 -14210677.771 6
 94  2  9  2 59 59.9880000  0  8  9 26 24  2 13 12  7  4
  19187291.934   -16404108.643 6 -12544981.278 6
  19953286.559   -25338460.185 5 -19520396.771 5
  20869393.606          -0.91615
  18356147.902   -16264014.916 7 -12549110.523 7
  17350302.066   -33346607.049 6 -19591689.305 6
  20254706.137    -8209623.995 5  -2351072.210 4
  17624012.910   -27899605.214 7 -21623586.742 9
  18771187.957   -20057467.249 6 -14318160.525 6
 94  2  9  3  0 29.9880000  0  8  9 26 24  2 13 12  7  4
  19161485.231   -16539733.576 6 -12650663.047 6
  19954803.012   -25330499.455 5 -19514193.634 5
  20838826.090     -160500.980 3
  18353538.942   -16277713.818 7 -12559784.997 7
  17332895.168   -33438080.261 7 -19662967.117 6
  20227462.395    -8352772.433 5  -2462616.447 5
  17623313.043   -27903288.349 7 -21626456.726 9
  18744998.871   -20195088.941 6 -14425398.193 6
 94  2  9  3  0 59.9880000  0  8  9 26 24  2 13 12  7  4
  19135736.395   -16675043.084 6 -12756099.001 6
  19956373.895   -25322232.977 5 -19507752.213 5
  20808294.676     -320986.811 4        -0.32712
  18350972.520   -16291212.176 7 -12570303.205 7
  17315598.418   -33528989.793 7 -19733805.700 6
  20200239.387    -8495847.477 6  -2574103.460 5
  17622670.660   -27906647.939 7 -21629074.592 9
  18718871.129   -20332402.637 6 -14532395.859 6
 94  2  9  3  1 29.9880000  0  8  9 26 24  2 13 12  7  4
  19110042.637   -16810051.737 6 -12861300.522 6
  19958004.996   -25313672.664 5 -19501081.848 5
  20777754.285     -481459.127 5   -125043.605 1
  18348440.254   -16304509.392 7 -12580664.649 7
  17298403.379   -33619340.982 7 -19804209.183 6
  20173022.285    -8638852.779 5  -2685536.144 5
  17622090.754   -27909711.429 7 -21631461.714 9
  18692799.418   -20469417.047 6 -14639160.281 6
 94  2  9  3  1 59.9880000  0  8  9 26 24  2 13 12  7  4
  19084412.699   -16944745.468 6 -12966256.677 6
  19959688.238   -25304813.741 5 -19494178.808 5
  20747229.871     -641898.320 5   -250061.171 2
  18345953.059   -16317583.781 7 -12590852.495 7
  17281321.496   -33709112.777 7 -19874161.212 6
  20145827.426    -8781765.901 5  -2796896.981 5
  17621565.996   -27912473.135 7 -21633613.697 9
  18666787.848   -20606105.058 6 -14745670.395 6
 94  2  9  3  2 29.9880000  0  8  9 26 24  2 13 12  7  4
  19058840.723   -17079144.271 6 -13070983.008 6
  19961425.629   -25295691.396 5 -19487070.481 5
  20716690.113     -802314.818 5   -375060.988 2
  18343510.520   -16330431.028 6 -12600863.348 7
  17264344.168   -33798323.277 7 -19943675.865 6
  20118654.520    -8924602.642 5  -2908198.312 5
  17621090.285   -27914959.924 7 -21635551.446 9
  18640834.192   -20742474.654 6 -14851932.388 6
 94  2  9  3  2 59.9880000  0  8  9 26 24  2 13 12  7  4
  19033318.879   -17213251.793 6 -13175482.376 5
  19963205.254   -25286315.361 5 -19479764.522 3
  20686175.004     -962706.338 5   -500041.365 2
  18341105.067   -16343056.646 6 -12610701.511 7
  17247473.410   -33886975.285 7 -20012755.348 6
  20091477.043    -9067364.060 5  -3019440.983 5
  17620663.598   -27917191.910 7 -21637290.678 9
  18614950.277   -20878524.028 6 -14957944.904 6
 94  2  9  3  3 29.9880000  0  8  9 26 24  2 13 12  7  4
  19007850.676   -17347072.077 6 -13279757.924 5
  19965044.004   -25276686.595 5 -19472261.613 2
  20655657.645    -1123071.803 4   -625001.433 1
  18338744.621   -16355463.068 6 -12620368.865 6
  17230710.543   -33975066.575 7 -20081397.903 6
  20064332.371    -9210045.813 5  -3130621.536 2
  17620289.418   -27919170.535 7 -21638832.481 8
  18589121.746   -21014236.935 6 -15063695.197 5
 94  2  9  3  3 59.9880000  0  8  9 26 24  2 13 12  7  4
  18982438.176   -17480621.390 6 -13383822.304 6
  19966915.731   -25266813.481 5 -19464568.299 5
  20625138.262    -1283413.477 3   -749942.953 4
  18336421.309   -16367662.807 7 -12629875.150 7
  17214051.777   -34062611.249 7 -20149614.514 6
  20037191.637    -9352660.327 5  -3241749.694 5
  17619961.473   -27920901.922 7 -21640181.606 9
  18563360.113   -21149619.770 6 -15169188.283 6
 94  2  9  3  4 29.9880000  0  8  9 26 24  2 13 12  7  4
  18957083.340   -17613872.259 6 -13487654.141 5
  19968852.652   -25256679.006 5 -19456671.319 2
  20594646.613    -1443716.778 4   -874854.620 3
  18334144.840   -16379643.309 7 -12639210.608 6
  17197497.223   -34149597.431 7 -20217395.941 6
  20010070.527    -9495193.363 5  -3352814.375 4
  17619679.668   -27922367.041 7 -21641323.258 8
  18537656.801   -21284657.663 6 -15274412.604 6
 94  2  9  3  4 59.9880000  0  8  9 26 24  2 13 12  7  4
  18931774.035   -17746848.827 6 -13591272.243 5
  19970820.301   -25246288.017 5 -19448574.441 4
  20564126.660    -1603996.319 3   -999747.687 2
  18331901.059   -16391431.907 7 -12648396.531 6
  17181050.770   -34236030.931 7 -20284746.707 5
  19982961.215    -9637648.798 5  -3463818.606 2
  17619450.363   -27923567.715 7 -21642258.844 7
  18512032.488   -21419354.438 6 -15379371.104 5
 94  2  9  3  5 29.9880000  0  8  9 26 24  2 13 12  7  4
  18906518.926   -17879564.762 6 -13694687.252 6
  19972851.660   -25235659.146 5 -19440292.201 5
  20533650.129    -1764255.781 4  -1124625.102 3
  18329694.590   -16403026.870 7 -12657431.571 7
  17164707.957   -34321914.223 7 -20351668.738 6
  19955868.981    -9780027.202 5  -3574762.804 5
  17619270.699   -27924502.728 7 -21642987.418 9
  18486461.176   -21553702.419 6 -15484057.817 6
 94  2  9  3  5 59.9880000  0  8  9 26 24  2 13 12  7  4
  18881325.660   -18011987.638 6 -13797873.906 6
  19974916.606   -25224789.186 5 -19431822.134 5
  20503146.113    -1924484.836 3  -1249478.922 2
  18327527.863   -16414411.734 6 -12666302.892 7
  17148471.215   -34407239.294 7 -20418155.795 6
  19928790.512    -9922318.477 5  -3685639.097 3
  17619149.004   -27925168.869 7 -21643506.476 9
  18460965.996   -21687701.172 6 -15588472.398 6
 94  2  9  3  6 29.9880000  0  8  9 26 24  2 13 12  7  4
  18856182.356   -18144111.813 6 -13900827.798 6
  19977027.098   -25213702.565 5 -19423183.199 5
  20472675.637    -2084694.251 5  -1374317.311 2
  18325398.981   -16425607.488 7 -12675026.855 7
  17132339.270   -34492012.005 7 -20484212.439 6
  19901729.535   -10064526.256 5  -3796450.324 2
  17619066.457   -27925583.454 7 -21643829.530 8
  18435528.246   -21821364.392 6 -15692625.533 6
 94  2  9  3  6 59.9880000  0  8  9 26 24  2 13 12  7  4
  18831090.692   -18275953.220 6 -14003561.344 6
  19979176.035   -25202411.373 5 -19414384.880 5
  20442186.004    -2244863.033 5  -1499124.183 3
  18323302.473   -16436611.138 6 -12683601.122 6
  17116310.770   -34576235.295 7 -20549840.965 6
  19874680.387   -10206651.247 5  -3907197.065 4
  17619037.254   -27925756.386 7
  18410156.856   -21954693.259 6 -15796518.126 6
 94  2  9  3  7 29.9880000  0  8  9 26 24  2 13 12  7  4
  18806063.145   -18407484.043 6 -14106052.887 6
  19981362.356   -25190914.155 5 -19405426.046 4
  20411715.184    -2404972.806 4  -1623884.956 2
  18321251.957   -16447397.086 6 -12692005.760 7
  17100387.957   -34659911.885 7 -20615043.493 6
  19847652.590   -10348694.035 5  -4017879.723 4
  17619046.512   -27925691.067 7
  18384850.504   -22087690.823 6 -15900152.575 6
 94  2  9  3  7 59.9880000  0  8  9 26 24  2 13 12  7  4
  18781095.871   -18538679.075 6 -14208282.768 6
  19983596.324   -25179190.221 5 -19396290.515 4
  20381277.215    -2565007.407 5  -1748587.261 1
  18319243.824   -16457952.734 6 -12700230.941 6
  17084572.824   -34743032.306 7 -20679812.639 6
  19820642.535   -10490642.944 5  -4128489.265 3
  17619108.067   -27925385.411 7
  18359606.340   -22220346.624 6 -16003520.707 6
 94  2  9  3  8 29.9880000  0  8  9 26 24  2 13 12  7  4
  18756193.215   -18669542.765 6 -14310254.448 6
  19985866.012   -25167235.541 5 -19386975.205 5
  20350805.809    -2724958.078 4  -1873224.081 2
  18317276.973   -16468274.753 6 -12708274.083 7
  17068861.754   -34825590.793 7 -20744143.905 6
  19793649.270   -10632489.817 5  -4239019.269 4
  17619213.113   -27924828.563 7 -21643241.287 8
  18334432.246   -22352640.963 6 -16106607.179 6
 94  2  9  3  8 59.9880000  0  8  9 26 24  2 13 12  7  4
  18731355.848   -18800081.702 6 -14411973.068 6
  19988189.942   -25155039.746 5 -19377471.991 5
  20320423.184    -2884834.601 5  -1997803.135 2
  18315358.160   -16478349.655 6 -12716124.647 7
  17053257.879   -34907590.534 7 -20808039.781 6
  19766672.863   -10774235.550 5  -4349470.479 4
  17619367.731   -27924017.267 7 -21642609.079 9
  18309329.012   -22484562.584 6 -16209403.206 6
 94  2  9  3  9 29.9880000  0  8  9 26 24  2 13 12  7  4
  18706576.902   -18930277.122 6 -14513424.058 6
  19990556.356   -25142593.794 5 -19367773.901 4
  20289977.020    -3044657.832 3  -2122340.676 2
  18313489.176   -16488179.726 6 -12723784.471 6
  17037763.551   -34989022.048 7 -20871492.916 6
  19739723.910   -10915868.710 5  -4459833.996 5
  17619570.457   -27922950.510 7 -21641777.859 8
  18284297.902   -22616102.356 6 -16311901.746 6
 94  2  9  3  9 59.9880000  0  8  9 26 24  2 13 12  7  4
  18681861.637   -19060154.129 6 -14614626.901 6
  19992972.184   -25129927.270 5 -19357903.878 4
  20259593.184    -3204457.196 5  -2246859.605 2
  18311656.567   -16497804.245 6 -12731284.103 7
  17022370.504   -35069905.205 7 -20934518.726 6
  19712787.918   -11057406.256 6  -4570122.974 4
  17619817.067   -27921655.245 7 -21640768.558 8
  18259336.668   -22747277.414 6 -16414116.043 6
 94  2  9  3 10 29.9880000  0  8  9 26 24  2 13 12  7  4
  18657211.020   -19189703.006 6 -14715574.034 6
  19995420.637   -25117032.460 5 -19347855.938 5
  20229188.824    -3364208.752 4  -2371341.278 4
  18309867.840   -16507216.332 6 -12738618.187 7
  17007086.777   -35150227.754 7 -20997107.700 6
  19685878.457   -11198833.727 6  -4680326.162 5
  17620109.731   -27920115.623 7 -21639568.815 9
  18234447.254   -22878072.644 6 -16516034.355 6
 94  2  9  3 10 59.9880000  0  8  9 26 24  2 13 12  7  4
  18632619.207   -19318927.167 6 -14816268.189 6
  19997920.152   -25103908.967 5 -19337629.862 5
  20198788.934    -3523911.651 4  -2495785.024 3
  18308111.926   -16516423.114 6 -12745792.314 7
  16991904.262   -35229996.605 7 -21059265.244 6
  19658986.121   -11340155.633 6  -4790447.127 5
  17620448.402   -27918346.797 7 -21638190.517 9
  18209628.176   -23008495.951 6 -16617662.889 7
 94  2  9  3 11 29.9880000  0  8  9 26 24  2 13 12  7  4
  18608093.231   -19447820.426 6 -14916704.479 6
  20000461.106   -25090568.303 5 -19327234.588 4
  20168420.699    -3683550.337 5  -2620178.805 4
  18306401.793   -16525439.235 6 -12752817.881 7
  16976830.629   -35309215.151 7 -21120993.981 6
  19632111.692   -11481372.957 5  -4900486.590 3
  17620823.996   -27916349.969 6 -21636634.563 8
  18184876.504   -23138550.747 6 -16719004.274 6
 94  2  9  3 11 59.9880000  0  8  9 26 24  2 13 12  7  4
  18583630.723   -19576375.387 6 -15016877.141 6
  20003041.067   -25077001.926 5 -19316663.341 5
  20138051.590    -3843096.334 5  -2744500.318 4
  18304720.059   -16534256.924 6 -12759688.792 7
  16961863.442   -35387881.861 7 -21182292.676 6
  19605261.793   -11622481.364 6  -5010441.156 5
  17621248.918   -27914111.487 7 -21634890.264 9
  18160202.176   -23268223.135 6 -16820047.655 6
 94  2  9  3 12 29.9880000  0  8  9 26 24  2 13 12  7  4
  18559231.817   -19704592.386 6 -15116786.471 6
  20005660.606   -25063214.267 5 -19305919.715 5
  20107709.512    -4002549.416 5  -2868749.435 4
  18303083.527   -16542873.136 6 -12766402.731 7
  16946997.231   -35465998.009 7 -21243162.408 6
  19578427.520   -11763479.998 6  -5120310.217 5
  17621725.973   -27911620.507 7 -21632949.256 9
  18135600.895   -23397515.419 6 -16920794.879 6
 94  2  9  3 12 59.9870000  0  8  9 26 24  2 13 12  7  4
  18534898.937   -19832462.281 6 -15216425.352 6
  20008324.944   -25049227.648 5 -19295021.065 5
  20077377.593    -4161924.031 5  -2992937.438 3
  18301479.898   -16551284.746 6 -12772957.242 7
  16932233.483   -35543566.791 7 -21303605.606 6
  19551618.140   -11904367.030 6  -5230092.302 5
  17622250.171   -27908883.222 7 -21630816.298 9
  18111066.273   -23526433.638 6 -17021250.613 6
 94  2  9  3 13 29.9870000  0  8  9 26 24  2 13 12  7  4
  18510636.679   -19959960.374 6 -15315774.510 6
  20011021.382   -25035037.955 5 -19283964.161 4
  20047066.593    -4321221.389 4  -3117065.221 3
  18299924.085   -16559474.897 6 -12779339.184 7
  16917580.593   -35620575.885 7 -21363612.681 6
  19524828.179   -12045131.918 6  -5339779.210 5
  17622816.062   -27905885.505 6 -21628480.422 9
  18086609.171   -23654978.955 6 -17121415.780 7
 94  2  9  3 13 59.9870000  0  8  9 26 24  2 13 12  7  4
  18486444.476   -20087084.715 6 -15414832.431 6
  20013759.577   -25020659.346 5 -19272760.070 4
  20016775.960    -4480454.712 5  -3241143.112 4
  18298405.757   -16567445.685 6 -12785550.204 6
  16903031.609   -35697031.199 7 -21423188.238 6
  19498066.202   -12185775.835 6  -5449371.856 5
  17623433.812   -27902644.069 6 -21625954.639 9
  18062216.413   -23783161.780 6 -17221298.484 7
 94  2  9  3 14 29.9870000  0  8  9 26 24  2 13 12  7  4
  18462326.210   -20213834.085 6 -15513598.174 6
  20016533.413   -25006102.874 5 -19261417.378 4
  19986471.132    -4639635.992 5  -3365180.444 3
  18296932.694   -16575192.013 6 -12791586.302 6
  16888585.062   -35772934.806 7 -21482333.897 6
  19471328.507   -12326298.120 6  -5558869.717 5
  17624093.952   -27899177.359 6 -21623253.304 9
  18037886.398   -23910991.089 6 -17320905.718 7
 94  2  9  3 14 59.9870000  0  8  9 26 24  2 13 12  7  4
  18438279.093   -20340203.538 6 -15612067.853 6
  20019337.140   -24991351.175 5 -19249922.556 5
  19956200.280    -4798751.166 5  -3489166.252 4
  18295503.468   -16582696.693 6 -12797434.111 6
  16874250.921   -35848273.416 7 -21541039.300 6
  19444612.241   -12466682.754 6  -5668260.297 5
  17624797.109   -27895488.638 7 -21620378.982 9
  18013635.069   -24038445.726 6 -17420220.996 7
 94  2  9  3 15 29.9870000  0  8  9 26 24  2 13 12  7  4
  18414297.062   -20466209.814 6 -15710254.557 6
  20022181.780   -24976394.420 5 -19238267.974 5
  19925937.780    -4957783.457 5  -3613087.514 4
  18294121.327   -16589964.846 6 -12803097.608 6
  16860021.991   -35923045.673 7 -21599303.395 6
  19417927.327   -12606925.845 6  -5777540.619 5
  17625540.671   -27891571.627 7 -21617326.769 9
  17989452.937   -24165506.513 6 -17519229.386 7
 94  2  9  3 15 59.9870000  0  8  9 26 24  2 13 12  7  4
  18390382.913   -20591892.602 6 -15808189.187 6
  20025062.538   -24961256.523 5 -19226472.200 5
  19895690.155    -5116737.292 5  -3736947.610 4
  18292783.429   -16597002.038 6 -12808581.140 6
  16845897.726   -35997268.384 7 -21657139.266 6
  19391263.194   -12747041.238 6  -5886721.432 5
  17626328.265   -27887438.750 7 -21614106.347 9
  17965350.187   -24292168.875 6 -17617927.304 7
 94  2  9  3 16 29.9870000  0  8  9 26 24  2 13 12  7  4
  18366528.538   -20717261.966 6 -15905879.590 7
  20027980.710   -24945936.490 5 -19214534.512 4
  19865455.757    -5275589.416 5  -3860728.424 4
  18291487.944   -16603810.341 6 -12813886.320 6
  16831878.273   -36070939.933 7 -21714545.654 6
  19364622.023   -12887024.681 6  -5995799.413 5
  17627158.577   -27883090.931 7 -21610718.424 8
  17941326.835   -24418422.177 6 -17716306.478 7
 94  2  9  3 16 59.9870000  0  8  9 26 24  2 13 12  7  4
  18342732.093   -20842308.650 6 -16003318.554 7
  20030930.554   -24930437.776 5 -19202457.573 4
  19835258.421    -5434314.693 5  -3984410.465 5
  18290233.124   -16610388.510 6 -12819012.174 6
  16817966.382   -36144050.471 7 -21771514.894 6
  19338015.694   -13026863.486 6  -6104764.699 5
  17628028.835   -27878510.307 7 -21607149.109 8
  17917382.640   -24544246.963 6 -17814351.758 7
 94  2  9  3 17 29.9870000  0  8  9 26 24  2 13 12  7  4
  18318997.444   -20967023.495 6 -16100498.949 7
  20033908.616   -24914777.453 5 -19190254.743 4
  19805066.304    -5592912.204 5  -4107992.909 4
  18289025.194   -16616743.252 6 -12823963.920 6
  16804157.671   -36216610.874 7 -21828055.469 6
  19311430.523   -13166565.578 6  -6213623.441 5
  17628939.984   -27873712.121 7 -21603410.270 8
  17893521.843   -24669656.450 6 -17912073.411 7
 94  2  9  3 17 59.9870000  0  8  9 26 24  2 13 12  7  4
  18295339.476   -21091376.254 6 -16197397.188 7
  20036923.851   -24898948.494 5 -19177920.480 3
  19774921.054    -5751372.905 5  -4231468.758 5
  18287864.921   -16622860.686 6 -12828730.756 6
  16790457.155   -36288611.550 7 -21884159.874 6
  19284874.140   -13306118.498 6  -6322365.962 5
  17629892.421   -27868699.034 7 -21599503.958 8
  17869735.476   -24794647.206 6 -18009468.792 7
 94  2  9  3 18 29.9870000  0  8  9 26 24  2 13 12  7  4
  18271742.991   -21215360.504 6 -16294008.286 6
  20039965.483   -24882959.190 5 -19165461.312 2
  19744795.819    -5909704.968 5  -4354844.373 5
  18286736.991   -16628759.606 6 -12833327.320 6
  16776862.233   -36360064.451 7 -21939837.453 6
  19258345.874   -13445531.286 6  -6430999.289 5
  17630888.929   -27863477.185 7 -21595434.976 8
  17846025.819   -24919230.066 6 -18106546.325 7
 94  2  9  3 18 59.9870000  0  8  9 26 24  2 13 12  7  4
  18248217.483   -21338975.185 6 -16390331.420 7
  20043036.101   -24866820.965 5 -19152886.087 4
  19714680.116    -6067925.591 5  -4478133.117 5
  18285656.749   -16634446.331 6 -12837758.535 6
  16763364.835   -36430979.638 7 -21995096.037 6
  19231841.374   -13584811.118 6  -6539529.014 5
  17631918.452   -27858058.403 7 -21591212.546 8
  17822397.179   -25043402.408 6 -18203303.988 7
 94  2  9  3 19 29.9870000  0  8  9 26 24  2 13 12  7  4
  18224771.319   -21462185.412 6 -16486339.362 7
  20046138.733   -24850497.609 5 -19140166.625 4
  19684593.132    -6226006.416 5  -4601312.935 3
  18284618.718   -16639887.754 6 -12841998.615 6
  16749978.890   -36501329.281 7 -22049913.936 6
  19205365.710   -13723927.203 6  -6647931.149 5
  17632993.523   -27852418.227 7 -21586817.606 8
  17798853.788   -25167130.491 6 -18299715.462 7
 94  2  9  3 19 59.9870000  0  8  9 26 24  2 13 12  7  4
  18201403.194   -21584996.599 6 -16582036.389 7
  20049281.999   -24833995.048 4 -19127307.489 2
  19654550.530    -6383951.154 5  -4724386.749 4
  18283631.374   -16645103.499 6 -12846062.835 6
  16736700.233   -36571119.250 7 -22104295.727 6
  19178926.296   -13862882.018 6  -6756207.624 5
  17634107.991   -27846553.701 7 -21582247.844 8
  17775394.319   -25290404.139 6 -18395772.833 7
 94  2  9  3 20 29.9870000  0  8  9 26 24  2 13 12  7  4
  18178107.077   -21707414.937 6 -16677427.309 6
  20052454.694   -24817325.862 5 -19114318.498 4
  19624515.663    -6541774.015 5  -4847365.642 4
  18282676.671   -16650110.068 6 -12849964.065 6
  16723522.257   -36640362.112 7 -22158251.194 6
  19152513.694   -14001685.427 6  -6864366.118 5
  17635263.757   -27840471.216 7 -21577508.237 8
  17752023.179   -25413231.320 6 -18491482.306 6
 94  2  9  3 20 59.9870000  0  8  9 26 24  2 13 12  7  4
  18154887.312   -21829435.341 6 -16772508.133 7
  20055665.554   -24800481.171 5 -19101192.769 4
  19594490.374    -6699481.398 5  -4970254.434 5
  18281763.304   -16654904.463 6 -12853699.958 6
  16710449.624   -36709055.436 7 -22211778.440 6
  19126130.569   -14140332.054 6  -6972402.420 5
  17636461.944   -27834180.219 7 -21572606.166 8
  17728730.327   -25535614.618 6 -18586845.894 7
 94  2  9  3 21 29.9870000  0  8  9 26 24  2 13 12  7  4
  18131743.640   -21951060.501 6 -16867280.989 7
  20058892.327   -24783471.365 5 -19087938.377 3
  19564508.874    -6857089.040 5  -5093065.541 5
  18280893.476   -16659480.943 6 -12857266.059 6
  16697482.476   -36777205.210 7 -22264882.154 6
  19099771.882   -14278824.532 6  -7080318.641 5
  17637698.452   -27827685.979 7 -21567545.705 8
  17705522.023   -25657567.613 6 -18681874.190 7
 94  2  9  3 21 59.9870000  0  8  9 26 24  2 13 12  7  4
  18108671.132   -22072291.393 6 -16961746.613 6
  20062164.991   -24766291.376 5 -19074551.359 4
  19534535.304    -7014599.187 5  -5215800.674 4
  18280063.202   -16663830.454 6 -12860655.303 6
  16684617.398   -36844807.572 7 -22317559.311 6
  19073450.655   -14417155.963 6  -7188109.370 5
  17638973.921   -27820981.392 6 -21562321.355 8
  17682399.655   -25779101.999 6 -18776576.302 7
 94  2  9  3 22 29.9870000  0  8  9 26 24  2 13 12  7  4
  18085676.671   -22193139.918 6 -17055914.287 7
  20065469.468   -24748946.598 5 -19061035.994 4
  19504589.062    -7172011.821 5  -5338459.841 4
  18279286.460   -16667927.143 6 -12863847.533 6
  16671855.515   -36911865.776 7 -22369812.443 6
  19047154.398   -14555326.486 6  -7295774.705 5
  17640288.671   -27814076.140 6 -21556940.650 9
  17659348.577   -25900240.907 6 -18870970.231 7
 94  2  9  3 22 59.9870000  0  8  9 26 24  2 13 12  7  4
  18062753.484   -22313605.069 6 -17149783.241 6
  20068799.913   -24731426.950 5 -19047384.354 3
  19474653.562    -7329312.959 5  -5461032.129 5
  18278559.429   -16671751.093 6 -12866827.240 6
  16659202.226   -36978372.846 7 -22421636.131 6
  19020898.499   -14693325.973 6  -7403306.780 5
  17641640.038   -27806976.246 6 -21551408.273 9
  17636368.538   -26020982.325 6 -18965054.434 7
 94  2  9  3 23 29.9870000  0  8  9 26 24  2 13 12  7  4
  18039903.093   -22433701.639 6 -17243364.986 7
  20072161.874   -24713753.180 4 -19033612.582 4
  19444732.108    -7486495.001 5  -5583511.610 5
  18277885.382   -16675308.011 6 -12869598.869 6
  16646648.655   -37044339.960 7 -22473039.061 6
  18994666.288   -14831161.891 6  -7510711.394 5
  17643027.780   -27799687.701 7 -21545728.889 9
  17613468.210   -26141332.340 6 -19058833.652 7
 94  2  9  3 23 59.9870000  0  8  9 26 24  2 13 12  7  4
  18017117.905   -22553416.796 6 -17336649.518 7
  20075552.960   -24695925.599 4 -19019720.994 3
  19414849.851    -7643533.148 5  -5705878.961 5
  18277253.405   -16678608.678 6 -12872170.826 6
  16634197.437   -37109759.559 7 -22524015.365 6
  18968470.155   -14968823.842 6  -7617980.448 5
  17644452.132   -27792194.584 7 -21539890.102 8
  17590643.687   -26261277.051 6 -19152297.045 7
 94  2  9  3 24 29.9870000  0  8  9 26 24  2 13 12  7  4
  17994417.937   -22672729.830 6
  20078985.163   -24677944.470 4 -19005709.734 3
  19385007.827    -7800404.991 5  -5828116.736 5
  18276676.765   -16681660.812 6 -12874549.110 6
  16621854.624   -37174621.684 7 -22574557.261 6
  18942307.234   -15106299.039 6  -7725103.968 5
  17645916.405   -27784495.025 7 -21533890.449 9
  17567903.429   -26380773.578 6
 94  2  9  3 24 59.9870000  0  8  9 26 24  2 13 12  7  4
  17971785.921   -22791648.097 6
  20082425.257   -24659836.207 4 -18991599.405 4
  19355180.929    -7957120.270 5  -5950232.504 4
  18276133.187   -16684515.682 6 -12876773.685 6
  16609616.241   -37238941.912 7 -22624676.918 6
  18916184.710   -15243598.917 6  -7832090.899 5
  17647419.444   -27776602.506 7 -21527740.445 9
  17545250.812   -26499809.182 6
 94  2  9  3 25 29.9870000  0  8  9 26 24  2 13 12  7  4
  17949234.765   -22910155.056 6
  20085884.874   -24641619.435 4 -18977404.533 4
  19325385.148    -8113663.352 5  -6072214.073 5
  18275623.023   -16687180.452 6 -12878850.138 6
  16597479.804   -37302717.123 7 -22674371.882 6
  18890093.476   -15380717.611 6  -7938936.640 5
  17648960.483   -27768499.272 7 -21521426.242 9
  17522688.702   -26618366.031 6
 94  2  9  3 25 59.9870000  0  8  9 26 24  2 13 12  7  4
  17926762.812   -23028238.314 6
  20089381.015   -24623283.875 4 -18963117.092 3
  19295633.476    -8270025.436 5  -6194054.650 5
  18275150.304   -16689658.009 6 -12880780.705 6
  16585447.648   -37365946.073 7 -22723641.186 6
  18864031.343   -15517650.264 6  -8045637.419 6
  17650544.046   -27760189.880 7 -21514951.397 8
  17500225.351   -26736439.620 6
 94  2  9  3 26 29.9870000  0  8  9 26 24  2 13 12  7  4
  17904370.710   -23145918.105 6
  20092885.843   -24604839.569 4 -18948744.909 2
  19265914.663    -8426223.147 5  -6315767.108 5
  18274711.913   -16691950.959 6 -12882567.431 6
  16573514.694   -37428648.827 7 -22772500.468 6
  18838006.413   -15654413.601 6  -8152206.237 5
  17652159.444   -27751703.865 7 -21508338.905 8
  17477839.335   -26854047.639 6
 94  2  9  3 26 59.9870000  0  8  9 26 24  2 13 12  7  4
  17882052.038   -23263185.250 6
  20096431.023   -24586278.050 5 -18934281.412 4
  19236228.780    -8582254.338 5  -6437349.820 5
  18274320.101   -16694023.947 6 -12884182.760 6
  16561683.835   -37490816.392 6 -22820942.710 6
  18812016.741   -15790995.377 6  -8258633.590 6
  17653810.491   -27743020.279 7 -21501572.470 8
  17455550.819   -26971199.712 6
 94  2  9  3 27 29.9860000  0  8  9 26 24  2 13 12  7  4
  17859823.775   -23380031.039 6
  20099973.010   -24567598.152 4 -18919725.655 4
  19206562.143    -8738119.945 5  -6558803.505 5
  18273974.158   -16695848.850 6 -12885604.773 6
  16549956.354   -37552450.176 6 -22868969.024 6
  18786063.432   -15927390.626 6  -8364915.605 5
  17655500.690   -27734146.280 7 -21494657.659 8
  17433340.432   -27087902.974 6
 94  2  9  3 27 59.9860000  0  8  9 26 24  2 13 12  7  4
  17837662.666   -23496466.746 6 -18071493.633 7
  20103549.752   -24548792.796 4 -18905072.143 4
  19176925.705    -8893837.683 5  -6680141.960 4
  18273674.815   -16697418.059 6 -12886827.538 6
  16538330.166   -37613548.645 7 -22916578.213 6
  18760142.525   -16063599.674 6  -8471052.537 6
  17657225.549   -27725082.570 7 -21487595.035 8
  17411216.213   -27204158.753 6 -19887009.952 7
 94  2  9  3 28 29.9860000  0  8  9 26 24  2 13 12  7  4
  17815582.143   -23612501.299 6 -18161910.161 7
  20107153.697   -24529890.465 4 -18890343.078 2
  19147323.690    -9049417.254 5  -6801372.763 5
  18273424.424   -16698725.613 6 -12887846.418 6
  16526806.838   -37674113.717 7 -22963771.779 6
  18734263.502   -16199618.330 6  -8577041.088 6
  17658983.033   -27715833.808 7 -21480388.195 8
  17389180.190   -27319963.363 6 -19977247.291 7
 94  2  9  3 28 59.9860000  0  8  9 26 24  2 13 12  7  4
  17793577.010   -23728132.272 6 -18252012.219 7
  20110772.674   -24510895.880 5 -18875542.134 3
  19117748.572    -9204850.161 5  -6922489.290 5
  18273222.861   -16699771.428 6 -12888661.345 6
  16515381.596   -37734145.571 7 -23010549.829 6
  18708414.096   -16335443.482 6  -8682878.865 5
  17660778.666   -27706404.438 7 -21473040.634 7
  17367233.385   -27435307.655 6 -20067125.949 7
 94  2  9  3 29 29.9860000  0  8  9 26 24  2 13 12  7  4
  17771650.674   -23843359.039 6 -18341799.315 7
  20114404.549   -24491802.544 4 -18860664.213 4
  19088194.143    -9360119.884 5  -7043478.639 5
  18273072.057   -16700570.302 6 -12889283.848 6
  16504059.260   -37793644.032 7 -23056912.266 6
  18682602.994   -16471070.953 6  -8788562.603 6
  17662603.580   -27696803.964 7 -21465559.742 7
  17345372.260   -27550188.762 6 -20156643.681 7
 94  2  9  3 29 59.9860000  0  8  9 26 24  2 13 12  7  4
  17749798.010   -23958199.324 6 -18431285.255 7
  20118047.322   -24472625.745 4 -18845721.277 2
  19058680.440    -9515228.921 5  -7164342.796 5
  18272961.768   -16701149.576 6 -12889735.244 6
  16492835.479   -37852629.695 7 -23102875.119 6
  18656826.143   -16606517.960 6  -8894105.717 6
  17664459.416   -27687051.789 7 -21457960.645 7
  17323591.924   -27664622.809 6 -20245813.057 7
 94  2  9  3 30 29.9860000  0  8  9 26 24  2 13 12  7  4
  17728020.604   -24072643.315 6 -18520462.387 7
  20121713.924   -24453349.755 5 -18830701.066 2
  19029196.393    -9670165.614 5  -7285072.664 5
  18272893.150   -16701502.401 6
  16481706.885   -37911103.624 7 -23148439.208 6
  18631088.760   -16741782.138 6  -8999506.373 5
  17666346.447   -27677150.532 7 -21450245.382 7
  17301903.533   -27778603.410 6 -20334629.111 7
 94  2  9  3 30 59.9860000  0  8  9 26 24  2 13 12  7  4
  17706325.830   -24186646.684 6 -18609296.191 7
  20125411.221   -24433934.447 4 -18815572.236 4
  18999752.111    -9824896.762 5  -7405642.358 5
  18272880.385   -16701613.472 6
  16470681.143   -37969040.902 7 -23193585.134 6
  18605388.369   -16876834.688 6  -9104742.122 6
  17668261.666   -27667073.985 7 -21442393.519 8
  17280309.072   -27892098.265 6 -20423066.661 7
 94  2  9  3 31 29.9860000  0  8  9 26 24  2 13 12  7  4
  17684716.885   -24300207.038 6 -18697784.779 7
  20129132.354   -24414404.261 4 -18800353.937 5
  18970345.791    -9979441.766 5  -7526067.013 5
  18272895.908   -16701507.413 6
  16459756.400   -38026455.643 7 -23238323.890 6
  18579727.346   -17011686.495 6  -9209821.461 6
  17670208.893   -27656844.568 6 -21434422.559 8
  17258797.807   -28005129.290 6 -20511142.784 7
 94  2  9  3 31 59.9860000  0  8  9 26 24  2 13 12  7  4
  17663191.713   -24413313.413 6 -18785919.612 7
  20132863.080   -24394776.640 5 -18785059.706 4
  18940973.291   -10133805.897 5  -7646350.703 5
  18272956.869   -16701183.530 6
  16448929.252   -38083348.130 7 -23282655.694 6
  18554106.736   -17146333.482 6  -9314741.183 6
  17672179.518   -27646472.896 6 -21426340.752 8
  17237380.307   -28117679.905 7 -20598844.544 7
 94  2  9  3 32 29.9860000  0  8  9 26 24  2 13 12  7  4
  17641755.400   -24525959.018 6 -18873695.409 7
  20136617.783   -24375060.776 4 -18769696.713 2
  18911633.869   -10287997.625 5  -7766500.077 5
  18273061.135   -16700648.254 6 -12889344.655 6
  16438205.955   -38139708.210 7 -23326572.633 6
  18528523.041   -17280762.342 6  -9419490.947 6
  17674186.182   -27635951.288 7 -21418142.109 8
  17216058.213   -28229744.617 6 -20686167.682 7
 94  2  9  3 32 59.9860000  0  8  9 26 24  2 13 12  7  4
  17620407.986   -24638151.922 6 -18961118.454 7
  20140378.549   -24355291.635 4 -18754292.169 2
  18882314.408   -10442026.872 5  -7886522.835 5
  18273201.830   -16699916.065 6 -12888774.131 6
  16427578.588   -38195546.382 7 -23370082.892 6
  18502983.080   -17414979.531 6  -9524075.756 6
  17676215.252   -27625287.721 7 -21409832.839 8
  17194816.900   -28341340.064 6 -20773125.156 8
 94  2  9  3 33 29.9860000  0  8  9  5 24  2 13 12  7  4
  17599139.033   -24749900.427 6 -19048195.201 7
  20136554.635          -0.60313
  18853043.940   -10595882.697 5  -8006410.469 5
  18273375.908   -16698970.370 6 -12888037.231 6
  16417052.947   -38250857.111 7 -23413182.161 6
  18477486.018   -17548975.887 6  -9628488.499 6
  17678272.080   -27614468.929 7 -21401402.609 8
  17173675.650   -28452459.060 6 -20859711.372 7
 94  2  9  3 33 59.9860000  0  8  9  5 24  2 13 12  7  4
  17577957.330   -24861223.909 6 -19134940.757 7
  20111206.322     -133193.042 4
  18823797.635   -10749562.683 5  -8126161.086 5
  18273602.049   -16697795.773 6 -12887121.970 6
  16406630.010   -38305639.254 7 -23455869.526 6
  18452029.822   -17682746.478 6  -9732725.324 6
  17680367.158   -27603468.772 7 -21392831.049 8
  17152621.729   -28563081.104 6 -20945910.351 7
 94  2  9  3 34 29.9860000  0  8  9  5 24  2 13 12  7  4
  17556850.955   -24972128.908 6 -19221360.231 7
  20085854.736     -266406.440 4
  18794583.635   -10903062.576 5  -8245771.376 5
  18273871.596   -16696375.602 6 -12886015.342 6
  16396305.229   -38359898.398 7 -23498149.384 6
  18426614.322   -17816293.119 6  -9836787.622 6
  17682498.900   -27592270.682 7 -21384105.265 8
  17131668.440   -28673213.196 6 -21031727.540 8
 94  2  9  3 34 59.9860000  0  8  9  5 24  2 13 12  7  4
  17535831.236   -25082602.959 6 -19307443.907 7
  20060501.393     -399641.169 4
  18765409.752   -11056368.067 5  -8365230.180 5
  18274193.111   -16694686.560 6 -12884699.214 6
  16386077.283   -38413636.425 7 -23540023.162 6
  18401246.916   -17949613.766 6
  17684665.666   -27580878.377 7 -21375228.145 8
  17110803.119   -28782845.495 6 -21117155.284 7
 94  2  9  3 35 29.9860000  0  8  9  5 24  2 13 12  7  4
  17514887.690   -25192643.870 6 -19393190.091 6
  20035144.525     -532900.147 5        -0.33112
  18736272.315   -11209466.873 5  -8484527.958 5
  18274566.033   -16692724.611 6 -12883170.451 6
  16375951.369   -38466850.885 7 -23581488.987 6
  18375918.541   -18082702.203 6 -10044379.124 5
  17686866.486   -27569299.317 7 -21366205.527 7
  17090036.236   -28891975.167 6 -21202191.399 7
 94  2  9  3 35 59.9860000  0  8  9  5 24  2 13 12  7  4
  17494034.283   -25302238.062 6 -19478588.132 7
  20009782.033     -666176.381 5   -103851.902 4
  18707191.791   -11362355.945 5  -8603662.256 5
  18274993.330   -16690493.374 6 -12881431.815 6
  16365924.174   -38519544.981 7 -23622549.300 6
  18350639.369   -18215557.757 6 -10147902.905 6
  17689104.674   -27557541.105 7 -21357043.260 8
  17069363.525   -29000616.313 7 -21286846.812 8
 94  2  9  3 36 29.9860000  0  8  9  5 24  2 13 12  7  4
  17473269.322   -25411364.048 6 -19563621.365 7
  19984421.924     -799468.729 5   -207716.051 3
  18678131.635   -11515023.955 5  -8722624.342 5
  18275466.408   -16688000.164 6 -12879489.067 6
  16355995.690   -38571721.614 7 -23663206.421 6
  18325401.932   -18348179.372 6 -10251244.431 6
  17691373.580   -27545621.457 7 -21347755.220 8
  17048776.713   -29108790.943 6 -21371138.725 7
 94  2  9  3 36 59.9860000  0  8  9  5 24  2 13 12  7  4
  17452587.393   -25520035.442 6 -19648300.371 7
  19959044.682     -932801.538 5   -311611.758 3
  18649119.557   -11667475.980 5  -8841418.079 5
  18275987.658   -16685265.666 6 -12877358.297 6
  16346162.190   -38623394.340 7 -23703470.870 6
  18300209.565   -18480576.710 6 -10354411.156 6
  17693667.260   -27533568.573 7 -21338363.368 8
  17028279.877   -29216510.112 6 -21455075.732 8
 94  2  9  3 37 29.9860000  0  8  9  5 24  2 13 12  7  4
  17431999.502   -25628248.245 6 -19732622.018 7
  19933667.557    -1066165.482 4   -415531.668 2
  18620144.994   -11819696.184 5  -8960031.210 6
  18276548.315   -16682288.774 6 -12875038.660 6
  16336424.361   -38674561.519 7 -23743341.400 6
  18275054.072   -18612744.060 6 -10457398.702 6
  17695988.330   -27521371.295 7 -21328858.996 8
  17007867.354   -29323766.842 7 -21538652.400 8
 94  2  9  3 37 59.9860000  0  8  9  5 24  2 13 12  7  4
  17411493.666   -25735990.645 6 -19816577.136 8
  19908280.533    -1199565.206 4   -519479.517 3
  18591228.330   -11971676.878 5  -9078457.709 5
  18277167.361   -16679056.867 6 -12872520.287 6
  16326786.822   -38725218.148 7 -23782814.093 6
  18249954.385   -18744672.658 6 -10560200.201 6
  17698337.322   -27509017.204 6 -21319232.439 8
  16987554.705   -29430536.104 7 -21621849.216 8
 94  2  9  3 38 29.9860000  0  8  9  5 24  2 13 12  7  4
  17391078.650   -25843267.365 6 -19900169.374 7
  19882888.705    -1333010.007 3   -623462.450 4
  18562363.205   -12123420.549 5  -9196699.522 5
  18277829.705   -16675571.493 6 -12869804.421 6
  16317244.361   -38775363.775 7 -23821888.600 6
  18224894.479   -18876357.956 6 -10662812.115 6
  17700717.229   -27496514.677 6 -21309490.217 7
  16967333.135   -29536786.415 6 -21704641.660 8
 94  2  9  3 38 59.9860000  0  8  9  5 24  2 13 12  7  4
  17370756.807   -25950074.361 6 -19983395.609 7
  19857490.494    -1466473.860 4   -727460.227 4
  18533531.010   -12274921.847 5  -9314752.457 5
  18278541.455   -16671826.665 6 -12866886.373 6
  16307802.150   -38824988.855 7 -23860557.490 6
  18199883.604   -19007786.244 6 -10765223.765 6
  17703128.416   -27483858.072 6 -21299627.921 7
  16947218.533   -29642485.320 7 -21787004.430 8
 94  2  9  3 39 29.9860000  0  8  9  5 24  2 13 12  7  4
  17350518.057   -26056415.951 6 -20066259.178 7
  19832084.854    -1599955.973 3   -831472.254 1
  18504738.260   -12426211.236 5  -9432640.285 5
  18279300.033   -16667848.093 6 -12863786.194 6
  16298454.307   -38874103.633 7 -23898828.741 6
  18174920.854   -19138963.834 6 -10867440.052 6
  17705565.822   -27471048.130 6 -21289646.143 7
  16927208.799   -29747646.059 6 -21868947.857 8
 94  2  9  3 39 59.9860000  0  8  9  5 24  2 13 12  7  4
  17330369.455   -26162292.307 6 -20148760.244 6
  19806686.650    -1733450.639 3   -935494.071 2
  18475995.768   -12577300.115 6  -9550371.874 5
  18280098.221   -16663645.381 6 -12860511.377 5
  16289203.549   -38922708.382 7 -23936702.588 5
  18150006.065   -19269887.066 6 -10969458.168 6
  17708029.510   -27458088.167 6 -21279547.491 7
  16907303.057   -29852261.461 6 -21950466.360 7
 94  2  9  3 40 29.9860000  0  8  9  5 24  2 13 12  7  4
  17310313.166   -26267696.763 6 -20230893.559 7
  19781288.580    -1866930.480 4  -1039504.272 4
  18447279.869   -12728182.938 6  -9667942.887 5
  18280941.244   -16659231.720 6 -12857072.167 6
  16280055.283   -38970799.597 7 -23974176.241 6
  18125140.838   -19400548.388 6 -11071272.150 6
  17710526.150   -27444971.745 6 -21269326.878 7
  16887494.525   -29956336.388 6 -22031563.676 8
 94  2  9  3 40 59.9860000  0  8  9  5 24  2 13 12  7  4
  17290346.760   -26372629.336 6 -20312659.206 7
  19755890.322    -2000399.438 4  -1143506.041 3
  18418598.744   -12878844.593 5  -9785341.565 6
  18281820.244   -16654606.852 6 -12853468.377 6
  16271000.354   -39018381.619 7 -24011253.141 6
  18100326.955   -19530948.062 6 -11172882.286 6
  17713054.135   -27431701.848 6 -21258986.702 7
  16867789.385   -30059899.612 6 -22112262.278 8
 94  2  9  3 41 29.9860000  0  8  9  5 24  2 13 12  7  4
  17270467.174   -26477093.963 6 -20394060.216 7
  19730495.197    -2133869.143 5  -1247508.393 3
  18389982.385   -13029270.316 6  -9902556.394 6
  18282741.033   -16649766.632 6 -12849696.790 6
  16262041.057   -39065459.945 7 -24047937.545 6
  18075564.815   -19661087.449 6 -11274289.573 6
  17715603.018   -27418292.319 6 -21248537.723 8
  16848178.760   -30162957.965 6 -22192567.483 8
 94  2  9  3 41 59.9860000  0  8  9  5 24  2 13 12  7  4
  17250677.393   -26581086.201 6 -20475093.135 7
  19705092.557    -2267346.755 4  -1351516.877 3
  18361408.486   -13179432.815 6 -10019566.116 6
  18283704.518   -16644702.372 6 -12845750.627 6
  16253178.315   -39112036.346 7 -24084230.843 6
  18050848.893   -19790963.968 6 -11375492.053 6
  17718179.549   -27404756.849 6 -21237990.607 7
  16828664.994   -30265504.209 7 -22272473.623 8
 94  2  9  3 42 29.9850000  0  8  9  5 24  2 13 12  7  4
  17230978.224   -26684605.360 6 -20555757.418 7
  19679683.536    -2400843.583 4  -1455540.373 4
  18332878.903   -13329328.995 5 -10136368.319 6
  18284713.302   -16639409.474 6 -12841626.303 6
  16244408.966   -39158115.875 7 -24120136.965 6
  18026184.599   -19920575.817 6 -11476488.286 6
  17720773.919   -27391112.797 6 -21227358.884 8
  16809243.747   -30367545.491 6 -22351986.297 7
 94  2  9  3 42 59.9850000  0  8  9  5 24  2 13 12  7  4
  17211372.739   -26787650.943 6 -20636052.677 7
  19654283.013    -2534364.530 4  -1559582.615 4
  18304409.138   -13478958.187 5 -10252962.493 6
  18285767.911   -16633855.101 6 -12837298.241 6
  16235733.474   -39203696.017 7 -24155653.958 6
  18001571.591   -20049921.856 6 -11577277.404 6
  17723391.177   -27377369.063 6 -21216649.475 8
  16789923.107   -30469076.842 6 -22431101.631 8
 94  2  9  3 43 29.9850000  0  8  9  5 24  2 13 12  7  4
  17191854.216   -26890220.025 6 -20715976.635 8
  19628869.810    -2667913.856 4  -1663646.961 4
  18275984.403   -13628350.236 6 -10369371.860 6
  18286871.380   -16628060.400 6 -12832782.896 6
  16227153.755   -39248790.499 7 -24190792.517 6
  17977008.974   -20179008.967 6 -11677864.763 6
  17726025.989   -27363523.368 6 -21205860.621 7
  16770702.708   -30570087.102 6 -22509810.917 8
 94  2  9  3 43 59.9850000  0  8  9  5 24  2 13 12  7  4
  17172427.294   -26992307.772 6 -20795525.530 8
  19603448.552    -2801480.491 4  -1767724.853 5
  18247594.052   -13777502.719 6 -10485594.561 6
  18288023.505   -16622017.106 6 -12828073.833 6
  16218666.177   -39293394.815 7 -24225549.119 6
  17952491.919   -20307828.281 6 -11778243.445 6
  17728684.653   -27349553.797 6 -21194975.242 8
  16751579.911   -30670576.215 6 -22588114.112 8
 94  2  9  3 44 29.9850000  0  8  9  5 24  2 13 12  7  4
  17153089.372   -27093916.141 6 -20874700.893 8
  19578026.833    -2935055.094 3  -1871808.949 4
  18219257.067   -13926414.009 6 -10601629.316 6
  18289218.442   -16615724.609 6 -12823170.609 6
  16210270.208   -39337511.938 7 -24259926.107 6
  17928031.403   -20436378.627 6 -11878412.560 6
  17731368.427   -27335462.094 6 -21183994.716 8
  16732556.208   -30770547.484 6 -22666013.813 8
 94  2  9  3 44 59.9850000  0  8  9  5 24  2 13 12  7  4
  17133847.435   -27195034.756 6 -20953494.609 8
  19552610.216    -3068622.175 3  -1975887.165 4
  18190971.036   -14075069.689 6 -10717464.884 6
  18290465.052   -16609177.630 6 -12818069.067 6
  16201969.958   -39381134.307 7 -24293917.548 6
  17903619.349   -20564648.109 6 -11978362.777 6
  17734075.458   -27321230.370 6 -21172905.052 8
  16713631.700   -30869998.727 7 -22743508.254 8
 94  2  9  3 45 29.9850000  0  8  9  5 24  2 13 12  7  4
  17114697.653   -27295663.148 6 -21031906.336 8
  19527202.544    -3202178.839 4  -2079957.295 4
  18162736.036   -14223471.615 6 -10833102.734 6
  18291756.325   -16602388.858 6 -12812779.145 6
  16193759.091   -39424265.760 7 -24327526.479 6
  17879264.388   -20692636.433 6 -12078093.951 6
  17736812.646   -27306849.068 6 -21161698.862 7
  16694807.005   -30968937.120 7 -22820603.102 8
 94  2  9  3 45 59.9850000  0  8  9  5 24  2 13 12  7  4
  17095635.724   -27395826.496 6 -21109955.694 8
  19501788.442    -3335746.007 4  -2184035.564 2
  18134543.450   -14371616.744 6 -10948540.482 6
  18293091.982   -16595367.859 6 -12807308.231 6
  16185643.497   -39466923.786 7 -24360766.485 6
  17854959.185   -20820356.932 6 -12177616.402 6
  17739570.067   -27292347.973 6 -21150399.303 7
  16676070.528   -31067378.638 7 -22897310.758 8
 94  2  9  3 46 29.9850000  0  8  9  5 24  2 13 12  7  4
  17076669.317   -27495499.786 6 -21187623.215 7
  19476366.044    -3469319.856 4  -2288119.092 4
  18106394.958   -14519514.542 6 -11063785.528 5
  18294473.966   -16588099.514 5 -12801644.618 5
  16177617.841   -39509102.058 7 -24393632.671 6
  17830712.427   -20947798.535 6 -12276921.563 6
  17742351.185   -27277725.485 6 -21139005.170 7
  16657437.638   -31165302.246 7 -22973614.885 7
 94  2  9  3 46 59.9850000  0  8  9  5 24  2 13 12  7  4
  17057798.208   -27594679.496 6 -21264906.112 7
  19450942.247    -3602913.107 3  -2392217.680 3
  18078305.528   -14667169.889 6 -11178841.640 5
  18295905.591   -16580578.243 5 -12795783.914 5
  16169681.411   -39550798.341 7 -24426123.285 6
  17806512.458   -21074955.074 6 -12376004.585 6
  17745159.622   -27262974.931 6 -21127511.242 7
  16638902.817   -31262697.736 7 -23049507.468 7
 94  2  9  3 47 29.9850000  0  8  9  5 24  2 13 12  7  4
  17039021.825   -27693360.837 6 -21341800.677 6
  19425512.669    -3736532.792 4  -2496336.917 2
  18050249.364   -14814577.012 6 -11293704.329 5
  18297383.997   -16572804.837 5 -12789726.756 5
  16161838.935   -39592014.037 7 -24458239.428 5
  17782370.239   -21201823.494 6 -12474863.086 6
  17747990.950   -27248097.113 6 -21115918.158 6
  16620471.419   -31359545.216 6 -23124973.044 6
 94  2  9  3 47 59.9850000  0  8  9  5 24  2 13 12  7  4
  17020337.763   -27791527.613 6 -21418294.255 7
  19400082.880    -3870184.853 5  -2600481.369 3
  18022244.427   -14961730.533 6 -11408369.392 5
  18298913.255   -16564772.944 5 -12783468.144 5
  16154090.739   -39632746.952 7 -24489979.340 6
  17758283.388   -21328397.190 6 -12573491.928 6
  17750848.669   -27233089.735 6 -21104224.090 6
  16602149.513   -31455831.102 6 -23200000.988 7
 94  2  9  3 48 29.9850000  0  8  9  5 24  2 13 12  7  4
  17001757.278   -27889175.228 6 -21494383.311 7
  19374642.896    -4003862.665 5  -2704645.844 2
  17994297.997   -15108623.986 6 -11522831.796 5
  18300490.130   -16556486.736 5 -12777011.378 5
  16146430.919   -39672993.659 7 -24521340.407 6
  17734254.614   -21454668.403 6 -12671885.078 6
  17753727.396   -27217952.317 6 -21092428.700 6
  16583936.489   -31551556.718 7 -23274592.357 7
 94  2  9  3 48 59.9850000  0  8  9  5 24  2 13 12  7  4
  16983273.200   -27986322.567 6 -21570082.564 7
  19349203.005    -4137574.046 5  -2808836.521 2
  17966393.528   -15255237.064 6 -11637075.770 5
  18302109.646   -16547976.639 5 -12770380.169 5
  16138861.646   -39712765.477 7 -24552331.476 6
  17710283.560   -21580644.098 6 -12770047.978 6
  17756632.349   -27202691.530 6 -21080537.203 6
  16565820.599   -31646735.348 6 -23348757.545 7
 94  2  9  3 49 29.9850000  0  8  9  5 24  2 13 12  7  4
  16964884.036   -28082959.637 6 -21645384.150 7
  19323753.896    -4271282.011 5  -2913024.515 3
  17938550.661   -15401544.434 6 -11751081.465 5
  18303776.060   -16539229.063 5 -12763563.864 5
  16131387.185   -39752051.268 7 -24582943.738 6
  17686370.396   -21706308.850 6 -12867968.524 6
  17759563.396   -27187286.294 6 -21068533.104 6
  16547817.122   -31741351.062 7 -23422484.035 7
 94  2  9  3 49 59.9850000  0  8  9  5 24  2 13 12  7  4
  16946582.817   -28179106.399 6 -21720303.714 7
  19298312.677    -4404984.564 5  -3017208.288 3
  17910772.622   -15547551.942 6 -11864853.545 5
  18305482.966   -16530259.606 5 -12756574.697 5
  16123998.942   -39790861.931 7 -24613185.815 6
  17662514.810   -21831668.898 6 -12965651.688 6
  17762519.372   -27171751.462 6 -21056428.050 7
  16529919.544   -31835423.165 6 -23495786.966 7
 94  2  9  3 50 29.9850000  0  8  9  5 24  2 13 12  7  4
  16928379.763   -28274780.429 6 -21794854.899 7
  19272871.435    -4538680.448 5  -3121386.883 2
  17883042.966   -15693253.720 6 -11978387.383 6
  18307226.919   -16521077.862 5 -12749420.104 5
  16116704.232   -39829201.594 7 -24643060.864 5
  17638720.575   -21956724.204 7 -13063097.361 6
  17765498.114   -27156096.890 6 -21044229.672 7
  16512116.653   -31928955.365 6 -23568669.192 7
 94  2  9  3 50 59.9850000  0  8  9  5 24  2 13 12  7  4
  16910260.700   -28369990.932 6 -21869044.925 7
  19247430.466    -4672385.905 5  -3225572.965 2
  17855372.013   -15838675.643 6 -12091703.175 5
  18309016.786   -16511687.344 5 -12742102.849 5
  16109495.169   -39867092.331 7 -24672586.140 5
  17614974.560   -22081492.174 7 -13160319.193 6
  17768494.903   -27140339.234 6 -21031951.012 6
  16494417.864   -32021968.729 6 -23641147.154 7
 94  2  9  3 51 29.9850000  0  8  9  5 24  2 13 12  7  4
  16892236.552   -28464703.237 6 -21942846.725 7
  19221984.099    -4806073.812 5  -3329745.340 5
  17827754.927   -15983799.877 6 -12204786.973 6
  18310850.099   -16502042.658 5 -12734587.549 5
  16102374.380   -39904507.744 7 -24701741.001 6
  17591293.513   -22205942.053 6 -13257293.124 7
  17771518.005   -27124459.399 6 -21019577.122 7
  16476824.466   -32114432.667 7 -23713196.967 8
 94  2  9  3 51 59.9850000  0  8  9  5 24  2 13 12  7  4
  16874315.552   -28558893.572 6 -22016241.770 7
  19196547.708    -4939761.889 5  -3433917.841 5
  17800193.067   -16128627.504 6 -12317639.639 6
  18312740.028   -16492133.868 5 -12726866.408 5
  16095347.427   -39941443.747 7 -24730522.276 6
  17567672.286   -22330065.206 7 -13354012.443 7
  17774559.935   -27108462.580 6 -21007112.051 7
  16459330.122   -32206351.571 6 -23784822.049 8
 94  2  9  3 52 29.9850000  0  8  9  5 24  2 13 12  7  4
  16856490.888   -28652552.246 6 -22089222.582 7
  19171102.208    -5073469.903 5  -3538105.927 1
  17772692.622   -16273164.504 6 -12430265.884 5
  18314674.271   -16481956.384 5 -12718935.952 5
  16088406.153   -39977913.303 7 -24758940.144 5
  17544111.357   -22453870.176 6 -13450483.878 6
  17777626.208   -27092358.803 6 -20994563.681 6
  16441943.599   -32297730.300 6 -23856026.277 7
 94  2  9  3 52 59.9850000  0  8  9  5 24  2 13 12  7  4
  16838773.083   -28745667.969 6 -22161780.270 7
  19145657.107    -5207203.193 5  -3642313.665 3
  17745240.044   -16417412.496 6 -12542666.881 6
  18316661.364   -16471504.027 5 -12710791.251 5
  16081555.200   -40013920.941 7 -24786998.011 6
  17520612.575   -22577357.093 6 -13546707.420 6
  17780710.528   -27076149.698 6 -20981933.194 6
  16424656.841   -32388574.856 6 -23926814.211 7
 94  2  9  3 53 29.9850000  0  8  9  5 24  2 13 12  7  4
  16821155.427   -28838245.417 6 -22233918.537 8
  19120205.278    -5340952.179 5  -3746533.640 5
  17717842.724   -16561357.359 6 -12654831.681 6
  18318703.005   -16460783.346 5 -12702437.471 5
  16074790.271   -40049468.235 7 -24814697.187 6
  17497178.325   -22700522.936 6 -13642680.787 7
  17783814.466   -27059843.787 6 -20969227.287 7
  16407471.771   -32478880.041 6 -23997181.858 8
 94  2  9  3 53 59.9850000  0  8  9  5 24  2 13 12  7  4
  16803640.966   -28930280.846 6 -22305634.487 8
  19094752.396    -5474709.802 5  -3850760.364 4
  17690517.966   -16704996.116 6 -12766758.002 6
  18320792.028   -16449805.448 5 -12693883.316 5
  16068111.661   -40084557.241 7 -24842039.298 6
  17473799.685   -22823365.254 6 -13738402.101 6
  17786934.888   -27043450.799 6 -20956453.566 6
  16390387.989   -32568647.350 6 -24067130.432 7
 94  2  9  3 54 29.9850000  0  8  9  5 24  2 13 12  7  4
  16786228.638   -29021780.496 6 -22376932.899 7
  19069301.982    -5608454.707 5  -3954977.159 5
  17663239.138   -16848313.378 6 -12878433.767 6
  18322930.771   -16438577.041 5 -12685133.904 5
  16061522.028   -40119187.646 7 -24869024.008 6
  17450488.888   -22945879.357 6 -13833867.616 6
  17790067.958   -27026976.741 6 -20943616.625 6
  16373414.747   -32657859.624 6 -24136646.484 7
 94  2  9  3 54 59.9850000  0  8  9  5 24  2 13 12  7  4
  16768919.403   -29112750.964 6 -22447818.993 8
  19043853.216    -5742177.863 5  -4059177.008 4
  17636029.755   -16991318.001 6 -12989865.938 6
  18325109.450   -16427109.668 5 -12676198.311 5
  16055019.919   -40153358.890 7 -24895650.958 6
  17427238.028   -23068059.909 6 -13929073.242 7
  17793218.841   -27010419.274 6 -20930714.707 7
  16356540.247   -32746520.087 6 -24205732.558 8
 94  2  9  3 55 29.9850000  0  8  9  5 24  2 13 12  7  4
  16751703.755   -29203207.865 6 -22518304.892 8
  19018405.864    -5875881.660 5  -4163361.761 4
  17608872.263   -17134023.206 6 -13101064.776 6
  18327336.497   -16415427.849 5 -12667095.609 5
  16048603.317   -40187085.535 7 -24921931.458 6
  17404050.255   -23189917.054 6 -14024026.859 7
  17796381.614   -26993791.624 6 -20917758.103 7
  16339776.099   -32834630.083 6 -24274389.680 8
 94  2  9  3 55 59.9850000  0  8  9  5 24  2 13 12  7  4
  16734597.067   -29293121.135 6 -22588367.183 8
  18992972.310    -6009547.280 5  -4267516.773 4
  17581782.614   -17276398.887 6 -13212006.852 6
  18329602.161   -16403508.654 5 -12657807.930 6
  16042274.239   -40220341.074 7 -24947844.859 6
  17380930.521   -23311419.701 7 -14118704.239 7
  17799569.489   -26977051.602 6 -20904713.930 7
  16323117.857   -32922148.803 6 -24342586.069 8
 94  2  9  3 56 29.9850000  0  8  9  5 24  2 13 12  7  4
  16717585.482   -29382511.819 6 -22658022.260 8
  18967543.005    -6143184.201 5  -4371649.397 4
  17554746.169   -17418453.951 6 -13322699.081 6
  18331918.724   -16391347.083 5 -12648331.398 6
  16036032.989   -40253135.675 7 -24973399.079 6
  17357874.935   -23432573.426 6 -14213109.722 7
  17802777.357   -26960190.272 6 -20891575.228 6
  16306576.630   -33009089.384 6 -24410331.955 8
 94  2  9  3 56 59.9850000  0  8  9  5 24  2 13 12  7  4
  16700671.232   -29471381.862 6 -22727271.638 8
  18942121.466    -6276789.506 5  -4475757.406 4
  17527778.536   -17560189.979 6 -13433142.727 6
  18334279.857   -16378937.802 5 -12638661.842 5
  16029879.958   -40285472.585 7 -24998596.671 6
  17334884.653   -23553376.985 7 -14307242.382 7
  17806010.669   -26943198.557 6 -20878334.946 6
  16290141.458   -33095453.123 6 -24477628.371 8
 94  2  9  3 57 29.9840000  0  8  9  5 24  2 13 12  7  4
  16683858.672   -29559742.265 6 -22796123.901 8
  18916698.156    -6410365.230 5  -4579842.380 4
  17500864.844   -17701591.077 6 -13543325.394 6
  18336687.203   -16366275.206 5 -12628794.919 5
  16023810.899   -40317362.350 7 -25023445.835 6
  17311963.883   -23673833.227 7 -14401104.386 7
  17809265.867   -26926094.838 6 -20865007.374 6
  16273817.461   -33181234.375 6 -24544470.894 8
 94  2  9  3 57 59.9840000  0  8  9  5 24  2 13 12  7  4
  16667139.984   -29647601.313 6 -22864585.509 8
  18891291.328    -6543924.270 5  -4683914.349 5
  17474021.758   -17842662.195 6 -13653250.955 6
  18339146.977   -16353345.555 5 -12618719.917 5
  16017826.484   -40348808.655 7 -25047949.464 6
  17289105.219   -23793947.245 7 -14494699.747 7
  17812543.563   -26908869.754 6 -20851585.249 6
  16257603.836   -33266449.431 6 -24610872.247 8
 94  2  9  3 58 29.9840000  0  8  9  5 24  2 13 12  7  4
  16650516.164   -29734939.194 6 -22932641.009 8
  18865875.805    -6677463.382 5  -4787970.777 5
  17447244.899   -17983398.764 6 -13762915.792 6
  18341659.711   -16340144.659 5 -12608433.527 5
  16011927.953   -40379804.372 7 -25072101.968 6
  17266317.649   -23913704.277 7 -14588016.911 7
  17815846.531   -26891524.420 6 -20838069.425 6
  16241495.992   -33351095.458 6 -24676830.173 8
 94  2  9  3 58 59.9840000  0  8  9  5 24  2 13 12  7  4
  16633998.711   -29821753.155 6 -23000288.252 8
  18840464.133    -6811001.125 5  -4892026.150 5
  17420521.742   -18123803.836 6 -13872322.329 6
  18344219.500   -16326706.031 5 -12597961.893 5
  16006113.984   -40410364.500 7 -25095915.066 6
  17243596.484   -24033114.660 7 -14681063.974 7
  17819163.531   -26874081.667 6 -20824477.664 6
  16225497.695   -33435170.701 7 -24742343.347 8
 94  2  9  3 59 29.9840000  0  8  9  5 24  2 13 12  7  4
  16617583.109   -29908034.536 6 -23067520.477 8
  18815047.399    -6944549.453 5  -4996089.758 5
  17393868.594   -18263879.411 6 -13981472.106 7
  18346815.125   -16313042.216 5 -12587314.785 5
  16000382.242   -40440490.330 7 -25119389.721 6
  17220935.906   -24152175.212 6 -14773838.419 7
  17822498.055   -26856555.594 6 -20810820.972 6
  16209602.352   -33518680.537 6 -24807415.927 8
 94  2  9  3 59 59.9840000  0  8  9  5 24  2 13 12  7  4
  16601266.109   -29993775.445 6 -23134331.592 8
  18789630.375    -7078115.065 5  -5100166.869 5
  17367271.727   -18403641.441 6 -14090377.585 6
  18349456.961   -16299175.656 5 -12576509.705 5
  15994730.344   -40470189.238 7 -25142531.730 6
  17198345.742   -24270888.798 6 -14866342.511 7
  17825850.359   -26838945.514 6 -20797098.849 6
  16193815.024   -33601644.248 7 -24872062.977 8
 94  2  9  4  0 29.9840000  0  8  9  5 24  2 13 12  7  4
  16585055.961   -30078953.712 6 -23200704.274 8
  18764219.086    -7211673.709 5  -5204238.542 5
  17340739.555   -18543078.132 6 -14199029.534 6
  18352138.016   -16285091.685 5 -12565535.199 5
  15989163.055   -40499448.424 7 -25165331.097 6
  17175827.906   -24389237.550 7 -14958562.322 7
  17829214.422   -26821254.274 6 -20783313.474 6
  16178139.024   -33684035.174 7 -24936263.684 8
 94  2  9  4  0 59.9840000  0  8  9  5 24  2 13 12  7  4
  16568948.367   -30163592.111 6 -23266656.263 8
  18738803.383    -7345217.063 5  -5308298.276 5
  17314265.438   -18682195.954 6 -14307433.009 6
  18354861.000   -16270795.378 5 -12554395.240 5
  15983675.227   -40528286.548 7 -25187802.352 6
  17153372.742   -24507235.800 6 -15050508.992 7
  17832596.047   -26803506.345 6 -20769483.903 6
  16162565.289   -33765870.367 7 -25000031.355 8
 94  2  9  4  1 29.9840000  0  8  9  5 24  2 13 12  7  4
  16552946.969   -30247678.398 6 -23332178.056 8
  18713399.438    -7478719.403 5  -5412326.084 5
  17287860.133   -18820981.868 6 -14415577.866 6
  18357624.852   -16256252.511 5 -12543063.153 5
  15978268.453   -40556689.428 7 -25209934.475 6
  17130987.274   -24624864.711 6 -15142167.887 7
  17835986.500   -26785676.569 6 -20755590.592 6
  16147099.500   -33847136.395 7 -25063355.521 8
 94  2  9  4  1 59.9840000  0  8  9  5 24  2 13 12  7  4
  16537051.320   -30331218.253 6 -23397274.053 8
  18687998.961    -7612186.737 5  -5516326.611 5
  17261510.406   -18959431.699 6 -14523460.853 6
  18360440.992   -16241447.076 5 -12531526.460 5
  15972945.945   -40584665.799 7 -25231734.240 6
  17108672.852   -24742128.220 6 -15233542.042 7
  17839396.867   -26767752.777 6 -20741624.001 6
  16131747.906   -33927825.522 7 -25126230.162 8
 94  2  9  4  2 29.9840000  0  8  9  5 24  2 13 12  7  4
  16521261.039   -30414210.952 6 -23461943.690 8
  18662610.774    -7745618.037 5  -5620299.052 5
  17235229.266   -19097521.781 6 -14631063.524 6
  18363315.406   -16226367.554 5 -12519776.204 5
  15967704.406   -40612214.682 7 -25253200.910 6
  17086425.500   -24859020.590 6 -15324627.008 7
  17842821.250   -26749740.009 6 -20727588.078 6
  16116503.258   -34007914.205 7 -25188636.920 8
 94  2  9  4  2 59.9840000  0  8  9  5 24  2 13 12  7  4
  16505573.500   -30496648.689 6 -23526180.892 8
  18637223.680    -7879014.505 5  -5724244.338 5
  17209026.664   -19235227.450 6 -14738366.645 6
  18366234.672   -16211006.728 5 -12507806.739 4
  15962543.016   -40639328.873 7 -25274328.846 6
  17064259.367   -24975530.282 7 -15415413.776 7
  17846273.297   -26731619.616 6 -20713468.295 6
  16101381.219   -34087396.298 7 -25250571.013 8
 94  2  9  4  3 29.9840000  0  8  9  5 24  2 13 12  7  4
  16489985.156   -30578544.112 6 -23589995.507 8
  18611848.063    -8012399.800 5  -5828180.932 5
  17182899.320   -19372548.000 6 -14845369.660 6
  18369211.524   -16195367.585 5 -12495620.433 5
  15957467.461   -40666017.497 7 -25295125.181 6
  17042157.555   -25091661.601 7 -15505905.711 7
  17849738.203   -26713397.580 6 -20699269.313 6
  16086369.211   -34166279.984 7 -25312038.823 8
 94  2  9  4  3 59.9840000  0  8  9  5 24  2 13 12  7  4
  16474509.570   -30659897.838 6 -23653388.022 8
  18586463.867    -8145775.807 5  -5932110.290 5
  17156838.766   -19509480.500 6 -14952070.285 7
  18372241.531   -16179450.393 5 -12483217.457 5
  15952465.063   -40692283.181 7 -25315591.945 6
  17020131.516   -25207412.318 7 -15596101.078 7
  17853223.570   -26695089.973 6 -20685003.646 6
  16071471.539   -34244571.059 7 -25373044.852 8
 94  2  9  4  4 29.9840000  0  8  9  5 24  2 13 12  7  4
  16459128.258   -30740715.413 6 -23716362.768 7
  18561086.945    -8279132.592 5  -6036024.673 5
  17130844.359   -19646048.286 6 -15058486.734 6
  18375319.055   -16163279.454 5 -12470616.771 4
  15947548.266   -40718134.897 7 -25335736.156 6
  16998176.344   -25322787.086 7 -15686003.509 6
  17856716.500   -26676720.443 6 -20670689.748 6
  16056681.516   -34322288.765 7 -25433604.106 8
 94  2  9  4  4 59.9840000  0  8  9  5 24  2 13 12  7  4
  16443851.391   -30820998.335 6 -23778920.894 8
  18535713.524    -8412466.636 5  -6139921.323 5
  17104924.344   -19782265.059 6 -15164629.662 6
  18378445.766   -16146839.559 5 -12457806.492 5
  15942707.711   -40743565.349 7 -25355552.078 6
  16976296.977   -25437773.391 7 -15775603.223 7
  17860228.649   -26658276.870 6 -20656318.135 6
  16042000.109   -34399439.332 7 -25493721.423 8
 94  2  9  4  5 29.9840000  0  8  9  5 24  2 13 12  7  4
  16428673.422   -30900746.201 6 -23841062.088 8
  18510344.633    -8545784.367 5  -6243805.269 5
  17079075.844   -19918151.228 6 -15270514.980 6
  18381628.227   -16130137.089 5 -12444791.590 5
  15937948.164   -40768581.855 7 -25375045.463 6
  16954489.195   -25552374.454 7 -15864902.761 7
  17863753.984   -26639765.886 6 -20641893.993 6
  16027428.508   -34476024.071 7 -25553397.838 8
 94  2  9  4  5 59.9840000  0  8  9  5 24  2 13 12  7  4
  16413603.219   -30979948.719 6 -23902778.340 8
  18484980.039    -8679084.173 5  -6347675.235 5
  17053276.813   -20053720.738 6 -15376153.548 7
  18384848.508   -16113193.675 5 -12431588.948 5
  15933261.500   -40793192.612 6 -25394222.681 6
  16932752.695   -25666593.380 7 -15953904.512 7
  17867287.625   -26621189.928 6 -20627419.223 6
  16012961.750   -34552044.166 7 -25612634.259 8
 94  2  9  4  6 29.9840000  0  8  9  5 24  2 13 12  7  4
  16398636.445   -31058596.113 6 -23964062.032 8
  18459617.070    -8812366.405 5  -6451531.523 5
  17027539.016   -20188965.904 6 -15481539.371 7
  18388116.305   -16096022.040 5 -12418208.467 5
  15928660.149   -40817393.770 7 -25413080.728 6
  16911090.555   -25780421.749 7 -16042601.941 7
  17870838.024   -26602541.828 6 -20612888.237 6
  15998603.008   -34627502.754 7 -25671433.160 8
 94  2  9  4  6 59.9840000  0  8  9  5 24  2 13 12  7  4
  16383777.024   -31136686.781 6 -24024911.895 8
  18434250.274    -8945643.214 5  -6555383.576 5
  17001867.984   -20323863.764 6 -15586654.575 6
  18391428.758   -16078623.340 5 -12404651.063 4
  15924131.594   -40841184.069 7 -25431618.633 6
  16889505.703   -25893853.717 7 -16130990.503 7
  17874402.867   -26583810.112 6 -20598292.099 6
  15984351.461   -34702397.307 7 -25729792.548 8
 94  2  9  4  7 29.9840000  0  8  9  5 24  2 13 12  7  4
  16369022.969   -31214198.947 6 -24085310.994 8
  18408896.016    -9078895.433 5  -6659216.478 5
  16976263.820   -20458397.180 6 -15691485.792 7
  18394774.891   -16061017.634 5 -12390932.364 5
  15919682.578   -40864570.956 7 -25449842.181 6
  16867996.219   -26006891.654 7 -16219071.999 7
  17877980.000   -26565005.036 6 -20583638.791 6
  15970205.383   -34776737.234 7 -25787719.756 9
 94  2  9  4  7 59.9840000  0  8  9  5 24  2 13 12  7  4
  16354384.555   -31291136.426 6 -24145262.290 8
  18383541.664    -9212117.581 5  -6763025.947 5
  16950734.836   -20592553.158 6 -15796022.888 7
  18398166.258   -16043216.024 5 -12377061.001 5
  15915305.422   -40887559.554 7 -25467755.381 6
  16846562.992   -26119536.437 7 -16306847.161 7
  17881570.070   -26546136.628 6 -20568936.144 6
  15956162.399   -34850525.738 7 -25845217.291 9
 94  2  9  4  8 29.9840000  0  8  9  5 24  2 13 12  7  4
  16339851.891   -31367510.926 6 -24204774.895 8
  18358196.555    -9345319.640 5  -6866819.752 5
  16925274.633   -20726330.165 6 -15900264.702 7
  18401590.453   -16025213.615 5 -12363033.159 5
  15911006.680   -40910156.923 7 -25485363.732 6
  16825201.383   -26231790.083 7 -16394317.538 7
  17885171.984   -26527208.528 6 -20554186.988 6
  15942226.664   -34923758.612 7 -25902281.851 8
 94  2  9  4  8 59.9840000  0  8  9  5 24  2 13 12  7  4
  16325424.461   -31443331.370 6 -24263855.763 8
  18332855.375    -9478496.560 5
  16899892.336   -20859719.938 6
  18405059.266   -16006989.914 5 -12348832.912 5
  15906781.500   -40932366.870 7 -25502670.181 6
  16803911.805   -26343651.987 7 -16481482.676 7
  17888785.539   -26508221.882 6 -20539392.212 6
  15928401.203   -34996416.898 6 -25958898.694 8
 94  2  9  4  9 29.9840000  0  8  9  5 24  2 13 12  7  4
  16311100.109   -31518595.523 6 -24322503.165 8
  18307522.359    -9611623.918 5  -7074329.542 5
  16874589.453   -20992712.119 6 -16107835.041 7
  18408576.875   -15988513.334 5 -12334435.595 5
  15902629.992   -40954176.915 7 -25519665.026 6
  16782705.336   -26455104.602 7 -16568328.850 7
  17892410.094   -26489169.243 6 -20524546.011 6
  15914689.149   -35068471.508 6 -26015045.138 8
 94  2  9  4  9 59.9840000  0  8  9  5 24  2 13 12  7  4
  16296880.602   -31593324.939 6 -24380733.876 8
  18282193.524    -9744723.181 5  -7178043.243 5
  16849354.164   -21125320.139 6 -16211165.969 7
  18412140.719   -15969779.705 5 -12319837.983 5
  15898551.977   -40975595.128 7 -25536354.539 6
  16761575.774   -26566151.591 7 -16654858.977 8
  17896050.016   -26470054.475 6 -20509651.398 6
  15901092.789   -35139914.497 7 -26070714.986 8
 94  2  9  4 10 29.9840000  0  8  9  5 24  2 13 12  7  4
  16282764.125   -31667513.595 6 -24438543.229 8
  18256869.836    -9877791.558 5  -7281732.872 5
  16824192.531   -21257538.918 6 -16314193.578 7
  18415756.008   -15950773.896 5
  15894553.031   -40996618.110 7 -25552736.082 6
  16740521.188   -26676784.739 7 -16741066.622 8
  17899699.539   -26450866.837 6
  15887611.391   -35210756.065 6 -26125916.200 8
 94  2  9  4 10 59.9840000  0  8  9  5 24  2 13 12  7  4
  16268747.375   -31741169.559 6 -24495937.490 8
  18231555.938   -10010828.818 5  -7385398.256 5
  16799108.188   -21389372.850 6 -16416921.311 7
  18419424.945   -15931509.119 5
  15890626.430   -41017259.546 7 -25568820.312 6
  16719544.531   -26787012.974 7 -16826958.754 8
  17903363.281   -26431619.585 6
  15874241.227   -35281012.443 6 -26180661.433 8
 94  2  9  4 11 29.9840000  0  8  9  5 24  2 13 12  7  4
  16254833.727   -31814280.218 6 -24552906.848 8
  18206244.688   -10143842.125 5  -7489044.971 5
  16774092.563   -21520837.410 6 -16519361.223 7
  18423131.039   -15912000.452 5 -12274815.290 4
  15886768.125   -41037530.514 7 -25584615.869 6
  16698645.414   -26896842.844 7 -16912540.472 8
  17907038.641   -26412309.759 6 -20464655.521 6
  15860982.641   -35350699.568 7 -26234963.082 8
 94  2  9  4 11 59.9830000  0  8  9  5 24  2 13 12  7  4
  16241032.808   -31886799.082 6 -24609415.056 8
  18180940.573   -10276814.355 5  -7592659.706 5
  16749148.378   -21651898.085 6 -16621486.417 7
  18426894.183   -15892231.911 5 -12259411.285 4
  15882985.769   -41057411.259 7 -25600107.362 7
  16677824.956   -27006246.820 7 -16997790.318 8
  17910728.941   -26392911.285 6 -20449539.836 6
  15847835.464   -35419795.790 7 -26288804.282 8
 94  2  9  4 12 29.9830000  0  8  9  5 24  2 13 12  7  4
  16227344.112   -31958735.104 6 -24665469.103 8
  18155644.941   -10409748.319 5  -7696244.604 5
  16724285.761   -21782557.232 6 -16723298.721 7
  18430708.222   -15872207.197 5 -12243807.638 4
  15879276.120   -41076905.549 7 -25615297.720 6
  16657085.370   -27115229.792 7 -17082712.122 8
  17914439.722   -26373420.185 6 -20434351.964 6
  15834797.175   -35488309.256 6 -26342191.398 8
 94  2  9  4 12 59.9830000  0  8  9  5 24  2 13 12  7  4
  16213764.566   -32030090.008 6 -24721070.332 8
  18130356.448   -10542632.950 5  -7799791.046 5
  16699501.901   -21912815.307 6 -16824798.519 7
  18434567.058   -15851932.600 5 -12228009.266 4
  15875640.128   -41096014.083 7 -25630187.485 6
  16636429.550   -27223784.884 7 -17167300.509 8
  17918162.003   -26353840.148 6 -20419094.795 6
  15821873.378   -35556221.445 7 -26395109.982 8
 94  2  9  4 13 29.9830000  0  8  9  5 24  2 13 12  7  4
  16200299.847   -32100863.653 6 -24776218.644 8
  18105074.808   -10675477.320 5  -7903306.130 5
  16674792.144   -22042669.841 6 -16925983.849 7
  18438466.901   -15831420.411 5 -12212025.769 4
  15872077.401   -41114737.652 7 -25644777.274 7
  16615854.925   -27331908.225 7 -17251552.469 7
  17921900.245   -26334187.803 6 -20403781.285 6
  15809061.097   -35623540.617 6 -26447566.477 8
 94  2  9  4 13 59.9830000  0  8  9  5 24  2 13 12  7  4
  16186939.526   -32171071.676 6 -24830926.197 8
  18079808.816   -10808281.824 6  -8006790.153 5
  16650155.980   -22172120.039 6 -17026854.130 7
  18442413.105   -15810692.489 5 -12195874.162 4
  15868586.722   -41133078.759 7 -25659069.059 7
  16595361.409   -27439597.663 7 -17335466.312 7
  17925649.487   -26314489.044 6 -20388431.621 6
  15796364.230   -35690276.400 6 -26499568.380 8
 94  2  9  4 14 29.9830000  0  8  9  5 24  2 13 12  7  4
  16173684.620   -32240724.423 6 -24885201.067 8
  18054542.472   -10941046.924 5  -8110243.462 5
  16625596.042   -22301177.960 6 -17127418.725 7
  18446396.730   -15789768.348 5 -12179569.660 5
  15865165.394   -41151049.074 7 -25673071.898 6
  16574950.511   -27546860.139 7 -17419047.470 7
  17929408.878   -26294755.671 6 -20373054.980 6
  15783773.019   -35756447.814 7 -26551130.528 8
 94  2  9  4 14 59.9830000  0  8  9  5 24  2 13 12  7  4
  16160538.386   -32309808.010 6 -24939032.432 8
  18029282.284   -11073781.246 5  -8213672.812 6
  16601118.019   -22429834.987 6 -17227670.945 7
  18450418.167   -15768639.409 5 -12163105.574 4
  15861819.409   -41168650.397 7 -25686787.220 6
  16554619.823   -27653692.454 7 -17502293.438 7
  17933167.566   -26274990.750 6 -20357653.757 6
  15771286.105   -35822049.985 7 -26602249.096 8
 94  2  9  4 15 29.9830000  0  8  9  5 24  2 13 12  7  4
  16147499.730   -32378323.497 6 -24992421.133 8
  18004025.183   -11206503.587 5  -8317092.800 6
  16576712.019   -22558090.718 6 -17327610.475 7
  18454475.480   -15747309.184 5 -12146484.666 4
  15858534.941   -41185896.674 7 -25700225.882 6
  16534372.878   -27760104.380 7 -17585211.825 7
  17936935.105   -26255200.598 6 -20342232.865 6
  15758909.839   -35887084.504 7 -26652925.334 8
 94  2  9  4 15 59.9830000  0  8  9  5 24  2 13 12  7  4
  16134574.816   -32446256.438 6 -25045355.895 8
  17978776.495   -11339188.797 5  -8420483.880 6
  16552379.331   -22685939.858 6 -17427233.177 7
  18458578.441   -15725743.298 5 -12129680.110 4
  15855323.480   -41202782.379 7 -25713383.576 6
  16514204.105   -27866085.408 7 -17667794.450 7
  17940708.511   -26235360.752 6 -20326773.250 6
  15746648.112   -35951526.749 7 -26703140.066 8
 94  2  9  4 16 29.9830000  0  8  9  5 24  2 13 12  7  4
  16121756.816   -32513604.004 6 -25097834.532 8
  17953537.300   -11471821.710 5  -8523834.215 6
  16528132.980   -22813377.394 6 -17526535.142 7
  18462735.683   -15703904.350 5 -12112662.779 5
  15852177.855   -41219307.996 7 -25726260.675 6
  16494118.276   -27971631.492 7 -17750038.152 7
  17944496.261   -26215453.686 6 -20311261.260 6
  15734500.464   -36015364.111 7 -26752883.462 8
 94  2  9  4 16 59.9830000  0  8  9  5 24  2 13 12  7  4
  16109051.370   -32580374.272 6 -25149863.316 8
  17928313.167   -11604381.129 5  -8627127.259 5
  16503961.659   -22940397.648 6 -17625511.957 7
  18466942.722   -15681784.736 5 -12095426.733 4
  15849101.597   -41235468.782 7 -25738853.500 6
  16474119.034   -28076733.193 7 -17831935.582 7
  17948296.909   -26195481.216 6 -20295698.301 5
  15722471.011   -36078583.076 7 -26802144.993 8
 94  2  9  4 17 29.9830000  0  8  9  5 24  2 13 12  7  4
  16096453.714   -32646583.655 6 -25201455.052 8
  17903104.112   -11736838.150 5  -8730340.527 5
  16479863.511   -23067011.630 6 -17724172.184 7
  18471206.542   -15659390.774 5 -12077976.923 5
  15846096.800   -41251266.242 7 -25751163.207 6
  16454201.956   -28181387.334 7 -17913484.267 7
  17952108.347   -26175450.149 6 -20280089.671 6
  15710558.425   -36141196.277 7 -26850934.497 8
 94  2  9  4 17 59.9830000  0  8  9  5 24  2 13 12  7  4
  16083955.480   -32712257.077 6 -25252629.165 7
  17877918.464   -11869193.585 5  -8833474.637 5
  16455849.394   -23193233.793 6 -17822527.108 6
  18475515.800   -15636740.024 5 -12060327.008 4
  15843157.636   -41266714.797 7 -25763201.050 6
  16434372.105   -28285603.699 7 -17994691.834 7
  17955927.120   -26155380.305 6 -20264450.842 6
  15698747.941   -36203239.499 7 -26899279.863 7
 94  2  9  4 18 29.9830000  0  8  9  5 24  2 13 12  7  4
  16071558.933   -32777403.331 6 -25303392.488 7
  17852750.019   -12001471.976 6  -8936548.714 6
  16431903.034   -23319055.182 6 -17920569.748 7
  18479864.792   -15613865.333 5 -12042502.609 3
  15840280.503   -41281823.262 7 -25774973.889 6
  16414623.089   -28389386.322 6 -18075561.418 7
  17959751.800   -26135282.618 6 -20248790.316 6
  15687045.651   -36264734.000 7 -26947197.661 8
 94  2  9  4 18 59.9830000  0  8  9  5 24  2 13 12  7  4
  16059264.917   -32841982.526 6 -25353713.951 7
  17827590.831   -12133666.113 6  -9039557.122 5
  16408041.230   -23444436.689 6 -18018269.619 6
  18484261.691   -15590752.373 4 -12024492.556 4
  15837474.503   -41296560.096 7 -25786457.130 6
  16394963.870   -28492699.236 6 -18156064.982 7
  17963588.323   -26115129.117 6 -20233086.288 5
  15675455.894   -36325648.266 7 -26994663.323 7
 94  2  9  4 19 29.9830000  0  8  9  5 24  2 13 12  7  4
  16047086.331   -32905999.190 6 -25403597.071 7
  17802446.136   -12265818.788 6  -9142533.215 5
  16384267.823   -23569385.951 6 -18115632.673 7
  18488704.605   -15567407.798 4 -12006302.021 3
  15834738.112   -41310946.842 7 -25797667.582 6
  16375390.722   -28595559.354 7 -18236215.720 7
  17967430.581   -26094927.258 6 -20217344.574 5
  15663971.620   -36385993.508 7 -27041685.590 7
 94  2  9  4 19 59.9830000  0  8  9  5 24  2 13 12  7  4
  16035011.534   -32969440.971 6 -25453032.237 8
  17777299.183   -12397967.001 6  -9245505.845 5
  16360568.823   -23693901.313 6 -18212657.629 7
  18493188.964   -15543840.719 4 -11987938.078 5
  15832066.401   -41324992.071 7 -25808611.921 6
  16355900.550   -28697970.499 7 -18316016.621 7
  17971284.050   -26074680.634 6 -20201567.996 5
  15652599.292   -36445758.993 7 -27088256.095 7
 94  2  9  4 20 29.9830000  0  8  9  5 24  2 13 12  7  4
  16023052.167   -33032294.171 6 -25502008.756 7
  17752151.292   -12530119.222 6  -9348481.597 5
  16336955.464   -23817979.241 6 -18309341.715 7
  18497716.589   -15520046.304 3 -11969397.017 3
  15829459.003   -41338691.398 7 -25819286.723 6
  16336501.112   -28799923.625 7 -18395460.619 8
  17975148.448   -26054377.153 6 -20185747.106 5
  15641341.737   -36504920.882 7 -27134356.259 7
 94  2  9  4 20 59.9830000  0  8  9  5 24  2 13 12  7  4
  16011206.573   -33094558.125 6 -25550526.138 7
  17727001.894   -12662265.436 5  -9451452.670 5
  16313431.917   -23941632.238 6 -18405694.681 7
  18502293.034   -15496014.574 4 -11950671.040 3
  15826916.925   -41352048.481 7 -25829694.844 6
  16317186.347   -28901417.810 7 -18474546.996 7
  17979021.667   -26034015.607 6 -20169880.986 5
  15630197.206   -36563471.400 7 -27179980.042 7
 94  2  9  4 21 29.9830000  0  8  9  5 24  2 13 12  7  4
  15999466.566   -33156234.964 6 -25598586.024 8
  17701860.862   -12794394.544 6  -9554410.402 5
  16289971.183   -24064859.503 6 -18501715.916 7
  18506913.659   -15471754.748 5 -11931767.312 3
  15824438.050   -41365070.472 7 -25839841.854 6
  16297961.933   -29002455.719 7 -18553277.830 8
  17982906.487   -26013605.994 5 -20153977.386 5
  15619172.261   -36621415.914 7 -27225131.605 8
 94  2  9  4 21 59.9830000  0  8  9  5 24  2 13 12  7  4
  15987844.909   -33217319.835 6 -25646184.627 8
  17676723.276   -12926489.864 5  -9657341.828 6
  16266603.980   -24187663.674 6 -18597407.474 7
  18511562.745   -15447269.879 4 -11912688.217 3
  15822026.011   -41377754.205 7 -25849725.276 6
  16278820.933   -29103029.381 7 -18631646.922 8
  17986794.956   -25993155.904 5 -20138042.272 5
  15608256.073   -36678773.112 7 -27269825.525 7
 94  2  9  4 22 29.9830000  0  8  9  5 24  2 13 12  7  4
  15976328.362   -33277824.193 6 -25693330.866 8
  17651598.683   -13058525.003 5  -9760226.324 6
  16243320.667   -24310055.339 6 -18692777.580 7
  18516274.034   -15422556.122 5 -11893430.778 4
  15819675.323   -41390112.073 7 -25859354.781 6
  16259771.167   -29203146.991 7 -18709660.633 8
  17990697.784   -25972678.913 6 -20122086.186 5
  15597448.800   -36735574.260 7 -27314086.140 8
 94  2  9  4 22 59.9830000  0  8  9  5 24  2 13 12  7  4
  15964931.136   -33337729.576 6 -25740010.393 8
  17626488.425   -13190449.658 5  -9863024.769 6
  16220110.761   -24432012.238 6 -18787808.928 7
  18521026.683   -15397590.945 5 -11873977.424 4
  15817388.136   -41402125.951 7 -25868716.255 7
  16240809.089   -29302785.372 7 -18787300.940 7
  17994599.566   -25952162.777 5 -20106099.599 5
  15586750.284   -36791802.143 7 -27357900.073 8
 94  2  9  4 23 29.9830000  0  8  9  5 24  2 13 12  7  4
  15953639.628   -33397070.594 6 -25786250.166 7
  17601413.456   -13322279.653 5  -9965749.452 6
  16196979.714   -24553565.101 6 -18882525.447 7
  18525813.136   -15372405.948 5 -11854352.799 2
  15815160.651   -41413831.482 7 -25877837.452 6
  16221933.839   -29401976.060 7 -18864592.395 7
  17998501.026   -25931651.347 5 -20090116.683 5
  15576152.433   -36847488.658 7 -27401292.168 7
 94  2  9  4 23 59.9830000  0  8  9  5 24  2 13 12  7  4
  15942455.331   -33455833.206 6 -25832039.211 8
  17576343.511   -13453975.264 5 -10068369.405 6
  16173928.941   -24674698.303 6 -18976914.933 7
  18530656.401   -15346974.561 5 -11834536.159 3
  15812995.136   -41425211.338 7 -25886704.870 6
  16203146.058   -29500696.828 7 -18941517.670 7
  18002412.808   -25911113.881 5 -20074113.461 6
  15565662.784   -36902622.129 7 -27444253.310 8
 94  2  9  4 24 29.9830000  0  8  9  5 24  2 13 12  7  4
  15931384.519   -33514032.429 6 -25877389.267 8
  17551309.175   -13585539.634 5 -10170887.121 6
  16150951.995   -24795401.145 6 -19070969.104 7
  18535535.753   -15321311.692 4 -11814539.152 4
  15810891.112   -41436269.782 7 -25895321.846 7
  16184452.050   -29598947.378 7 -19018076.561 7
  18006325.566   -25890538.966 6 -20058081.069 6
  15555279.855   -36957169.003 7 -27486757.364 8
 94  2  9  4 24 59.9830000  0  8  9  5 24  2 13 12  7  4
  15920411.417   -33571671.972 6 -25922303.203 7
  17526293.386   -13716998.802 5 -10273322.828 5
  16128075.628   -24915653.357 6 -19164672.119 7
  18540466.073   -15295429.028 4 -11794370.871 4
  15808848.886   -41447004.874 7 -25903686.852 6
  16165844.784   -29696721.531 7 -19094264.200 7
  18010247.901   -25869916.576 6 -20042011.682 5
  15545016.308   -37011102.603 7 -27528783.549 7
 94  2  9  4 25 29.9830000  0  8  9  5 24  2 13 12  7  4
  15909546.745   -33628767.863 6 -25966793.512 7
  17501289.956   -13848399.245 5 -10375712.796 5
  16105281.675   -25035462.240 6 -19258029.687 7
  18545425.253   -15269345.243 4 -11774045.898 2
  15806863.441   -41457433.861 7 -25911813.342 6
  16147327.347   -29794031.798 7 -19170090.382 7
  18014182.316   -25849256.057 6 -20025912.576 5
  15534865.245   -37064448.332 7 -27570351.646 7
 94  2  9  4 25 59.9830000  0  8  9  5 24  2 13 12  7  4
  15898784.605   -33685328.690 6 -26010866.886 8
  17476287.292   -13979778.430 5 -10478086.186 6
  16082564.370   -25154828.996 6 -19351042.737 7
  18550429.862   -15243067.757 4 -11753569.957 3
  15804935.987   -41467556.721 7 -25919701.283 7
  16128900.566   -29890873.717 7 -19245551.621 7
  18018123.448   -25828553.502 6 -20009780.722 6
  15524826.706   -37117199.757 7 -27611456.647 8
 94  2  9  4 26 29.9830000  0  8  9  5 24  2 13 12  7  4
  15888126.698   -33741341.735 6 -26054513.413 8
  17451293.105   -14111146.010 6 -10580450.527 6
  16059940.066   -25273743.599 6 -19443703.460 7
  18555460.933   -15216589.151 3 -11732937.316 3
  15803070.948   -41477364.321 7 -25927343.561 6
  16110563.472   -29987233.686 7 -19320637.297 7
  18022067.417   -25807809.400 6 -19993616.473 6
  15514908.753   -37169331.966 7 -27652079.141 8
 94  2  9  4 26 59.9820000  0  8  9  5 24  2 13 12  7  4
  15877574.834   -33796797.728 6 -26097725.896 8
  17426296.061   -14242494.513 5 -10682800.029 6
  16037390.506   -25392219.306 6 -19536022.194 7
  18560553.990   -15189894.207 4 -11712136.097 4
  15801260.959   -41486866.581 7 -25934747.931 6
  16092317.381   -30083114.197 7 -19395349.400 7
  18026017.014   -25787039.840 5 -19977432.417 6
  15505098.943   -37220886.372 7 -27692251.411 7
 94  2  9  4 27 29.9820000  0  8  9  5 24  2 13 12  7  4
  15867128.889   -33851688.166 6 -26140497.659 7
  17401303.436   -14373820.008 6 -10785131.578 5
  16014928.162   -25510266.862 6 -19628007.291 7
  18565663.834   -15162972.756 3 -11691158.378 3
  15799513.225   -41496061.210 7 -25941912.581 6
  16074162.967   -30178514.242 6 -19469687.104 7
  18029981.975   -25766246.373 6 -19961229.727 5
  15495394.865   -37271870.855 7 -27731979.568 7
 94  2  9  4 27 59.9820000  0  8  9  5 24  2 13 12  7  4
  15856790.725   -33906003.833 6 -26182821.582 7
  17376327.115   -14505091.146 6 -10887420.785 6
  15992550.490   -25627878.044 6 -19719652.363 7
  18570840.100   -15135824.457 4 -11670003.919 4
  15797819.029   -41504953.541 7 -25948841.681 6
  16056100.428   -30273431.902 6 -19543648.913 7
  18033940.279   -25745437.085 5 -19945014.709 5
  15485805.100   -37322274.028 7 -27771254.765 7
 94  2  9  4 28 29.9820000  0  8  9  5 24  2 13 12  7  4
  15846573.483   -33959718.548 6 -26224677.212 7
  17351363.389   -14636259.217 6 -10989629.673 6
  15970259.076   -25745022.585 6 -19810933.817 7
  18576048.772   -15108429.638 3 -11648657.314 2
  15796187.897   -41513537.498 7 -25955530.470 6
  16038133.717   -30367856.666 7 -19617226.650 7
  18037902.522   -25724606.120 5 -19928782.784 5
  15476320.647   -37372102.059 7 -27810081.799 7
 94  2  9  4 28 59.9820000  0  8  9  5 24  2 13 12  7  4
  15836461.311   -34012840.923 6 -26266071.275 7
  17326419.256   -14767327.514 6 -11091760.833 6
  15948051.897   -25861706.110 6 -19901856.028 7
  18581305.029   -15080797.553 3 -11627125.867 5
  15794608.068   -41521825.509 7 -25961988.674 7
  16020256.623   -30461796.592 7 -19690426.596 7
  18041868.967   -25703765.381 5 -19912543.253 5
  15466944.358   -37421371.968 7 -27848473.929 7
 94  2  9  4 29 29.9820000  0  8  9  5 24  2 13 12  7  4
  15826467.772   -34065365.573 6 -26306999.580 8
  17301502.272   -14898295.937 6 -11193814.139 6
  15925931.717   -25977917.512 6 -19992410.353 7
  18586614.670   -15052925.981 3 -11605407.785 4
  15793088.389   -41529809.997 7 -25968210.350 7
  16002474.717   -30555239.457 7 -19763239.221 7
  18045837.842   -25682907.104 6 -19896290.056 5
  15457681.068   -37470050.569 7 -27886405.305 8
 94  2  9  4 29 59.9820000  0  8  9  5 24  2 13 12  7  4
  15816584.858   -34117299.232 6 -26347467.366 8
  17276601.428   -15029158.542 6 -11295785.020 6
  15903906.506   -26093660.961 6 -20082600.045 7
  18591962.709   -15024808.708 3 -11583498.240 4
  15791624.928   -41537494.400 7 -25974198.191 7
  15984786.295   -30648184.654 7 -19835664.053 7
  18049809.389   -25662025.903 6 -19880019.007 5
  15448532.233   -37518145.325 7 -27923881.729 8
 94  2  9  4 30 29.9820000  0  8  9  5 24  2 13 12  7  4
  15806813.303   -34168644.306 6 -26387476.522 8
  17251716.131   -15159923.154 6 -11397679.514 6
  15881973.537   -26208939.737 6 -20172427.660 7
  18597355.748   -14996444.586 3 -11561396.341 2
  15790223.115   -41544875.646 7 -25979949.810 6
  15967197.545   -30740624.489 7 -19907695.096 7
  18053790.834   -25641104.535 5 -19863716.652 5
  15439489.053   -37565658.047 7 -27960904.631 7
 94  2  9  4 30 59.9820000  0  8  9  5 24  2 13 12  7  4
  15797153.217   -34219406.999 6 -26427031.877 8
  17226846.248   -15290617.693 6 -11499519.418 6
  15860125.108   -26323774.491 6 -20261909.292 7
  18602804.443   -14967844.722 3 -11539110.785 3
  15788873.373   -41551959.332 7 -25985469.582 7
  15949702.131   -30832560.249 7 -19979333.347 8
  18057782.162   -25620132.758 5 -19847375.015 5
  15430559.701   -37612584.366 7 -27997470.593 8
 94  2  9  4 31 29.9820000  0  8  9  5 24  2 13 12  7  4
  15787604.631   -34269589.812 6 -26466135.383 8
  17201989.279   -15421241.609 6 -11601304.282 6
  15838358.834   -26438156.262 6 -20351037.936 7
  18608290.912   -14939019.192 4 -11516649.354 1
  15787583.725   -41558751.234 7 -25990761.984 7
  15932304.748   -30923993.375 7 -20050579.942 7
  18061786.037   -25599104.605 5 -19830989.448 5
  15421738.100   -37658931.163 7 -28033584.981 8
 94  2  9  4 31 59.9820000  0  8  9  5 24  2 13 12  7  4
  15778167.147   -34319183.690 6 -26504779.968 7
  17177147.748   -15551776.241 6 -11703019.570 6
  15816675.514   -26552060.904 6 -20439794.776 7
  18613813.053   -14909980.049 4 -11494021.513 2
  15786344.264   -41565243.302 7 -25995820.718 6
  15915003.834   -31014911.464 7 -20121425.192 7
  18065796.897   -25578016.480 5 -19814557.147 5
  15413025.912   -37704711.905 7 -28069258.268 7
 94  2  9  4 32 29.9820000  0  8  9  5 24  2 13 12  7  4
  15768841.600   -34368193.091 6 -26542969.115 8
  17152322.842   -15682232.329 6 -11804673.667 6
  15795089.061   -26665497.242 6 -20528186.717 7
  18619377.131   -14880752.168 4 -11471246.559 3
  15785164.529   -41571451.247 7 -26000658.080 7
  15897796.858   -31105325.803 7 -20191877.935 8
  18069815.889   -25556896.454 5 -19798100.001 5
  15404422.201   -37749935.864 7 -28104497.715 8
 94  2  9  4 32 59.9820000  0  8  9  5 24  2 13 12  7  4
  15759627.334   -34416608.181 6 -26580695.173 8
  17127515.889   -15812594.817 6 -11906254.826 6
  15773598.326   -26778451.651 6 -20616203.141 7
  18624972.358   -14851328.833 4 -11448319.302 2
  15784042.006   -41577367.416 7 -26005268.092 6
  15880691.842   -31195224.651 7 -20261928.997 7
  18073839.436   -25535757.660 5 -19781628.233 5
  15395921.662   -37794595.194 7 -28139297.200 8
 94  2  9  4 33 29.9820000  0  8  9  5 24  2 13 12  7  4
  15750523.678   -34464442.974 6 -26617969.033 8
  17102730.061   -15942854.635 6 -12007755.962 6
  15752198.139   -26890921.748 6 -20703842.163 7
  18630613.928   -14821709.790 5 -11425239.543 1
  15782968.897   -41583000.478 7 -26009657.479 6
  15863680.709   -31284612.207 7 -20331581.622 8
  18077863.733   -25514619.356 5 -19765156.809 5
  15387530.311   -37838695.697 6 -28173661.208 8
 94  2  9  4 33 59.9820000  0  8  9  5 24  2 13 12  7  4
  15741535.975   -34511690.448 6 -26654785.267 8
  17077960.881   -16073000.408 6 -12109168.256 6
  15730885.662   -27002916.234 6 -20791110.597 7
  18636284.787   -14791876.136 4 -11401992.580 1
  15781946.842   -41588349.179 7 -26013825.309 6
  15846769.068   -31373483.159 7 -20400831.733 8
  18081883.850   -25493485.511 6 -19748688.895 5
  15379244.139   -37882227.250 7 -28207581.909 8
 94  2  9  4 34 29.9820000  0  8  9  5 24  2 13 12  7  4
  15732652.084   -34558363.837 6 -26691154.161 7
  17053215.662   -16203041.658 6 -12210499.100 6
  15709658.873   -27114453.457 6 -20878022.713 7
  18642007.217   -14761811.498 4 -11378565.611 1
  15780984.889   -41593425.750 7 -26017781.084 6
  15829952.209   -31461845.180 7 -20469685.260 7
  18085904.147   -25472352.352 6 -19732221.492 5
  15371074.748   -37925178.309 7 -28241050.272 7
 94  2  9  4 34 59.9820000  0  8  9  5 24  2 13 12  7  4
  15723880.693   -34604468.805 6 -26727080.095 8
  17028490.615   -16332971.983 6 -12311743.478 6
  15688525.311   -27225522.874 6 -20964570.276 7
  18647772.975   -14731502.031 3 -11354947.850 1
  15780070.217   -41598226.112 7 -26021521.615 6
  15813238.686   -31549690.322 7 -20538136.003 8
  18089931.803   -25451192.607 6 -19715733.371 5
  15363012.623   -37967541.324 7 -28274060.392 8
 94  2  9  4 35 29.9820000  0  8  9  5 24  2 13 12  7  4
  15715212.412   -34650001.220 6 -26762559.938 8
  17003792.092   -16462778.928 6 -12412891.763 6
  15667481.998   -27336105.967 6 -21050738.949 7
  18653594.615   -14700931.943 3 -11331127.106 1
  15779213.311   -41602742.526 7 -26025040.923 6
  15796618.592   -31637006.322 6 -20606174.466 8
  18093967.647   -25429985.254 5 -19699208.180 6
  15355064.670   -38009306.351 7 -28306604.588 8
 94  2  9  4 35 59.9820000  0  8  9  5 24  2 13 12  7  4
  15706658.983   -34694953.045 6 -26797587.333 8
  16979114.123   -16592451.369 6 -12513935.217 6
  15646535.139   -27446185.006 6 -21136514.813 7
  18659459.912   -14670110.013 3 -11307110.048 1
  15778410.045   -41606966.494 7 -26028332.317 6
  15780107.272   -31723780.612 7 -20673790.792 8
  18098016.186   -25408720.557 5 -19682638.293 6
  15347231.850   -38050465.187 7 -28338676.400 8
 94  2  9  4 36 29.9820000  0  8  9  5 24  2 13 12  7  4
  15698212.022   -34739362.132 6 -26832191.813 8
  16954458.951   -16722028.523 6 -12614904.410 6
  15625677.592   -27555777.314 6 -21221911.392 8
  18665364.576   -14639073.818 3 -11282926.015 2
  15777653.061   -41610926.811 7 -26031418.271 7
  15763693.475   -31810037.962 7 -20741004.296 7
  18102065.068   -25387425.531 5 -19666044.777 5
  15339509.240   -38091042.467 7 -28370295.042 8
 94  2  9  4 36 59.9820000  0  8  9  5 24  2 13 12  7  4
  15689860.084   -34783226.684 6 -26866371.996 8
  16929816.061   -16851511.366 6 -12715800.129 6
  15604916.490   -27664873.263 6 -21306921.204 8
  18671315.623   -14607829.023 3 -11258579.448 2
  15776951.639   -41614623.760 7 -26034299.022 6
  15747380.912   -31895774.493 7 -20807811.980 7
  18106118.592   -25366108.505 5 -19649434.128 5
  15331899.318   -38131046.624 7 -28401467.110 8
 94  2  9  4 37 29.9820000  0  8  9  5 24  2 13 12  7  4
  15681619.514   -34826543.366 6 -26900125.271 8
  16905195.514   -16980907.403 6 -12816628.214 6
  15584251.943   -27773478.197 6 -21391548.423 8
  18677285.756   -14576386.977 3 -11234079.215 1
  15776294.373   -41618065.929 7 -26036981.245 7
  15731165.022   -31980994.310 7 -20874217.059 7
  18110177.623   -25344791.298 5 -19632823.337 5
  15324390.693   -38170492.860 6 -28432204.449 8
 94  2  9  4 37 59.9820000  0  8  9  5 24  2 13 12  7  4
  15673488.084   -34869290.723 6 -26933434.910 8
  16880586.115   -17110215.575 6 -12917387.812 6
  15563680.428   -27881593.059 6 -21475793.756 8
  18683317.561   -14544744.383 3 -11209422.688 2
  15775692.170   -41621250.129 7 -26039462.433 7
  15715045.170   -32065690.552 7 -20940214.115 7
  18114238.092   -25323463.287 5 -19616204.107 5
  15316990.631   -38209373.279 6 -28462500.875 8
 94  2  9  4 38 29.9820000  0  8  9  5 24  2 13 12  7  4
  15665460.662   -34911452.403 6 -26966288.176 8
  16855995.545   -17239442.414 6 -13018084.037 6
  15543200.373   -27989218.687 6 -21559657.866 8
  18689376.092   -14512883.604 3 -11184596.158 2
  15775135.076   -41624175.384 7 -26041741.850 7
  15699027.670   -32149858.055 7 -21005799.188 7
  18118299.022   -25302114.439 5 -19599568.648 5
  15309700.858   -38247690.882 6 -28492358.753 8
 94  2  9  4 38 59.9820000  0  8  9  5 24  2 13 12  7  4
  15657552.865   -34953006.085 6 -26998667.676 8
  16831427.381   -17368565.362 6 -13118699.320 6
  15522811.147   -28096349.322 6 -21643136.274 8
  18695489.983   -14480790.743 4 -11159588.739 3
  15774626.967   -41626832.705 7 -26043812.500 6
  15683116.865   -32233483.548 7 -21070961.907 7
  18122368.600   -25280732.948 5 -19582907.740 5
  15302520.701   -38285450.262 6 -28521781.633 8
 94  2  9  4 39 29.9820000  0  8  9  5 24  2 13 12  7  4
  15649761.615   -34993972.858 6 -27030589.842 8
  16806871.154   -17497597.109 6 -13219243.531 6
  15502519.201   -28203000.166 6 -21726240.822 8
  18701633.490   -14448499.574 4 -11134426.870 1
  15774169.233   -41629245.628 7 -26045692.701 6
  15667301.733   -32316586.698 7 -21135717.611 7
  18126438.217   -25259345.563 5 -19566242.258 5
  15295433.615   -38322669.036 6 -28550783.272 8
 94  2  9  4 39 59.9820000  0  8  9  5 24  2 13 12  7  4
  15642071.928   -35034368.328 6 -27062066.839 8
  16782336.529   -17626532.301 6 -13319712.509 6
  15482311.693   -28309182.781 6 -21808980.507 8
  18707814.608   -14416013.250 4 -11109112.885 1
  15773755.811   -41631420.787 7 -26047387.626 6
  15651585.561   -32399170.052 6 -21200068.275 7
  18130503.608   -25237957.922 5 -19549576.565 5
  15288455.209   -38359347.588 6 -28579363.960 8
 94  2  9  4 40 29.9820000  0  8  9  5 24  2 13 12  7  4
  15634494.498   -35074202.506 6 -27093106.465 8
  16757823.264   -17755355.758 6 -13420094.420 6
  15462189.936   -28414902.632 6 -21891359.598 8
  18714029.983   -14383327.244 4 -11083643.337 1
  15773387.912   -41633357.987 7 -26048897.142 6
  15635971.240   -32481229.490 7 -21264010.697 7
  18134574.209   -25216581.163 5 -19532919.360 5
  15281573.959   -38395492.825 6 -28607529.084 8
 94  2  9  4 40 59.9820000  0  8  9  5 24  2 13 12  7  4
  15627018.318   -35113471.930 6 -27123706.022 8
  16733330.811   -17884046.381 6 -13520372.816 6
  15442164.811   -28520149.705 6 -21973370.292 8
  18720287.983   -14350426.859 3 -11058006.719 1
  15773067.951   -41635049.678 7 -26050215.342 6
  15620460.225   -32562753.406 7 -21327535.830 7
  18138647.834   -25195209.275 5 -19516265.943 5
  15274803.865   -38431083.055 6 -28635261.733 8
 94  2  9  4 41 29.9810000  0  8  9  5 24  2 13 12  7  4
  15619649.837   -35152189.483 6 -27153875.551 8
  16708868.978   -18012604.843 6 -13620548.243 6
  15422229.478   -28624916.541 6 -22055006.770 8
  18726596.806   -14317320.223 3 -11032209.362 2
  15772784.978   -41636502.269 7 -26051347.224 6
  15605047.603   -32643741.557 7 -21390643.492 7
  18142710.634   -25173841.264 5 -19499615.557 5
  15268138.126   -38466113.392 6 -28662558.102 9
 94  2  9  4 41 59.9810000  0  8  9  5 24  2 13 12  7  4
  15612392.900   -35190347.057 6 -27183608.733 8
  16684429.181   -18141035.720 6 -13720624.249 6
  15402381.845   -28729224.498 6 -22136285.700 8
  18732931.978   -14283987.704 3 -11006236.027 2
  15772558.282   -41637712.397 7 -26052290.188 7
  15589735.829   -32724192.187 7 -21453332.296 7
  18146780.923   -25152461.657 5 -19482956.142 5
  15261577.868   -38500593.430 6 -28689425.668 9
 94  2  9  4 42 29.9810000  0  8  9  5 24  2 13 12  7  4
  15605235.595   -35227937.228 6 -27212899.779 8
  16660008.915   -18269346.126 6 -13820606.383 6
  15382619.243   -28833056.594 6 -22217193.813 8
  18739324.579   -14250431.795 3 -10980088.597 1
  15772373.798   -41638685.974 7 -26053048.830 6
  15574530.446   -32804104.473 7 -21515601.608 7
  18150851.868   -25131066.177 5 -19466284.337 4
  15255120.376   -38534520.434 6 -28715862.297 9
 94  2  9  4 42 59.9810000  0  8  9  5 24  2 13 12  7  4
  15598195.517   -35264959.046 6 -27241747.950 8
  16635619.454   -18397525.663 6 -13920486.533 6
  15362956.962   -28936379.873 6 -22297705.454 7
  18745756.978   -14216655.296 3 -10953769.298 2
  15772232.142   -41639416.306 7 -26053617.901 6
  15559429.126   -32883467.709 7 -21577443.097 7
  18154930.103   -25109639.890 5 -19449588.548 4
  15248768.798   -38567883.822 6 -28741859.739 9
 94  2  9  4 43 29.9810000  0  8  9  5 24  2 13 12  7  4
  15591248.712   -35301431.181 6 -27270167.803 8
  16611254.048   -18525583.381 6 -14020271.765 6
  15343393.829   -29039210.811 6 -22377833.448 8
  18752211.759   -14182692.833 2 -10927305.128 1
  15772137.837   -41639917.075 7 -26054008.125 6
  15544427.907   -32962292.018 7 -21638864.636 7
  18159007.681   -25088197.363 5 -19432880.092 5
  15242524.735   -38600712.260 6 -28767440.346 9
 94  2  9  4 43 59.9810000  0  8  9  5 24  2 13 12  7  4
  15584415.134   -35337345.213 6 -27298152.775 8
  16586905.165   -18653521.263 6 -14119963.620 6
  15323920.079   -29141549.594 6 -22457577.950 7
  18758704.087   -14148547.275 2
  15772084.900   -41640191.110 7
  15529529.845   -33040576.004 7 -21699865.154 7
  18163088.892   -25066742.277 5 -19416161.885 5
  15236378.564   -38632998.369 6 -28792598.341 9
 94  2  9  4 44 29.9810000  0  8  9  5 24  2 13 12  7  4
  15577688.415   -35372704.777 6 -27325705.683 8
  16562584.048   -18781334.482 6 -14219558.337 6
  15304539.962   -29243369.519 6 -22536918.129 8
  18765238.165   -14114227.502 2
  15772078.110   -41640238.671 7
  15514739.712   -33118316.445 7 -21760442.121 7
  18167176.142   -25045275.908 5 -19399434.852 5
  15230340.868   -38664730.158 6 -28817324.409 9
 94  2  9  4 44 59.9810000  0  8  9  5 24  2 13 12  7  4
  15571067.040   -35407503.219 6 -27352821.366 8
  16538289.001   -18909010.840 6 -14319046.407 7
  15285262.064   -29344670.307 6 -22615853.797 8
  18771809.150   -14079729.535 3        -0.10411
  15772110.642   -41640056.944 7
  15500046.915   -33195506.584 7 -21820590.287 7
  18171261.360   -25023797.108 5 -19382698.142 5
  15224408.728   -38695909.137 6 -28841619.722 9
 94  2  9  4 45 29.9810000  0  8  9  5 24  2 13 12  7  4
  15564555.603   -35441712.582 6 -27379478.016 8
  16514022.306   -19036543.624 6 -14418422.599 7
  15266089.298   -29445447.259 6 -22694381.286 8
  18778413.407   -14045029.831 3     27038.601 1
  15772190.079   -41639635.930 6 -26053789.066 6
  15485469.095   -33272132.810 7 -21880299.035 7
  18175353.454   -25002297.243 5 -19365945.009 5
  15218585.032   -38726521.629 6 -28865473.609 9
 94  2  9  4 45 59.9810000  0  8  9  5 24  2 13 12  7  4
  15558158.657   -35475339.078 6 -27405680.480 8
  16489775.759   -19163937.747 6 -14517690.731 7
  15247009.759   -29545704.002 6 -22772503.408 7
  18785053.181   -14010116.313 3     54243.891 2
  15772311.540   -41638988.020 7 -26053284.212 6
  15470991.314   -33348203.589 7 -21939574.971 7
  18179439.103   -24980794.699 5 -19349189.783 5
  15212865.017   -38756570.257 6 -28888888.124 9
 94  2  9  4 46 29.9810000  0  8  9  5 24  2 13 12  7  4
  15551870.696   -35508395.295 6 -27431438.573 8
  16465558.478   -19291194.212 6 -14616851.615 7
  15228028.470   -29645442.759 6 -22850221.908 7
  18791739.064   -13974985.775 3     81618.248 1
  15772480.157   -41638118.164 7 -26052606.412 6
  15456620.446   -33423720.248 7 -21998419.123 7
  18183531.587   -24959305.121 5 -19332444.662 5
  15207251.650   -38786070.794 6 -28911875.558 9
 94  2  9  4 46 59.9810000  0  8  9  5 24  2 13 12  7  4
  15545684.525   -35540878.632 6 -27456750.276 8
  16441371.407   -19418310.431 6 -14715903.200 7
  15209147.642   -29744670.440 6 -22927542.169 7
  18798469.243   -13939622.051 3    109174.304 1
  15772689.954   -41637020.430 7 -26051751.026 6
  15442357.720   -33498673.310 7 -22056824.120 7
  18187621.743   -24937821.868 5 -19315704.473 3
  15201745.759   -38815010.409 7 -28934425.908 9
 94  2  9  4 47 29.9810000  0  8  9  5 24  2 13 12  7  4
  15539610.360   -35572803.830 6 -27481627.055 8
  16417207.423   -19545292.798 6 -14814850.494 7
  15190362.228   -29843388.824 6 -23004465.579 7
  18805239.626   -13904040.513 3    136900.124 1
  15772940.610   -41635697.502 7 -26050720.179 6
  15428202.282   -33573061.632 7 -22114789.044 7
  18191710.657   -24916340.518 5 -19298965.750 2
  15196345.110   -38843382.027 7 -28956533.663 9
 94  2  9  4 47 59.9810000  0  8  9  5 24  2 13 12  7  4
  15533639.571   -35604180.647 6 -27506076.528 8
  16393066.493   -19672145.973 6 -14913697.114 7
  15171674.368   -29941598.299 6 -23080992.441 7
  18812048.736   -13868252.191 3    164787.057 1
  15773234.689   -41634154.770 7 -26049518.048 6
  15414156.173   -33646886.979 7 -22172315.295 7
  18195796.907   -24894856.640 5 -19282225.074 4
  15191054.868   -38871181.712 7 -28978195.754 9
 94  2  9  4 48 29.9810000  0  8  9  5 24  2 13 12  7  4
  15527776.603   -35635004.568 6 -27530095.182 8
  16368952.798   -19798865.750 6 -15012439.789 7
  15153079.681   -30039296.926 6 -23157121.237 7
  18818901.454   -13832268.292 3    192826.417 1
  15773573.290   -41632390.524 7 -26048143.316 6
  15400212.860   -33720143.974 7 -22229398.670 7
  18199891.517   -24873347.949 5 -19265465.067 2
  15185878.517   -38898400.441 7 -28999405.155 9
 94  2  9  4 48 59.9810000  0  8  9  5 24  2 13 12  7  4
  15522015.790   -35665279.853 6 -27553686.318 8
  16344865.923   -19925448.522 6 -15111075.709 7
  15134586.439   -30136489.688 6 -23232855.851 7
  18825778.985   -13796111.664 3    221000.324 1
  15773946.759   -41630416.467 7 -26046605.090 6
  15386382.400   -33792841.044 7 -22286045.746 7
  18203990.931   -24851808.291 5 -19248680.917 5
  15180806.259   -38925045.025 7 -29020167.161 9
 94  2  9  4 49 29.9810000  0  7  9  5 24 13 12  7  4
  15516359.712   -35694986.615 6 -27576834.457 8
  16320807.259   -20051885.189 6 -15209597.777 7
  15116189.775   -30233158.044 6 -23308181.832 7
  15774361.775   -41628227.871 7 -26044899.694 6
  15372654.954   -33864969.503 7 -22342249.749 7
  18208093.954   -24830235.234 5 -19231870.759 5
  15175842.954   -38951121.196 7 -29040486.252 9
 94  2  9  4 49 59.9810000  0  7  9  5 24 13 12  7  4
  15510814.368   -35724123.757 6 -27599538.729 8
  16296776.017   -20178164.974 6 -15307997.604 6
  15097890.431   -30329315.600 6 -23383109.791 7
  15774819.212   -41625827.478 7 -26043029.260 6
  15359037.095   -33936528.774 6 -22398010.220 7
  18212204.142   -24808640.155 5 -19215043.447 5
  15170988.556   -38976643.156 7 -29060373.492 9
 94  2  9  4 50 29.9810000  0  7  9  5 24 13 12  7  4
  15505381.915   -35752690.016 6 -27621798.165 8
  16272780.470   -20304275.545 6 -15406265.584 6
  15079687.290   -30424970.526 6 -23457646.094 7
  15775316.642   -41623217.778 7 -26040995.718 6
  15345529.642   -34007517.792 7 -22453326.339 7
  18216317.525   -24787027.972 5 -19198202.796 5
  15166233.814   -39001624.832 7 -29079839.730 9
 94  2  9  4 50 59.9810000  0  7  9  5 24 13 12  7  4
  15500048.665   -35780692.746 6 -27643618.478 8
  16248811.017   -20430226.508 6 -15504409.190 7
  15061583.220   -30520120.345 6 -23531788.801 7
  15775851.751   -41620402.639 6 -26038802.111 6
  15332129.345   -34077937.245 7 -22508198.653 7
  18220429.860   -24765413.922 5 -19181360.679 4
  15161579.001   -39026085.639 7 -29098900.097 9
 94  2  9  4 51 29.9810000  0  7  9  5 24 13 12  7  4
  15494828.501   -35808133.631 6 -27665000.989 8
  16224874.071   -20556019.488 6 -15602429.695 7
  15043567.493   -30614780.671 6 -23605550.075 7
  15776423.681   -41617386.306 6 -26036451.716 6
  15318838.243   -34147787.467 7 -22562627.394 7
  18224544.025   -24743799.256 5 -19164518.107 5
  15157024.290   -39050033.830 7 -29117561.022 9
 94  2  9  4 51 59.9810000  0  7  9  5 24 13 12  7  4
  15489712.814   -35835017.439 6 -27685949.414 8
  16200966.056   -20681636.310 6 -15700312.937 7
  15025649.556   -30708945.890 6 -23678925.566 7
  15777036.993   -41614164.434 7 -26033941.175 6
  15305653.118   -34217061.086 6 -22616606.830 7
  18228653.837   -24722173.787 5 -19147667.100 5
  15152563.103   -39073467.824 7 -29135821.278 9
 94  2  9  4 52 29.9810000  0  7  9  5 24 13 12  7  4
  15484704.603   -35861358.190 6 -27706474.687 8
  16177093.962   -20807095.065 6 -15798072.995 7
  15007831.618   -30802591.937 6 -23751896.504 7
  15777686.735   -41610749.719 6 -26031280.356 6
  15292579.157   -34285767.164 6 -22670144.044 7
  18232774.110   -24700554.651 5 -19130821.042 5
  15148200.196   -39096390.311 7 -29153682.951 9
 94  2  9  4 52 59.9810000  0  7  9  5 24 13 12  7  4
  15479793.384   -35887167.987 6 -27726586.227 8
  16153247.251   -20932410.826 6 -15895721.647 7
  14990109.103   -30895709.587 6 -23824455.701 7
  15778372.532   -41607146.778 6 -26028472.875 6
  15279609.126   -34353907.284 6 -22723240.238 7
  18236884.728   -24678940.095 5 -19113978.552 5
  15143935.337   -39118802.996 7 -29171147.375 9
 94  2  9  4 53 29.9810000  0  7  9  5 24 13 12  7  4
  15474983.126   -35912439.269 6 -27746278.144 8
  16129427.610   -21057581.416 6 -15993257.173 7
  14972491.735   -30988288.834 6 -23896595.368 7
  15779094.025   -41603355.770 7 -26025518.855 6
  15266756.782   -34421477.931 6 -22775892.698 7
  18240998.704   -24657328.869 5 -19097138.643 5
  15139771.157   -39140696.738 7 -29188207.426 9
 94  2  9  4 53 59.9810000  0  7  9  5 24 13 12  7  4
  15470272.564   -35937167.708 6 -27765547.086 7
  16105636.946   -21182606.197 6 -16090679.092 7
  14954982.306   -31080311.249 6 -23968301.153 7
  15779852.376   -41599372.495 7 -26022415.018 6
  15254004.275   -34488472.033 6 -22828095.907 7
  18245115.087   -24635728.410 5 -19080307.137 5
  15135702.587   -39162067.629 7 -29204860.080 7
 94  2  9  4 54 29.9810000  0  7  9  5 24 13 12  7  4
  15465677.493   -35961351.821 6 -27784391.826 8
  16081869.946   -21307499.632 6 -16187998.622 7
  14937574.946   -31171800.386 6 -24039591.361 7
  15780647.618   -41595207.970 7 -26019169.919 6
  15241365.189   -34554896.922 6 -22879855.550 7
  18249219.071   -24614132.522 5 -19063479.174 5
  15131732.446   -39182923.564 7 -29221111.441 8
 94  2  9  4 54 59.9810000  0  7  9  5 24 13 12  7  4
  15461177.657   -35984980.041 6 -27802803.445 8
  16058129.103   -21432246.965 6 -16285204.327 7
  14920259.837   -31262776.860 6 -24110482.111 7
  15781473.173   -41590864.827 7 -26015785.642 6
  15228833.204   -34620752.089 6 -22931171.273 7
  18253330.790   -24592526.225 5 -19046643.112 5
  15127860.775   -39203272.685 7 -29236967.900 8
 94  2  9  4 55 29.9810000  0  7  9  5 24 13 12  7  4
  15456790.564   -36008043.919 6 -27820775.310 8
  16034424.118   -21556832.719 6 -16382284.133 7
  14903042.087   -31353250.877 6 -24180981.332 7
  15782331.931   -41586348.028 7 -26012266.057 6
  15216411.087   -34686039.458 6 -22982044.539 7
  18257442.439   -24570922.112 5 -19029808.731 4
  15124083.329   -39223117.572 7 -29252431.442 8
 94  2  9  4 55 59.9810000  0  7  9  5 24 13 12  7  4
  15452507.204   -36030548.883 6 -27838311.646 8
  16010751.439   -21681235.262 6 -16479221.172 7
  14885922.775   -31443220.901 6 -24251087.828 7
  15783221.493   -41581657.633 7 -26008611.186 6
  15204094.251   -34750755.701 6 -23032472.790 7
  18261555.118   -24549308.061 5 -19012966.610 4
  15120407.235   -39242452.224 7 -29267497.407 8
 94  2  9  4 56 29.9800000  0  7  9  5 24 13 12  7  4
  15448333.949   -36052489.305 6 -27855408.083 8
  15987118.348   -21805438.276 6 -16576002.746 7
  14868902.223   -31532667.063 6 -24320786.141 7
  15784153.442   -41576784.865 7 -26004814.227 6
  15191891.973   -34814886.796 6 -23082445.069 7
  18265670.738   -24527671.979 5 -18996107.344 2
  15116825.863   -39261255.463 7 -29282149.281 8
 94  2  9  4 56 59.9800000  0  7  9  5 24 13 12  7  4
  15444260.270   -36073889.989 6 -27872083.955 8
  15963515.160   -21929458.453 6 -16672641.841 8
  14851981.832   -31621587.465 6 -24390074.741 7
  15785111.348   -41571741.518 7 -26000884.353 6
  15179795.246   -34878445.768 6 -23131971.536 7
  18269784.426   -24506042.017 5 -18979252.822 4
  15113343.926   -39279539.814 6 -29296396.826 8
 94  2  9  4 57 29.9800000  0  7  9  5 24 13 12  7  4
  15440286.824   -36094755.374 6 -27888342.696 8
  15939950.801   -22053292.387 6 -16769135.809 7
  14835160.699   -31709977.778 6 -24458950.305 7
  15786106.988   -41566524.041 7 -25996818.794 6
  15167811.988   -34941423.958 6 -23181045.456 7
  18273903.160   -24484414.933 5 -18962400.584 3
  15109966.363   -39297297.597 6 -29310234.059 8
 94  2  9  4 57 59.9800000  0  7  9  5 24 13 12  7  4
  15436415.488   -36115108.163 6 -27904202.021 8
  15916417.676   -22176951.508 6 -16865493.559 7
  14818440.902   -31797848.721 6 -24527421.173 7
  15787127.887   -41561140.720 7 -25992623.997 6
  15155935.504   -35003826.410 6 -23229670.751 7
  18278013.848   -24462796.721 5 -18945555.244 3
  15106689.051   -39314534.122 6 -29323665.118 8
 94  2  9  4 58 29.9800000  0  7  9  5 24 13 12  7  4
  15432640.379   -36134942.189 6 -27919657.108 8
  15892921.504   -22300434.838 6 -16961714.338 7
  14801811.801   -31885205.766 6 -24595491.576 7
  15788189.106   -41555582.485 7 -25988292.900 6
  15144173.379   -35065641.297 6 -23277838.194 7
  18282129.176   -24441178.882 4 -18928710.170 4
  15103508.895   -39331245.894 6 -29336687.276 8
 94  2  9  4 58 59.9800000  0  7  9  5 24 13 12  7  4
  15428961.098   -36154264.904 6 -27934713.784 7
  15869458.910   -22423736.603 6 -17057793.628 7
  14785285.145   -31972071.005 6 -24663178.771 7
  15789275.402   -41549860.087 7 -25983833.877 6
  15132520.395   -35126876.036 6 -23325553.570 7
  18286244.824   -24419564.287 4 -18911867.650 4
  15100426.379   -39347442.127 6 -29349307.721 8
 94  2  9  4 59 29.9800000  0  7  9  5 24 13 12  7  4
  15425382.363   -36173084.592 6 -27949378.489 8
  15846026.442   -22546859.529 6 -17153733.585 7
  14768846.723   -32058459.538 6 -24730494.509 7
  15790393.809   -41543983.528 7 -25979254.765 6
  15120977.692   -35187538.082 6 -23372822.714 7
  18290356.652   -24397965.609 4 -18895037.547 3
  15097441.059   -39363123.113 6 -29361526.687 8
 94  2  9  4 59 59.9800000  0  7  9  5 24 13 12  7  4
  15421895.481   -36191397.504 6 -27963648.301 7
  15822632.660   -22669797.717 6 -17249529.576 7
  14752500.973   -32144358.272 6 -24797428.585 6
  15791541.254   -41537952.154 7 -25974555.002 6
  15109543.996   -35247623.589 6 -23419642.597 6
  18294456.481   -24376387.264 4 -18878223.258 2
  15094553.270   -39378293.360 6 -29373347.663 7
 94  2  9  5  0 29.9800000  0  8  9  5 24 20 13 12  7  4
  15418510.832   -36209182.527 6 -27977506.770 7
  15799277.207   -22792542.124 6 -17345174.571 7
  14736252.574   -32229735.356 6 -24863956.170 7
  18772030.559     -151172.223 3
  15792719.129   -41531758.227 7 -25969728.579 6
  15098221.590   -35307122.012 6 -23466005.005 7
  18298565.543   -24354818.786 5 -18861416.649 3
  15091767.606   -39392945.373 6 -29384764.817 8
 94  2  9  5  0 59.9800000  0  8  9  5 24 20 13 12  7  4
  15415228.926   -36226434.152 6 -27990949.601 7
  15775956.512   -22915090.396 6 -17440666.724 7
  14720112.004   -32314564.563 6 -24930056.844 6
  18743258.176     -302369.122 3
  15793932.293   -41525401.854 7 -25964775.559 6
  15087012.231   -35366030.303 6 -23511907.572 6
  18302664.504   -24333261.908 5 -18844619.103 2
  15089073.606   -39407085.687 6 -29395783.246 7
 94  2  9  5  1 29.9800000  0  8  9  5 24 20 13 12  7  4
  15412046.918   -36243163.571 6 -28003985.513 8
  15752669.957   -23037469.764 6 -17536027.263 7
  14704070.817   -32398847.740 6 -24995732.026 7
  18714484.520     -453599.780 3        -0.22512
  15795169.301   -41518894.534 7 -25959704.924 6
  15075910.418   -35424357.759 6 -23557357.538 7
  18306763.824   -24311723.707 5 -18827836.071 4
  15086477.059   -39420743.039 7 -29406425.343 8
 94  2  9  5  1 59.9800000  0  8  9  5 24 20 13 12  7  4
  15408959.160   -36259368.373 6 -28016612.652 7
  15729412.527   -23159682.664 6 -17631258.099 7
  14688138.863   -32482576.886 6 -25060975.528 6
  18685701.715     -604862.398 3
  15796434.824   -41512238.118 6 -25954518.117 6
  15064922.176   -35482103.137 6 -23602353.946 6
  18310863.098   -24290194.474 5 -18811060.067 3
  15083969.285   -39433930.993 7 -29416701.661 7
 94  2  9  5  2 29.9800000  0  8  9  5 24 20 13 12  7  4
  15405979.567   -36275049.239 6 -28028831.512 7
  15706188.121   -23281725.563 6 -17726356.446 7
  14672312.293   -32565755.563 6 -25125790.066 6
  18656903.184     -756155.175 3
  15797728.082   -41505434.220 7 -25949216.385 6
  15054046.277   -35539265.337 6 -23646895.924 7
  18314953.871   -24268674.835 5 -18794291.534 3
  15081547.004   -39446651.795 7 -29426613.971 8
 94  2  9  5  2 59.9800000  0  8  9  5 24 20 13 12  7  4
  15403091.363   -36290211.892 6 -28040646.577 8
  15682998.496   -23403586.754 6 -17821313.210 7
  14656582.567   -32648403.461 6 -25190191.014 7
  18628102.676     -907475.511 3        -0.11612
  15799051.918   -41498483.884 7 -25943800.546 6
  15043279.723   -35595842.475 6 -23690982.018 7
  18319047.863   -24247172.326 5 -18777536.348 4
  15079213.738   -39458906.927 7 -29436163.420 8
 94  2  9  5  3 29.9800000  0  8  9  5 24 20 13 12  7  4
  15400308.824   -36304846.776 6 -28052050.398 8
  15659845.090   -23525250.555 6 -17916116.173 7
  14640955.637   -32730527.455 6 -25254183.734 7
  18599308.512    -1058818.206 3   -117929.439 1
  15800401.043   -41491384.945 7 -25938268.909 6
  15032624.707   -35651829.935 6 -23734608.608 6
  18323138.957   -24225687.326 4 -18760794.803 3
  15076972.949   -39470689.658 7 -29445344.770 8
 94  2  9  5  3 59.9800000  0  8  9  5 24 20 13 12  7  4
  15397623.856   -36318952.198 6 -28063041.646 7
  15636734.606   -23646703.754 6 -18010755.026 8
  14625426.152   -32812120.382 6 -25317762.630 6
  18570512.309    -1210182.521 3   -235875.652 2
  15801780.762   -41484140.099 7 -25932623.564 6
  15022082.590   -35707227.536 6 -23777775.569 7
  18327218.551   -24204224.415 4 -18744070.484 2
  15074821.652   -39481993.878 7 -29454153.253 8
 94  2  9  5  4 29.9800000  0  8  9  5 24 20 13 12  7  4
  15395036.762   -36332535.268 6 -28073625.869 7
  15613666.879   -23767938.299 6 -18105223.503 7
  14610002.754   -32893192.449 6 -25380935.659 7
  18541699.754    -1361569.257 3   -353839.320 3
  15803186.410   -41476753.608 7 -25926867.857 6
  15011652.621   -35762037.120 6 -23820484.340 6
  18331298.277   -24182777.742 4 -18727358.816 2
  15072763.293   -39492813.368 7 -29462584.020 8
 94  2  9  5  4 59.9800000  0  8  9  5 24 20 13 12  7  4
  15392550.684   -36345600.229 6 -28083806.364 8
  15590633.926   -23888962.598 6 -18199528.148 8
  14594672.590   -32973740.712 6 -25443700.532 7
  18512878.098    -1512976.004 3   -471818.567 3
  15804620.434   -41469226.809 7 -25921002.820 6
  15001336.442   -35816257.533 6 -23862734.018 7
  18335381.637   -24161326.124 4 -18710643.280 3
  15070799.176   -39503136.171 7 -29470627.762 9
 94  2  9  5  5 29.9800000  0  8  9  5 24 20 13 12  7  4
  15390167.254   -36358130.935 6 -28093570.567 8
  15567644.715   -24009779.527 6 -18293671.219 8
  14579449.527   -33053748.217 6 -25506044.047 7
  18484079.340    -1664393.643 4   -589806.326 3
  15806081.027   -41461553.910 7 -25915023.945 6
  14991130.317   -35869880.102 6 -23904517.853 7
  18339471.059   -24139841.679 3 -18693902.210 3
  15068928.840   -39512951.202 7 -29478275.854 8
 94  2  9  5  5 59.9800000  0  8  9  5 24 20 13 12  7  4
  15387883.035   -36370147.775 6 -28102934.348 7
  15544690.817   -24130403.251 6 -18387663.722 7
  14564323.465   -33133231.280 6 -25567978.887 6
  18455252.332    -1815832.498 3   -707810.609 2
  15807563.348   -41453748.174 6 -25908941.542 6
  14981039.777   -35922915.792 6 -23945844.371 6
  18343563.590   -24118337.798 4 -18677145.943 2
  15067158.449   -39522268.968 7 -29485536.444 8
 94  2  9  5  6 29.9800000  0  8  9  5 24 20 13 12  7  4
  15385694.152   -36381638.663 6 -28111888.298 8
  15521777.160   -24250813.381 7 -18481489.806 8
  14549295.574   -33212191.791 6 -25629506.542 7
  18426426.082    -1967280.917 3   -825822.357 2
  15809076.027   -41445801.489 6 -25902749.320 6
  14971060.457   -35975353.954 6 -23986705.272 7
  18347661.723   -24096809.961 4 -18660371.044 4
  15065481.520   -39531073.368 7 -29492397.015 8
 94  2  9  5  6 59.9800000  0  8  9  5 24 20 13 12  7  4
  15383606.809   -36392598.697 6 -28120428.609 7
  15498904.801   -24371012.044 7 -18575151.105 8
  14534370.981   -33290624.603 6 -25690623.027 6
  18397609.668    -2118734.393 3   -943838.015 1
  15810613.863   -41437712.788 6 -25896446.430 6
  14961197.567   -36027190.938 6 -24027097.748 6
  18351762.192   -24075272.338 5 -18643588.477 3
  15063901.027   -39539375.192 7 -29498865.972 8
 94  2  9  5  7 29.9800000  0  8  9  5 24 20 13 12  7  4
  15381627.129   -36403026.981 6 -28128554.556 8
  15476073.004   -24490978.629 6 -18668631.565 8
  14519549.090   -33368528.133 6 -25751327.066 7
  18368788.879    -2270191.045 3  -1061856.161 2
  15812180.379   -41429483.603 6 -25890034.087 6
  14951444.285   -36078426.002 6 -24067021.180 7
  18355850.215   -24053752.291 5 -18626819.630 3
  15062411.988   -39547193.864 7 -29504958.452 8
 94  2  9  5  7 59.9800000  0  8  9  5 24 20 13 12  7  4
  15379736.832   -36412945.746 6 -28136283.480 7
  15453291.270   -24610707.865 6 -18761927.073 7
  14504821.215   -33445913.118 6 -25811627.052 6
  18339975.348    -2421654.049 3  -1179879.272 1
  15813770.121   -41421120.530 6 -25883517.411 5
  14941812.371   -36129063.509 6 -24106478.979 6
  18359943.184   -24032266.305 5 -18610077.323 2
  15061014.981   -39554546.297 7 -29510687.622 8
 94  2  9  5  8 29.9800000  0  8  9  5 24 20 13 12  7  4
  15377945.543   -36422372.779 6 -28143629.236 7
  15430549.152   -24730215.509 6 -18855049.909 7
  14490196.387   -33522769.320 6 -25871514.993 6
  18311145.918    -2573124.206 3  -1297907.938 1
  15815387.785   -41412628.139 6 -25876899.957 6
  14932288.684   -36179105.543 6 -24145472.782 7
  18364026.496   -24010810.045 5 -18593358.151 4
  15059704.152   -39561438.898 7 -29516058.466 8
 94  2  9  5  8 59.9800000  0  8  9  5 24 20 13 12  7  4
  15376241.074   -36431318.859 6 -28150600.218 6
  15407845.387   -24849512.399 6 -18948008.526 7
  14475675.387   -33599077.763 6 -25930976.115 6
  18282322.731    -2724595.586 3  -1415937.549 1
  15817028.223   -41404003.608 6 -25870179.554 6
  14922878.137   -36228547.096 6 -24183998.668 6
  18368110.340   -23989373.187 5 -18576654.105 3
  15058477.676   -39567877.204 7 -29521075.326 7
 94  2  9  5  9 29.9800000  0  8  9  5 24 20 13 12  7  4
  15374626.332   -36439796.290 6 -28157206.003 6
  15385185.004   -24968598.863 6 -19040803.159 7
  14461258.590   -33674838.797 6 -25990010.673 6
  18253496.942    -2876075.075 3  -1533973.494 1
  15818693.606   -41395257.188 6 -25863364.163 6
  14913584.871   -36277395.889 6 -24222062.657 6
  18372186.707   -23967952.421 5 -18559962.616 1
  15057339.629   -39573862.507 6 -29525739.200 8
 94  2  9  5  9 59.9800000  0  8  9  5 24 20 13 12  7  4
  15373101.824   -36447821.426 6 -28163459.373 7
  15362559.145   -25087499.134 6 -19133452.734 8
  14446945.738   -33750065.371 7 -26048628.777 7
  18224663.832    -3027570.396 3  -1652021.802 2
  15820381.949   -41386400.277 7 -25856462.679 6
  14904400.910   -36325661.144 6 -24259671.953 7
  18376252.715   -23946546.586 4 -18543282.725 2
  15056287.262   -39579387.553 6 -29530044.441 8
 94  2  9  5 10 29.9800000  0  8  9  5 24 20 13 12  7  4
  15371664.527   -36455373.904 6 -28169344.419 6
  15339972.817   -25206191.775 6 -19225940.510 7
  14432737.027   -33824729.713 6 -26106808.769 6
  18195845.356    -3179064.108 3  -1770068.846 1
  15822089.684   -41377418.702 7 -25849464.057 5
  14895329.699   -36373326.609 6 -24296813.889 6
  18380327.887   -23925133.500 4 -18526597.250 1
  15055329.238   -39584426.357 6 -29533970.782 7
 94  2  9  5 10 59.9790000  0  8  9  5 24 20 13 12  7  4
  15370318.694   -36462444.839 6 -28174854.248 7
  15317434.624   -25324647.425 7 -19318243.615 7
  14418630.663   -33898852.021 7 -26164566.408 6
  18167010.140    -3330557.448 2  -1888115.575 1
  15823820.780   -41368322.404 7 -25842376.028 6
  14886370.140   -36420398.322 6 -24333493.142 7
  18384402.585   -23903718.788 3 -18509910.414 2
  15054461.718   -39588983.145 6 -29537521.522 8
 94  2  9  5 11 29.9790000  0  8  9  5 24 20 13 12  7  4
  15369070.585   -36469017.714 6 -28179975.977 7
  15294940.655   -25442846.243 7 -19410346.601 7
  14404627.171   -33972446.686 7 -26221912.890 7
  18138178.194    -3482048.632 2  -2006160.634 2
  15825573.882   -41359102.755 7 -25835191.892 6
  14877527.663   -36466868.922 6 -24369704.008 7
  18388481.741   -23882297.522 3 -18493218.512 1
  15053689.523   -39593050.059 6 -29540690.557 8
 94  2  9  5 11 59.9790000  0  8  9  5 24 20 13 12  7  4
  15367915.069   -36475078.117 6 -28184698.389 7
  15272500.788   -25560772.630 7 -19502237.294 7
  14390723.312   -34045501.903 6 -26278839.029 6
  18109365.874    -3633516.500 3  -2124187.520 1
  15827355.085   -41349747.041 7 -25827901.724 6
  14868802.687   -36512722.025 6 -24405433.701 6
  18392564.640   -23860859.139 3 -18476513.300 1
  15053008.960   -39596613.408 6 -29543467.193 7
 94  2  9  5 12 29.9790000  0  8  9  5 24 20 13 12  7  4
  15366856.499   -36480630.903 6 -28189025.245 7
  15250111.999   -25678415.349 7 -19593906.945 7
  14376924.835   -34118024.214 6 -26335349.909 6
  18080537.632    -3784967.483 3  -2242201.250 1
  15829158.648   -41340265.245 7 -25820513.315 5
  14860192.163   -36557965.382 6 -24440688.268 6
  18396645.765   -23839416.110 3 -18459804.453 1
  15052423.218   -39599695.487 6 -29545868.808 7
 94  2  9  5 12 59.9790000  0  8  9  5 24 20 13 12  7  4
  15365900.648   -36485672.076 6 -28192953.446 7
  15227777.734   -25795782.336 7 -19685361.750 8
  14363220.960   -34190024.871 6 -26391454.317 7
  18051724.718    -3936399.522 3  -2360200.290 1
  15830987.843   -41330658.564 6 -25813027.582 6
  14851699.468   -36602598.362 6 -24475467.225 7
  18400720.960   -23817986.120 3 -18443105.792 2
  15051925.507   -39602315.300 6 -29547910.220 8
 94  2  9  5 13 29.9790000  0  8  9  5 24 20 13 12  7  4
  15365032.718   -36490214.255 6 -28196492.818 8
  15205489.609   -25912909.420 7 -19776629.588 8
  14349623.226   -34261499.748 6 -26447149.015 7
  18022909.054    -4087816.674 3  -2478187.646 2
  15832838.327   -41320934.560 6 -25805450.435 6
  14843321.874   -36646626.439 6 -24509774.826 7
  18404793.898   -23796577.540 3 -18426423.787 2
  15051509.937   -39604486.987 7 -29549602.444 8
 94  2  9  5 13 59.9790000  0  8  9  5 24 20 13 12  7  4
  15364261.530   -36494269.518 6 -28199652.774 7
  15183246.116   -26029805.662 7 -19867717.585 8
  14336122.765   -34332435.051 6 -26502423.268 6
  17994099.265    -4239214.372 3  -2596159.921 1
  15834708.069   -41311092.173 6 -25797781.060 5
  14835059.648   -36690046.510 6 -24543608.653 6
  18408863.882   -23775179.259 3 -18409749.849 3
  15051181.851   -39606216.000 7 -29550949.728 7
 94  2  9  5 14 29.9790000  0  8  9  5 24 20 13 12  7  4
  15363580.046   -36497839.286 6 -28202434.429 7
  15161046.616   -26146464.228 7 -19958620.360 8
  14322724.038   -34402835.603 6 -26557280.836 7
  17965299.062    -4390590.259 3  -2714115.140 2
  15836609.109   -41301132.488 6 -25790020.286 5
  14826911.796   -36732857.914 6 -24576968.200 7
  18412935.265   -23753790.766 3 -18393083.506 2
  15050938.374   -39607513.783 7 -29551960.986 7
 94  2  9  5 14 59.9790000  0  8  9  5 24 20 13 12  7  4
  15362994.944   -36500921.630 6 -28204836.261 7
  15138891.046   -26262898.720 6 -20049348.537 8
  14309429.609   -34472706.613 6 -26611725.783 7
  17936494.648    -4541945.111 3  -2832054.010 1
  15838520.944   -41291059.606 6 -25782171.266 5
  14818882.554   -36775062.619 6 -24609854.981 7
  18417007.124   -23732394.094 3 -18376410.794 4
  15050770.694   -39608379.512 7 -29552635.569 8
 94  2  9  5 15 29.9790000  0  8  9  5 24 20 13 12  7  4
  15362503.140   -36503529.293 6 -28206868.207 6
  15116774.874   -26379108.321 7 -20139901.478 7
  14296232.054   -34542049.265 6 -26665758.993 6
  17907698.788    -4693281.546 4  -2949978.476 2
  15840459.991   -41280879.476 6 -25774238.710 5
  14810962.929   -36816665.088 6 -24642272.503 6
  18421087.859   -23710980.287 3 -18359724.733 5
  15050691.343   -39608806.890 7
 94  2  9  5 15 59.9790000  0  8  9  5 24 20 13 12  7  4
  15362096.530   -36505640.670 6 -28208513.457 7
  15094709.601   -26495061.403 7 -20230254.522 8
  14283141.952   -34610858.938 6 -26719376.913 7
  17878902.585    -4844585.069 4  -3067877.321 3
  15842420.921   -41270581.136 6 -25766214.031 5
  14803165.366   -36857652.349 6 -24674210.633 6
  18425162.687   -23689537.237 3 -18343015.867 4
  15050694.984   -39608780.897 7
 94  2  9  5 16 29.9790000  0  8  9  5 24 20 13 12  7  4
  15361797.921   -36507235.421 6 -28209756.123 6
  15072692.007   -26610755.622 6 -20320405.864 7
  14270147.319   -34679135.475 6 -26772579.410 6
  17850120.530    -4995860.809 4  -3185754.541 2
  15844401.944   -41260173.231 6 -25758103.944 5
  14795479.452   -36898031.459 6 -24705674.888 6
  18429246.694   -23668069.028 3 -18326287.376 3
  15050783.765   -39608300.917 7
 94  2  9  5 16 59.9790000  0  7  9  5 24 20 13 12  4
  15361586.319   -36508316.265 6 -28210598.366 7
  15050727.671   -26726195.380 7 -20410358.928 8
  14257260.609   -34746863.984 6 -26825354.870 7
  17821331.054    -5147109.310 4  -3303610.498 3
  15846404.421   -41249659.676 6 -25749911.580 5
  14787912.679   -36937804.283 6 -24736666.707 7
  15050961.569   -39607363.315 7 -29551843.734 8
 94  2  9  5 17 29.9790000  0  7  9  5 24 20 13 12  4
  15361478.640   -36508900.628 6 -28211053.730 7
  15028808.694   -26841376.956 7 -20500110.809 8
  14244474.359   -34814043.157 6 -26877702.269 7
  17792553.257    -5298335.002 4  -3421448.703 1
  15848419.249   -41239048.296 6 -25741642.973 5
  14780458.999   -36976977.339 6 -24767191.172 7
  15051228.374   -39605974.613 7 -29550761.614 8
 94  2  9  5 17 59.9790000  0  7  9  5 24 20 13 12  4
  15361464.413   -36508991.756 6
  15006940.116   -26956302.943 7 -20589663.511 7
  14231794.062   -34880679.326 6 -26929626.548 6
  17763785.452    -5449541.767 4  -3539272.185 1
  15850456.898   -41228346.574 6 -25733303.959 5
  14773119.077   -37015556.179 6 -24797252.608 6
  15051576.851   -39604146.477 7 -29549337.089 7
 94  2  9  5 18 29.9790000  0  7  9  5 24 20 13 12  4
  15361539.390   -36508602.286 6
  14985122.163   -27070958.000 7 -20679005.117 7
  14219221.101   -34946760.001 6 -26981117.977 6
  17735010.632    -5600715.619 4  -3657069.979 2
  15852512.812   -41217543.704 6 -25724886.139 5
  14765892.366   -37053528.351 6 -24826841.319 6
  15052010.984   -39601876.205 7 -29547568.041 7
 94  2  9  5 18 59.9790000  0  7  9  5 24 20 13 12  4
  15361695.288   -36507766.082 6 -28210169.706 6
  14963351.796   -27185353.848 7 -20768144.741 7
  14206746.515   -35012309.121 6 -27032195.217 6
  17706253.866    -5751855.911 4  -3774841.638 2
  15854587.655   -41206642.716 7 -25716391.863 5
  14758778.499   -37090895.433 6 -24855958.530 6
  15052523.023   -39599174.822 6 -29545463.077 7
 94  2  9  5 19 29.9790000  0  7  9  5 24 20 13 12  4
  15361928.015   -36506504.277 6 -28209186.495 7
  14941631.351   -27299497.787 7 -20857088.074 8
  14194365.538   -35077364.355 6 -27082887.594 7
  17677503.991    -5902969.843 4  -3892592.757 2
  15856680.452   -41195654.108 7 -25707829.311 6
  14751782.648   -37127666.272 6 -24884611.140 6
  15053116.101   -39596061.612 6 -29543037.198 8
 94  2  9  5 19 59.9790000  0  7  9  5 24 20 13 12  4
  15362250.523   -36504824.946 6 -28207877.944 7
  14919959.694   -27413380.643 7 -20945827.963 8
  14182082.249   -35141927.873 6 -27133196.825 7
  17648745.265    -6054048.831 3  -4010316.622 2
  15858787.296   -41184572.643 7 -25699194.406 5
  14744900.718   -37163834.318 6 -24912794.044 6
  15053782.460   -39592548.466 6 -29540299.690 8
 94  2  9  5 20 29.9790000  0  7  9  5 24 20 13 12  4
  15362650.882   -36502731.391 6 -28206246.606 7
  14898341.663   -27526994.759 7 -21034358.438 7
  14169890.952   -35205987.126 6 -27183113.115 6
  17620005.812    -6205093.347 4  -4128013.681 2
  15860912.671   -41173402.458 6 -25690490.369 5
  14738131.101   -37199402.252 6 -24940509.326 6
  15054528.515   -39588629.895 6 -29537246.270 7
 94  2  9  5 20 59.9790000  0  7  9  5 24 20 13 12  4
  15363134.882   -36500202.328 6 -28204275.920 6
  14876772.546   -27640328.114 7 -21122670.144 7
  14157800.812   -35269516.969 6 -27232616.886 6
  17591268.491    -6356093.554 3  -4245676.150 2
  15863056.851   -41162136.833 6 -25681711.966 5
  14731479.132   -37234361.787 6 -24967750.523 6
  15055354.023   -39584283.356 6 -29533859.364 7
 94  2  9  5 21 29.9790000  0  7  9  5 24 20 13 12  4
  15363699.765   -36497236.989 6 -28201965.282 7
  14855262.304   -27753364.500 7 -21210750.449 7
  14145813.843   -35332504.836 6 -27281698.326 7
  17562545.780    -6507056.411 3  -4363309.557 4
  15865217.491   -41150786.318 6 -25672867.426 6
  14724942.109   -37268722.088 6 -24994524.785 6
  15056264.663   -39579509.330 6 -29530139.344 7
 94  2  9  5 21 59.9790000  0  7  9  5 24 20 13 12  4
  15364345.913   -36493818.101 6 -28199301.231 6
  14833812.593   -27866096.307 7 -21298593.420 7
  14133938.648   -35394921.401 6 -27330334.615 6
  17533825.335    -6657983.244 3  -4480914.871 2
  15867389.523   -41139355.442 6 -25663960.252 5
  14718517.476   -37302486.334 6 -25020834.593 6
  15057255.038   -39574299.970 7 -29526080.110 7
 94  2  9  5 22 29.9790000  0  7  9  5 24 20 13 12  4
  15365089.523   -36489920.603 6 -28196264.228 6
  14812416.913   -27978526.278 7 -21386201.186 8
  14122168.796   -35456756.003 6 -27378517.420 6
  17505110.163    -6808867.546 4  -4598487.057 2
  15869583.827   -41127841.109 6 -25654988.050 6
  14712204.976   -37335650.224 6 -25046676.597 7
  15058335.921   -39568634.659 7 -29521665.583 8
 94  2  9  5 22 59.9790000  0  7  9  5 24 20 13 12  4
  15365920.859   -36485549.149 6 -28192857.928 6
  14791078.234   -28090650.673 7 -21473570.843 7
  14110510.210   -35518027.869 6 -27426261.723 6
  17476405.796    -6959698.214 3  -4716017.420 1
  15871791.390   -41116235.863 6 -25645945.014 5
  14706010.655   -37368204.826 6 -25072043.826 6
  15059497.773   -39562527.238 7 -29516906.565 7
 94  2  9  5 23 29.9790000  0  7  9  5 24 20 13 12  4
  15366839.874   -36480714.538 6 -28189090.715 6
  14769801.187   -28202474.443 7 -21560706.250 7
  14098958.702   -35578757.723 7 -27473583.681 6
  17447720.632    -7110478.222 4  -4833508.342 2
  15874014.866   -41104551.199 6 -25636840.079 5
  14699926.429   -37400160.531 6 -25096944.383 7
  15060736.929   -39556016.178 7 -29511833.008 7
 94  2  9  5 23 59.9790000  0  7  9  5 24 20 13 12  4
  15367849.960   -36475422.318 6 -28184966.904 6
  14748574.648   -28314012.271 7 -21647618.847 7
  14087497.835   -35638966.477 6 -27520499.586 6
  17419026.202    -7261228.030 3  -4950975.733 2
  15876254.804   -41092795.823 6 -25627680.059 5
  14693961.679   -37431524.995 6 -25121384.234 6
  15062048.640   -39549117.290 7 -29506457.245 7
 94  2  9  5 24 29.9790000  0  7  9  5 24 20 13 12  4
  15368942.202   -36469689.893 6 -28180500.089 6
  14727406.257   -28425263.839 7 -21734308.385 7
  14076133.859   -35698669.268 6 -27567021.237 6
  17390350.530    -7411926.952 4  -5068403.444 4
  15878500.788   -41080967.685 6 -25618463.332 5
  14688106.265   -37462294.702 6 -25145360.646 6
  15063432.796   -39541834.920 7 -29500782.660 7
 94  2  9  5 24 59.9790000  0  7  9  5 24 20 13 12  4
  15370115.484   -36463517.748 6 -28175690.638 6
  14706291.359   -28536213.025 6 -21820762.291 6
  14064872.796   -35757853.699 6 -27613138.971 6
  17361685.640    -7562571.933 4  -5185789.116 2
  15880767.937   -41069062.063 6 -25609186.233 4
  14682362.859   -37492464.041 6 -25168869.222 6
  15064892.632   -39534172.680 7 -29494812.086 6
 94  2  9  5 25 29.9780000  0  7  9  5 24 20 13 12  4
  15371371.424   -36456898.543 6 -28170532.836 6
  14685235.322   -28646862.363 6 -21906982.561 7
  14053713.971   -35816501.327 6 -27658838.417 6
  17333028.393    -7713161.175 4  -5303131.391 2
  15883044.049   -41057085.823 6 -25599854.092 4
  14676738.486   -37522037.281 6 -25191913.314 6
  15066426.127   -39526116.362 7 -29488534.431 7
 94  2  9  5 25 59.9780000  0  7  9  5 24 20 13 12  4
  15372715.971   -36449837.578 6 -28165030.800 6
  14664232.533   -28757231.684 7 -21992984.622 7
  14042657.682   -35874603.404 6 -27704112.748 6
  17304388.322    -7863694.211 4  -5420429.849 2
  15885339.901   -41045031.161 6 -25590460.836 4
  14671221.315   -37551008.237 6 -25214488.085 6
  15068041.018   -39517630.330 7 -29481921.929 7
 94  2  9  5 26 29.9780000  0  8  9  5 24 20 13 12 16  4
  15374138.838   -36442355.481 6 -28159200.609 6
  14643283.041   -28867324.707 7 -22078771.388 7
  14031705.447   -35932162.030 6 -27748963.623 6
  17275743.994    -8014173.522 4  -5537686.461 2
  15887649.377   -41032909.551 6 -25581015.410 4
  14665823.947   -37579385.913 6 -25236600.572 6
  18366353.385          -0.54412
  15069734.190   -39508727.859 7 -29474984.933 7
 94  2  9  5 26 59.9780000  0  8  9  5 24 20 13 12 16  4
  15375643.432   -36434446.886 6 -28153038.075 6
  14622387.877   -28977137.536 7 -22164339.823 8
  14020855.729   -35989183.872 6 -27793396.216 6
  17247127.955    -8164592.845 5  -5654896.296 4
  15889968.080   -41020718.106 6 -25571515.580 5
  14660536.236   -37607166.841 6 -25258248.057 7
  18338519.127          -0.58013
  15071510.494   -39499406.802 6 -29467721.774 7
 94  2  9  5 27 29.9780000  0  8  9  5 24 20 13 12 16  4
  15377228.619   -36426132.881 6 -28146559.640 6
  14601542.127   -29086673.750 6 -22249692.715 7
  14010103.424   -36045684.413 6 -27837422.609 6
  17218512.236    -8314952.051 4  -5772059.303 2
  15892298.776   -41008460.139 6 -25561963.924 4
  14655362.768   -37634353.238 6 -25279432.279 7
  18310648.041     -146430.542 3
  15073362.713   -39489665.207 6 -29460130.924 7
 94  2  9  5 27 59.9780000  0  8  9  5 24 20 13 12 16  4
  15378887.330   -36417418.834 6 -28139769.484 6
  14580753.776   -29195915.646 7 -22334816.264 7
  13999445.572   -36101674.847 6 -27881051.507 6
  17189909.979    -8465241.422 5  -5889167.880 2
  15894645.369   -40996129.358 6 -25552355.523 5
  14650303.354   -37660937.720 6 -25300147.458 6
  18282775.861     -292950.352 3        -0.46811
  15075296.893   -39479513.424 6 -29452220.436 6
 94  2  9  5 28 29.9780000  0  8  9  5 24 20 13 12 16  4
  15380621.947   -36408300.227 6 -28132664.091 6
  14560024.510   -29304847.189 7 -22419697.984 7
  13988885.635   -36157176.037 6 -27924299.186 6
  17161328.033    -8615464.812 5  -6006225.048 2
  15897006.729   -40983732.724 6 -25542695.807 5
  14645359.072   -37686926.560 6 -25320398.512 6
  18254856.026     -439587.189 3   -114262.918 1
  15077298.471   -39468975.194 6 -29444008.827 7
 94  2  9  5 28 59.9780000  0  8  9  5 24 20 13 12 16  4
  15382430.682   -36398784.582 6 -28125249.311 6
  14539355.424   -29413474.249 7 -22504342.440 7
  13978417.354   -36212188.900 6 -27967166.349 6
  17132751.893    -8765624.764 5  -6123232.811 2
  15899374.557   -40971276.291 6 -25532989.500 5
  14640525.760   -37712325.028 6 -25340189.533 6
  18226935.330     -586342.305 3   -228617.499 1
  15079375.127   -39458060.141 6 -29435503.596 7
 94  2  9  5 29 29.9780000  0  8  9  5 24 20 13 12 16  4
  15384322.916   -36388857.327 6 -28117513.791 6
  14518747.283   -29521778.156 7 -22588735.095 7
  13968044.463   -36266689.077 6 -28009634.018 6
  17104191.463    -8915708.870 5  -6240181.437 3
  15901759.018   -40958751.084 6 -25523229.597 5
  14635807.736   -37737123.293 6 -25359512.871 6
  18198997.252     -733195.613 3
  15081525.432   -39446767.137 6 -29426703.868 7
 94  2  9  5 29 59.9780000  0  8  9  5 24 20 13 12 16  4
  15386293.291   -36378505.434 6 -28109447.390 6
  14498197.947   -29629756.570 7 -22672874.117 7
  13957772.682   -36320683.988 6 -28051707.965 6
  17075648.111    -9065718.905 5  -6357072.355 3
  15904155.041   -40946162.138 6 -25513420.045 5
  14631202.658   -37761325.499 6 -25378371.733 6
  18171030.385     -880129.064 2
  15083744.838   -39435105.888 6 -29417617.179 7
 94  2  9  5 30 29.9780000  0  8  9  5 24 20 13 12 16  4
  15388340.033   -36367722.289 6 -28101044.966 6
  14477713.697   -29737410.608 7 -22756760.387 7
  13947594.291   -36374161.780 6 -28093378.966 6
  17047115.205    -9215654.225 5  -6473905.078 3
  15906560.104   -40933512.515 6 -25503563.197 5
  14626710.643   -37784934.048 6 -25396768.015 6
  18143049.322    -1027116.657 1
  15086034.010   -39423076.363 6 -29408243.527 7
 94  2  9  5 30 59.9780000  0  8  9  5 24 20 13 12 16  4
  15390474.354   -36356502.594 6 -28092302.352 6
  14457288.479   -29844739.879 7 -22840393.587 7
  13937519.033   -36427106.290 6 -28134634.426 6
  17018597.197    -9365511.222 5  -6590676.767 2
  15908981.760   -40920801.863 6
  14622330.377   -37807948.022 6 -25414700.990 6
  18115092.697    -1174153.259 2        -0.49711
  15088394.338   -39410678.283 6
 94  2  9  5 31 29.9780000  0  8  9  5 24 20 13 12 16  4
  15392699.408   -36344835.844 6 -28083211.400 6
  14436927.635   -29951737.663 7 -22923768.480 7
  13927544.971   -36479519.794 6 -28175476.111 6
  16990098.643    -9515284.323 5  -6707383.074 3
  15911411.330   -40908027.942 6
  14618064.604   -37830364.491 6 -25432168.376 6
  18087092.354    -1321238.007 1   -114612.046 1
  15090822.994   -39397905.468 6
 94  2  9  5 31 59.9780000  0  8  9  5 24 20 13 12 16  4
  15395003.166   -36332730.609 6 -28073778.754 6
  14416625.807   -30058413.843 7 -23006892.775 7
  13917674.221   -36531397.268 6 -28215900.106 6
  16961606.947    -9664977.203 5  -6824026.849 1
  15913854.963   -40895197.883 6 -25473707.665 5
  14613910.143   -37852189.860 6 -25449175.160 6
  18059081.354    -1468382.933 2
  15093323.377   -39384759.235 7 -29378386.032 7
 94  2  9  5 32 29.9780000  0  8  9  5 24 20 13 12 16  4
  15397388.166   -36320184.225 6
  14396388.369   -30164759.013 6 -23089759.139 7
  13907909.502   -36582709.710 6 -28255883.826 6
  16933144.088    -9814578.219 5  -6940599.086 2
  15916306.854   -40882303.232 6
  14609873.580   -37873415.508 6 -25465714.643 6
  18031070.471    -1615583.961 2
  15095897.666   -39371240.938 6 -29367852.300 6
 94  2  9  5 32 59.9780000  0  8  9  5 24 20 13 12 16  4
  15399859.494   -36307219.506 6 -28053900.000 6
  14376213.760   -30270783.941 6 -23172375.971 7
  13898250.541   -36633463.951 6 -28295432.579 6
  16904695.315    -9964094.030 5  -7057104.901 2
  15918768.572   -40869354.461 6 -25453569.950 5
  14605945.127   -37894050.792 6 -25481794.098 6
  18003052.799    -1762850.330 3
  15098537.901   -39357361.280 6 -29357036.983 7
 94  2  9  5 33 29.9780000  0  8  9  5 24 20 13 12 16  4
  15402396.557   -36293854.249 6 -28043485.537 6
  14356098.791   -30376490.205 6 -23254744.486 6
  13888693.065   -36683677.571 6 -28334560.079 6
  16876253.651   -10113529.890 5  -7173548.439 2
  15921247.213   -40856360.187 6 -25443444.536 5
  14602131.486   -37914104.044 6 -25497420.019 6
  17975026.291    -1910173.501 4
  15101246.486   -39343127.196 6 -29345945.497 6
 94  2  9  5 33 59.9780000  0  8  9  5 24 20 13 12 16  4
  15405018.955   -36280091.985 6 -28032761.704 6
  14336043.807   -30481873.276 6 -23336861.162 7
  13879243.533   -36733357.258 6 -28373271.518 6
  16847837.963   -10262878.209 5  -7289923.727 4
  15923724.572   -40843316.150 6 -25433280.362 5
  14598421.908   -37933570.726 6 -25512588.868 6
  17946974.846    -2057543.708 3        -0.40511
  15104023.869   -39328534.770 6 -29334574.774 7
 94  2  9  5 34 29.9780000  0  8  9  5 24 20 13 12 16  4
  15407709.197   -36265949.691 6 -28021741.747 6
  14316055.588   -30586922.654 7 -23418717.824 7
  13869888.440   -36782514.397 6 -28411575.778 6
  16819434.463   -10412130.205 5  -7406223.979 1
  15926217.072   -40830216.717 6 -25423073.015 5
  14594830.940   -37952444.707 6 -25527295.883 6
  17918919.299    -2204947.650 3   -114860.671 2
  15106871.588   -39313584.000 6 -29322924.822 6
 94  2  9  5 34 59.9780000  0  8  9  5 24 20 13 12 16  4
  15410470.252   -36251459.350 6 -28010450.572 6
  14296124.807   -30691652.516 6 -23500325.506 6
  13860625.018   -36831190.566 6 -28449505.248 6
  16791044.643   -10561304.432 5  -7522463.616 2
  15928718.463   -40817084.126 6 -25412839.834 3
  14591350.752   -37970747.834 6 -25541558.068 6
  17890848.393    -2352410.753 3   -229766.933 1
  15109781.440   -39298283.509 6 -29311002.355 6
 94  2  9  5 35 29.9780000  0  8  9  5 24 20 13 12 16  4
  15413290.830   -36236626.333 6 -27998892.378 6
  14276260.979   -30796041.036 7 -23581667.211 7
  13851454.526   -36879386.816 6 -28487060.775 6
  16762678.674   -10710387.452 5  -7638632.204 3
  15931224.776   -40803908.200 6 -25402572.866 3
  14587980.783   -37988469.646 6 -25555367.274 6
  17862796.877    -2499931.119 3   -344717.889 1
  15112761.033   -39282618.484 6 -29298795.841 6
 94  2  9  5 35 59.9780000  0  8  9  5 24 20 13 12 16  4
  15416178.408   -36221448.493 6 -27987065.502 6
  14256464.932   -30900073.256 7 -23662731.281 6
  13842376.596   -36927084.244 6 -28524227.596 6
  16734325.393   -10859368.744 5  -7754721.564 2
  15933743.955   -40790681.638 6 -25392266.447 4
  14584715.979   -38005602.636 6 -25568717.665 6
  17834731.299    -2647504.914 4   -459710.519 1
  15115811.229   -39266591.095 7 -29286306.966 6
 94  2  9  5 36 29.9780000  0  8  9  5 24 20 13 12 16  4
  15419132.322   -36205942.288 6 -27974982.768 6
  14236734.205   -31003749.062 7 -23743517.626 6
  13833394.221   -36974286.339 6 -28561008.438 6
  16705996.986   -11008261.596 5  -7870741.940 3
  15936263.143   -40777421.148 6 -25381933.598 3
  14581568.315   -38022163.072 6 -25581621.920 6
  17806632.057    -2795146.450 3   -574755.916 1
  15118929.666   -39250220.306 6 -29273550.503 6
 94  2  9  5 36 59.9780000  0  8  9  5 24 20 13 12 16  4
  15422146.026   -36190078.852 6 -27962621.679 6
  14217078.463   -31107062.881 7 -23824021.904 6
  13824506.307   -37020995.350 6 -28597405.073 6
  16677680.151   -11157060.835 5  -7986689.402 1
  15938795.018   -40764125.176 6 -25371573.117 4
  14578524.713   -38038149.130 6 -25594078.593 6
  17778510.182    -2942849.079 2   -689848.791 1
  15122107.619   -39233494.540 6 -29260517.447 6
 94  2  9  5 37 29.9780000  0  8  9  5 24 20 13 12 16  4
  15425234.596   -36173850.585 6 -27949976.284 6
  14197485.627   -31210026.859 7 -23904253.578 7
  13815712.026   -37067208.839 6 -28633415.587 6
  16649376.369   -11305767.237 5  -8102564.520 3
  15941333.955   -40750797.640 6 -25361188.027 4
  14575589.174   -38053564.487 6 -25606090.581 6
  17750354.049    -3090611.751 1   -804988.470 2
  15125353.049   -39216432.250 6 -29247222.157 6
 94  2  9  5 37 59.9780000  0  8  9  5 24 20 13 12 16  4
  15428398.854   -36157238.677 6 -27937031.949 6
  14177952.494   -31312658.534 7 -23984226.306 6
  13807012.213   -37112925.210 6 -28669038.728 6
  16621094.197   -11454380.037 5  -8218366.712 1
  15943871.221   -40737441.338 6 -25350780.530 4
  14572765.752   -38068411.977 6 -25617660.053 6
  17722248.658    -3238433.628 2   -920174.308 2
  15128666.322   -39199049.224 6 -29233676.937 6
 94  2  9  5 38 29.9780000  0  8  9  5 24 20 13 12 16  4
  15431635.393   -36140223.406 6 -27923773.317 6
  14158484.252   -31414955.199 7 -24063938.000 6
  13798408.549   -37158140.422 6 -28704271.361 6
  16592837.205   -11602879.081 5  -8334080.223 2
  15946421.596   -40724039.441 6 -25340337.498 5
  14570052.252   -38082674.556 6 -25628773.764 6
  17694146.221    -3386290.421 3  -1035387.377 1
  15132038.705   -39181314.547 6 -29219857.719 6
 94  2  9  5 38 59.9780000  0  8  9  5 24 20 13 12 16  4
  15434947.018   -36122813.113 5 -27910206.856 5
  14139079.947   -31516928.000 7 -24143397.319 7
  13789898.986   -37202852.084 6 -28739111.607 6
  16564605.776   -11751265.801 5  -8449706.235 3
  15948980.541   -40710596.700 6 -25329862.613 4
  14567449.463   -38096356.866 6 -25639435.303 6
  17665999.393    -3534175.380 3  -1150622.441 1
  15135481.244   -39163238.773 6 -29205772.698 6
 94  2  9  5 39 29.9780000  0  8  9  5 24 20 13 12 16  4
  15438334.244   -36105023.415 6 -27896344.776 6
  14119738.041   -31618571.974 7 -24222600.424 7
  13781489.822   -37247045.252 6 -28773547.844 6
  16536388.197   -11899537.050 5  -8565242.274 2
  15951547.244   -40697113.283 6 -25319356.079 4
  14564954.166   -38109459.249 6 -25649644.969 6
  17637838.572    -3682092.971 3
  15138987.033   -39144822.416 6 -29191422.296 6
 94  2  9  5 39 59.9780000  0  8  9  5 24 20 13 12 16  4
  15441789.174   -36086869.086 6 -27882198.560 5
  14100460.651   -31719882.820 7 -24301543.935 7
  13773177.033   -37290730.949 6 -28807588.641 6
  16508193.151   -12047703.756 5
  15954119.291   -40683603.620 6 -25308829.069 4
  14562569.135   -38121995.877 6 -25659413.772 6
  17609681.322    -3830035.447 3
  15142553.252   -39126058.696 6 -29176801.216 6
 94  2  9  5 40 29.9770000  0  8  9  5 24 20 13 12 16  4
  15445312.177   -36068354.842 6 -27867771.883 5
  14081248.599   -31820829.490 7 -24380203.674 6
  13764960.060   -37333908.051 6 -28841233.133 6
  16480023.099   -12195749.712 5
  15956693.357   -40670059.944 6 -25298275.548 3
  14560291.825   -38133958.113 6 -25668735.008 6
  17581518.153    -3977970.887 3
  15146195.841   -39106929.314 6 -29161895.200 6
 94  2  9  5 40 59.9770000  0  8  9  5 24 20 13 12 16  4
  15448902.591   -36049492.200 6 -27853073.731 5
  14062107.364   -31921413.232 7 -24458580.617 7
  13756841.771   -37376574.850 6 -28874479.985 6
  16451868.333   -12343688.715 5
  15959277.544   -40656488.841 6 -25287700.665 3
  14558124.888   -38145354.456 6 -25677615.282 6
  17553360.466    -4125917.569 3
  15149905.685   -39087446.522 6 -29146713.808 6
 94  2  9  5 41 29.9770000  0  8  9  5 24 20 13 12 16  4
  15452559.700   -36030270.478 6 -27838095.779 5
  14043040.521   -32021619.492 7 -24536663.411 6
  13748816.364   -37418740.408 6 -28907336.249 6
  16423740.349   -12491507.193 5
  15961864.661   -40642885.347 6 -25277100.539 4
  14556062.888   -38156179.132 6 -25686050.106 6
  17525227.427    -4273864.846 3
  15153679.278   -39067609.722 6 -29131256.570 6
 94  2  9  5 41 59.9770000  0  8  9  5 24 20 13 12 16  4
  15456283.036   -36010691.574 6 -27822839.492 5
  14024043.325   -32121454.520 7 -24614456.938 6
  13740885.583   -37460428.902 6 -28939820.799 6
  16395634.802   -12639211.530 5  -9141611.932 2
  15964457.700   -40629259.164 6 -25266482.725 2
  14554113.200   -38166441.785 6 -25694046.991 6
  17497081.427    -4421807.610 3        -0.29111
  15157511.818   -39047457.401 6 -29115553.461 6
 94  2  9  5 42 29.9770000  0  8  9  5 24 20 13 12 16  4
  15460079.357   -35990760.928 5 -27807309.139 5
  14005115.185   -32220915.948 6 -24691959.352 6
  13733044.896   -37501633.276 6 -28971928.104 6
  16367551.794   -12786794.280 5  -9256611.461 3
  15967058.427   -40615606.318 6 -25255844.170 3
  14552266.778   -38176138.954 6 -25701603.240 6
  17468926.810    -4569759.305 3   -115287.324 1
  15161402.466   -39027010.228 6 -29099620.599 6
 94  2  9  5 42 59.9770000  0  8  9  5 24 20 13 12 16  4
  15463934.075   -35970477.298 5 -27791503.717 6
  13986257.771   -32320006.496 6 -24769172.766 6
  13725298.161   -37542345.594 6 -29003651.976 6
  16339488.153   -12934260.409 5  -9371520.117 3
  15969658.005   -40601934.972 6 -25245191.141 5
  14550526.349   -38185278.862 6 -25708725.251 6
  17440771.497    -4717731.425 3   -230590.258 1
  15165346.435   -39006289.976 6 -29083474.949 6
 94  2  9  5 43 29.9770000  0  8  9  5 24 20 13 12 16  4
  15467859.911   -35949846.356 5 -27775427.678 5
  13967476.271   -32418714.810 6 -24846088.337 6
  13717641.997   -37582574.982 6 -29034999.546 6
  16311450.177   -13081604.705 5  -9486333.850 3
  15972263.622   -40588243.439 6 -25234522.421 5
  14548894.614   -38193860.138 6 -25715411.979 6
  17412598.833    -4865708.342 3   -345896.952 1
  15169342.443   -38985301.729 6 -29067120.478 6
 94  2  9  5 43 59.9770000  0  8  9  5 24 20 13 12 16  4
  15471853.732   -35928881.527 6 -27759091.454 5
  13948767.396   -32517034.280 6 -24922700.900 6
  13710081.786   -37622303.235 6 -29065956.621 6
  16283431.700   -13228822.630 5  -9601049.109 3
  15974872.536   -40574530.614 6 -25223837.111 3
  14547366.060   -38201881.659 6 -25721662.522 6
  17384442.153    -5013688.025 3   -461205.734 1
  15173387.005   -38964036.161 6 -29050549.896 6
 94  2  9  5 44 29.9770000  0  8  9  5 24 20 13 12 16  4
  15475902.450   -35907607.806 6 -27742514.529 5
  13930129.974   -32614975.926 6 -24999019.062 6
  13702619.505   -37661526.654 6 -29096520.326 6
  16255444.068   -13375919.363 5  -9715669.931 2
  15977484.505   -40560804.867 6 -25213141.715 4
  14545942.864   -38209352.370 6 -25727483.858 6
  17356281.818    -5161678.799 3   -576523.222 1
  15177488.200   -38942480.983 6 -29033753.653 6
 94  2  9  5 44 59.9770000  0  8  9  5 24 20 13 12 16  4
  15480005.427   -35886036.305 6 -27725705.579 5
  13911560.146   -32712552.784 6 -25075052.980 7
  13695245.396   -37700263.465 6 -29126704.852 6
  16227476.013   -13522900.970 5  -9830201.048 2
  15980096.919   -40547075.581 6 -25202443.583 4
  14544628.153   -38216282.008 6 -25732883.590 6
  17328094.794    -5309679.104 2   -691848.040 1
  15181645.075   -38920636.765 6 -29016732.183 6
 94  2  9  5 45 29.9770000  0  8  9  5 24 20 13 12 16  4
  15484169.185   -35864156.957 5 -27708656.752 5
  13893065.849   -32809755.554 7 -25150795.393 6
  13687966.989   -37738507.094 6 -29156505.081 6
  16199530.614   -13669744.964 5  -9944624.924 2
  15982715.638   -40533323.597 6 -25191727.762 3
  14543414.114   -38222651.828 6 -25737847.100 6
  17299942.732    -5457671.472 3   -807166.737 1
  15185860.732   -38898476.830 6 -28999464.697 6
 94  2  9  5 45 59.9770000  0  8  9  5 24 20 13 12 16  4
  15488395.638   -35841960.103 6 -27691360.523 5
  13874632.646   -32906597.655 6 -25226256.768 6
  13680783.263   -37776264.562 6 -29185926.478 6
  16171613.107   -13816449.748 5 -10058940.321 2
  15985337.528   -40519550.685 6 -25180995.598 4
  14542309.310   -38228463.893 6 -25742375.986 6
  17271798.794    -5605663.135 3   -922484.955 1
  15190141.794   -38875995.160 6 -28981946.517 6
 94  2  9  5 46 29.9770000  0  8  9  5 24 20 13 12 16  4
  15492678.028   -35819444.603 6 -27673815.977 5
  13856273.216   -33003088.506 7 -25301444.447 7
  13673685.568   -37813564.357 6 -29214991.253 6
  16143722.732   -13963018.996 5 -10173150.134 2
  15987954.169   -40505764.036 6 -25170252.780 4
  14541306.833   -38233725.771 6 -25746476.158 6
  17243627.794    -5753651.621 3  -1037800.599 3
  15194475.747   -38853204.461 6 -28964187.526 6
 94  2  9  5 46 59.9770000  0  8  9  5 24 20 13 12 16  4
  15497028.943   -35796610.629 6 -27656023.290 5
  13837978.419   -33099221.616 6 -25376353.361 6
  13666670.896   -37850423.987 6 -29243713.032 6
  16115857.185   -14109458.527 5 -10287258.872 4
  15990585.693   -40491972.638 6 -25159506.223 4
  14540410.568   -38238446.972 6 -25750155.030 6
  17215478.232    -5901641.082 4  -1153117.014 1
  15198871.114   -38830108.626 6 -28946190.770 6
 94  2  9  5 47 29.9770000  0  8  9  5 24 20 13 12 16  4
  15501430.755   -35773444.427 6 -27637971.720 5
  13819759.982   -33194976.230 6 -25450967.341 6
  13659742.497   -37886824.708 6 -29272077.235 6
  16088013.427   -14255758.019 5 -10401258.457 3
  15993212.075   -40478169.188 6 -25148750.287 3
  14539616.497   -38242620.860 6 -25753407.413 6
  17187315.099    -6049613.634 4  -1268420.256 1
  15203325.747   -38806700.706 6 -28927950.830 6
 94  2  9  5 47 59.9770000  0  8  9  5 24 20 13 12 16  4
  15505900.028   -35749949.059 5 -27619663.654 5
  13801609.544   -33290340.520 6 -25525277.178 6
  13652905.146   -37922757.662 6 -29300076.931 6
  16060200.630   -14401916.899 5 -10515148.475 4
  15995839.411   -40464356.441 6 -25137987.117 4
  14538923.302   -38246250.707 6 -25756235.877 6
  17159155.130    -6197562.215 3  -1383704.833 1
  15207838.599   -38782987.415 6 -28909472.943 6
 94  2  9  5 48 29.9770000  0  8  9  5 24 20 13 12 16  4
  15510433.028   -35726127.610 5 -27601101.489 5
  13783542.528   -33385303.966 7 -25599274.663 6
  13646162.607   -37958201.202 6 -29327695.264 6
  16032417.380   -14547925.709 5 -10628921.569 3
  15998472.427   -40450528.273 6 -25127211.931 2
  14538336.278   -38249330.878 6 -25758636.022 6
  17131018.458    -6345474.136 4  -1498960.857 1
  15212410.357   -38758969.668 6 -28890757.824 6
 94  2  9  5 48 59.9770000  0  8  9  5 24 20 13 12 16  4
  15515027.216   -35701992.333 5
  13765546.552   -33479867.052 7 -25672960.179 6
  13639512.302   -37993140.310 6 -29354920.547 6
  16004659.552   -14693788.407 5 -10742580.823 4
  16001104.544   -40436692.147 6 -25116430.541 3
  14537855.380   -38251869.500 6 -25760614.172 6
  17102877.232    -6493358.656 3  -1614195.523 1
  15217036.974   -38734652.576 6
 94  2  9  5 49 29.9770000  0  8  9  5 24 20 13 12 16  4
  15519681.771   -35677542.105 5
  13747627.935   -33574026.631 7 -25746331.280 6
  13632963.396   -38027564.264 6 -29381744.408 6
  15976931.044   -14839492.771 5 -10856116.685 4
  16003738.146   -40422839.239 6 -25105636.057 3
  14537477.193   -38253858.294 6 -25762163.894 6
  17074738.982    -6641204.114 3  -1729399.744 1
  15221718.669   -38710049.663 6
 94  2  9  5 49 59.9770000  0  8  9  5 24 20 13 12 16  4
  15524390.818   -35652796.525 5
  13729785.278   -33667798.116 7 -25819399.969 6
  13626505.810   -38061498.209 6 -29408186.443 6
  15949232.950   -14985045.885 5 -10969534.694 4
  16006375.638   -40408979.686 6 -25094836.414 1
  14537198.544   -38255308.376 6 -25763293.837 6
  17046607.185    -6789024.126 3  -1844584.166 1
  15226449.325   -38685177.709 6
 94  2  9  5 50 29.9770000  0  8  9  5 24 20 13 12 16  4
  15529154.216   -35627762.675 5
  13712010.732   -33761183.113 7 -25892167.499 6
  13620143.372   -38094949.833 6 -29434252.639 6
  15921570.568   -15130443.924 5 -11082831.863 4
  16009015.857   -40395113.019 6 -25084031.210 1
  14537024.669   -38256219.758 6 -25764004.007 6
  17018480.068    -6936816.469 3  -1959747.001 1
  15231231.724   -38660045.917 6
